<?xml version="1.0" encoding="UTF-8" standalone="no" ?>
<gpx xmlns="http://www.topografix.com/GPX/1/1" xmlns:xsi="http://www.w3.org/2001/XMLSchema-instance" xsi:schemaLocation="http://www.topografix.com/GPX/1/1 http://www.topografix.com/GPX/1/1/gpx.xsd" version="1.1" creator="VisuGPX - https://www.visugpx.com">
  <metadata>
    <name>2 vallées, 4 jours de trek</name>
  </metadata>
  <wpt lat="42.87291" lon="-0.10943">
    <ele>1040</ele>
    <name><![CDATA[]]></name>
    <type><![CDATA[GENERIC]]></type>
  </wpt>
  <wpt lat="42.87292" lon="-0.10943">
    <ele>1040</ele>
    <name><![CDATA[]]></name>
    <type><![CDATA[GENERIC]]></type>
  </wpt>
  <trk>
    <name><![CDATA[Trek Cauterets]]></name>
    <trkseg>
      <trkpt lat="42.87292" lon="-0.10943">
        <ele>1040</ele>
        <time>2024-12-05T08:19:21.000Z</time>
      </trkpt>
      <trkpt lat="42.87262" lon="-0.10957">
        <ele>1041</ele>
        <time>2024-12-05T08:19:21.000Z</time>
      </trkpt>
      <trkpt lat="42.87247" lon="-0.10965">
        <ele>1042</ele>
        <time>2024-12-05T08:19:21.000Z</time>
      </trkpt>
      <trkpt lat="42.87234" lon="-0.10982">
        <ele>1046</ele>
        <time>2024-12-05T08:19:21.000Z</time>
      </trkpt>
      <trkpt lat="42.8723" lon="-0.11009">
        <ele>1051</ele>
        <time>2024-12-05T08:19:21.000Z</time>
      </trkpt>
      <trkpt lat="42.87234" lon="-0.11021">
        <ele>1055</ele>
        <time>2024-12-05T08:19:21.000Z</time>
      </trkpt>
      <trkpt lat="42.87226" lon="-0.11055">
        <ele>1062</ele>
        <time>2024-12-05T08:19:21.000Z</time>
      </trkpt>
      <trkpt lat="42.87202" lon="-0.11077">
        <ele>1062</ele>
        <time>2024-12-05T08:19:21.000Z</time>
      </trkpt>
      <trkpt lat="42.87197" lon="-0.11088">
        <ele>1063</ele>
        <time>2024-12-05T08:19:22.000Z</time>
      </trkpt>
      <trkpt lat="42.87191" lon="-0.111">
        <ele>1066</ele>
        <time>2024-12-05T08:19:22.000Z</time>
      </trkpt>
      <trkpt lat="42.87174" lon="-0.11122">
        <ele>1069</ele>
        <time>2024-12-05T08:19:22.000Z</time>
      </trkpt>
      <trkpt lat="42.87189" lon="-0.11122">
        <ele>1072</ele>
        <time>2024-12-05T08:19:22.000Z</time>
      </trkpt>
      <trkpt lat="42.87191" lon="-0.11126">
        <ele>1075</ele>
        <time>2024-12-05T08:19:23.000Z</time>
      </trkpt>
      <trkpt lat="42.87172" lon="-0.11147">
        <ele>1079</ele>
        <time>2024-12-05T08:19:23.000Z</time>
      </trkpt>
      <trkpt lat="42.87153" lon="-0.11167">
        <ele>1084</ele>
        <time>2024-12-05T08:19:23.000Z</time>
      </trkpt>
      <trkpt lat="42.87134" lon="-0.11188">
        <ele>1090</ele>
        <time>2024-12-05T08:19:24.000Z</time>
      </trkpt>
      <trkpt lat="42.87123" lon="-0.1119">
        <ele>1090</ele>
        <time>2024-12-05T08:19:24.000Z</time>
      </trkpt>
      <trkpt lat="42.87106" lon="-0.11186">
        <ele>1087</ele>
        <time>2024-12-05T08:19:24.000Z</time>
      </trkpt>
      <trkpt lat="42.87083" lon="-0.11211">
        <ele>1099</ele>
        <time>2024-12-05T08:19:25.000Z</time>
      </trkpt>
      <trkpt lat="42.87061" lon="-0.11235">
        <ele>1106</ele>
        <time>2024-12-05T08:19:25.000Z</time>
      </trkpt>
      <trkpt lat="42.87035" lon="-0.11255">
        <ele>1114</ele>
        <time>2024-12-05T08:19:26.000Z</time>
      </trkpt>
      <trkpt lat="42.87033" lon="-0.11257">
        <ele>1114</ele>
        <time>2024-12-05T08:19:26.000Z</time>
      </trkpt>
      <trkpt lat="42.87026" lon="-0.11274">
        <ele>1118</ele>
        <time>2024-12-05T08:19:27.000Z</time>
      </trkpt>
      <trkpt lat="42.87035" lon="-0.11285">
        <ele>1120</ele>
        <time>2024-12-05T08:19:28.000Z</time>
      </trkpt>
      <trkpt lat="42.87035" lon="-0.113">
        <ele>1125</ele>
        <time>2024-12-05T08:19:28.000Z</time>
      </trkpt>
      <trkpt lat="42.87028" lon="-0.11321">
        <ele>1129</ele>
        <time>2024-12-05T08:19:29.000Z</time>
      </trkpt>
      <trkpt lat="42.87018" lon="-0.11334">
        <ele>1130</ele>
        <time>2024-12-05T08:19:29.000Z</time>
      </trkpt>
      <trkpt lat="42.86997" lon="-0.11353">
        <ele>1131</ele>
        <time>2024-12-05T08:19:30.000Z</time>
      </trkpt>
      <trkpt lat="42.86976" lon="-0.11371">
        <ele>1130</ele>
        <time>2024-12-05T08:19:31.000Z</time>
      </trkpt>
      <trkpt lat="42.86955" lon="-0.1139">
        <ele>1133</ele>
        <time>2024-12-05T08:19:32.000Z</time>
      </trkpt>
      <trkpt lat="42.86931" lon="-0.11395">
        <ele>1133</ele>
        <time>2024-12-05T08:19:32.000Z</time>
      </trkpt>
      <trkpt lat="42.86907" lon="-0.11401">
        <ele>1134</ele>
        <time>2024-12-05T08:19:33.000Z</time>
      </trkpt>
      <trkpt lat="42.86882" lon="-0.11407">
        <ele>1137</ele>
        <time>2024-12-05T08:19:34.000Z</time>
      </trkpt>
      <trkpt lat="42.86867" lon="-0.11407">
        <ele>1138</ele>
        <time>2024-12-05T08:19:35.000Z</time>
      </trkpt>
      <trkpt lat="42.8685" lon="-0.11424">
        <ele>1145</ele>
        <time>2024-12-05T08:19:36.000Z</time>
      </trkpt>
      <trkpt lat="42.86835" lon="-0.11426">
        <ele>1145</ele>
        <time>2024-12-05T08:19:37.000Z</time>
      </trkpt>
      <trkpt lat="42.86825" lon="-0.11433">
        <ele>1147</ele>
        <time>2024-12-05T08:19:37.000Z</time>
      </trkpt>
      <trkpt lat="42.86822" lon="-0.11441">
        <ele>1151</ele>
        <time>2024-12-05T08:19:38.000Z</time>
      </trkpt>
      <trkpt lat="42.86814" lon="-0.11456">
        <ele>1156</ele>
        <time>2024-12-05T08:19:39.000Z</time>
      </trkpt>
      <trkpt lat="42.86797" lon="-0.1145">
        <ele>1154</ele>
        <time>2024-12-05T08:19:40.000Z</time>
      </trkpt>
      <trkpt lat="42.86775" lon="-0.1145">
        <ele>1155</ele>
        <time>2024-12-05T08:19:41.000Z</time>
      </trkpt>
      <trkpt lat="42.86761" lon="-0.11475">
        <ele>1161</ele>
        <time>2024-12-05T08:19:42.000Z</time>
      </trkpt>
      <trkpt lat="42.86747" lon="-0.11499">
        <ele>1165</ele>
        <time>2024-12-05T08:19:43.000Z</time>
      </trkpt>
      <trkpt lat="42.86745" lon="-0.11514">
        <ele>1169</ele>
        <time>2024-12-05T08:19:44.000Z</time>
      </trkpt>
      <trkpt lat="42.86739" lon="-0.11523">
        <ele>1170</ele>
        <time>2024-12-05T08:19:45.000Z</time>
      </trkpt>
      <trkpt lat="42.86729" lon="-0.11546">
        <ele>1175</ele>
        <time>2024-12-05T08:19:47.000Z</time>
      </trkpt>
      <trkpt lat="42.86719" lon="-0.1157">
        <ele>1178</ele>
        <time>2024-12-05T08:19:48.000Z</time>
      </trkpt>
      <trkpt lat="42.86711" lon="-0.11581">
        <ele>1179</ele>
        <time>2024-12-05T08:19:49.000Z</time>
      </trkpt>
      <trkpt lat="42.867" lon="-0.11587">
        <ele>1176</ele>
        <time>2024-12-05T08:19:50.000Z</time>
      </trkpt>
      <trkpt lat="42.86696" lon="-0.116">
        <ele>1179</ele>
        <time>2024-12-05T08:19:51.000Z</time>
      </trkpt>
      <trkpt lat="42.86685" lon="-0.11613">
        <ele>1181</ele>
        <time>2024-12-05T08:19:52.000Z</time>
      </trkpt>
      <trkpt lat="42.8667" lon="-0.11626">
        <ele>1183</ele>
        <time>2024-12-05T08:19:54.000Z</time>
      </trkpt>
      <trkpt lat="42.86655" lon="-0.11628">
        <ele>1182</ele>
        <time>2024-12-05T08:19:55.000Z</time>
      </trkpt>
      <trkpt lat="42.86646" lon="-0.11647">
        <ele>1192</ele>
        <time>2024-12-05T08:19:56.000Z</time>
      </trkpt>
      <trkpt lat="42.86638" lon="-0.11649">
        <ele>1193</ele>
        <time>2024-12-05T08:19:57.000Z</time>
      </trkpt>
      <trkpt lat="42.86621" lon="-0.11667">
        <ele>1201</ele>
        <time>2024-12-05T08:19:59.000Z</time>
      </trkpt>
      <trkpt lat="42.86602" lon="-0.11673">
        <ele>1204</ele>
        <time>2024-12-05T08:20:00.000Z</time>
      </trkpt>
      <trkpt lat="42.86584" lon="-0.11679">
        <ele>1207</ele>
        <time>2024-12-05T08:20:01.000Z</time>
      </trkpt>
      <trkpt lat="42.86563" lon="-0.11673">
        <ele>1199</ele>
        <time>2024-12-05T08:20:03.000Z</time>
      </trkpt>
      <trkpt lat="42.86563" lon="-0.11682">
        <ele>1204</ele>
        <time>2024-12-05T08:20:04.000Z</time>
      </trkpt>
      <trkpt lat="42.86552" lon="-0.11703">
        <ele>1210</ele>
        <time>2024-12-05T08:20:06.000Z</time>
      </trkpt>
      <trkpt lat="42.86546" lon="-0.11712">
        <ele>1212</ele>
        <time>2024-12-05T08:20:07.000Z</time>
      </trkpt>
      <trkpt lat="42.86542" lon="-0.11733">
        <ele>1219</ele>
        <time>2024-12-05T08:20:09.000Z</time>
      </trkpt>
      <trkpt lat="42.86539" lon="-0.11755">
        <ele>1229</ele>
        <time>2024-12-05T08:20:10.000Z</time>
      </trkpt>
      <trkpt lat="42.86524" lon="-0.11763">
        <ele>1221</ele>
        <time>2024-12-05T08:20:11.000Z</time>
      </trkpt>
      <trkpt lat="42.86518" lon="-0.11778">
        <ele>1223</ele>
        <time>2024-12-05T08:20:13.000Z</time>
      </trkpt>
      <trkpt lat="42.86522" lon="-0.11791">
        <ele>1230</ele>
        <time>2024-12-05T08:20:15.000Z</time>
      </trkpt>
      <trkpt lat="42.86513" lon="-0.11823">
        <ele>1237</ele>
        <time>2024-12-05T08:20:16.000Z</time>
      </trkpt>
      <trkpt lat="42.86492" lon="-0.11847">
        <ele>1240</ele>
        <time>2024-12-05T08:20:18.000Z</time>
      </trkpt>
      <trkpt lat="42.86473" lon="-0.11845">
        <ele>1231</ele>
        <time>2024-12-05T08:20:19.000Z</time>
      </trkpt>
      <trkpt lat="42.86453" lon="-0.11843">
        <ele>1224</ele>
        <time>2024-12-05T08:20:21.000Z</time>
      </trkpt>
      <trkpt lat="42.86449" lon="-0.11836">
        <ele>1221</ele>
        <time>2024-12-05T08:20:23.000Z</time>
      </trkpt>
      <trkpt lat="42.86428" lon="-0.11853">
        <ele>1225</ele>
        <time>2024-12-05T08:20:24.000Z</time>
      </trkpt>
      <trkpt lat="42.8643" lon="-0.11862">
        <ele>1227</ele>
        <time>2024-12-05T08:20:26.000Z</time>
      </trkpt>
      <trkpt lat="42.86428" lon="-0.1187">
        <ele>1229</ele>
        <time>2024-12-05T08:20:28.000Z</time>
      </trkpt>
      <trkpt lat="42.86419" lon="-0.1187">
        <ele>1228</ele>
        <time>2024-12-05T08:20:29.000Z</time>
      </trkpt>
      <trkpt lat="42.86404" lon="-0.11883">
        <ele>1230</ele>
        <time>2024-12-05T08:20:31.000Z</time>
      </trkpt>
      <trkpt lat="42.86391" lon="-0.11905">
        <ele>1235</ele>
        <time>2024-12-05T08:20:33.000Z</time>
      </trkpt>
      <trkpt lat="42.86413" lon="-0.11915">
        <ele>1241</ele>
        <time>2024-12-05T08:20:35.000Z</time>
      </trkpt>
      <trkpt lat="42.86413" lon="-0.11928">
        <ele>1247</ele>
        <time>2024-12-05T08:20:37.000Z</time>
      </trkpt>
      <trkpt lat="42.864" lon="-0.11937">
        <ele>1250</ele>
        <time>2024-12-05T08:20:38.000Z</time>
      </trkpt>
      <trkpt lat="42.86393" lon="-0.11935">
        <ele>1247</ele>
        <time>2024-12-05T08:20:40.000Z</time>
      </trkpt>
      <trkpt lat="42.86382" lon="-0.11948">
        <ele>1251</ele>
        <time>2024-12-05T08:20:42.000Z</time>
      </trkpt>
      <trkpt lat="42.86372" lon="-0.11948">
        <ele>1249</ele>
        <time>2024-12-05T08:20:44.000Z</time>
      </trkpt>
      <trkpt lat="42.86346" lon="-0.11956">
        <ele>1248</ele>
        <time>2024-12-05T08:20:46.000Z</time>
      </trkpt>
      <trkpt lat="42.86346" lon="-0.11963">
        <ele>1249</ele>
        <time>2024-12-05T08:20:48.000Z</time>
      </trkpt>
      <trkpt lat="42.86335" lon="-0.11997">
        <ele>1260</ele>
        <time>2024-12-05T08:20:50.000Z</time>
      </trkpt>
      <trkpt lat="42.86333" lon="-0.12021">
        <ele>1269</ele>
        <time>2024-12-05T08:20:52.000Z</time>
      </trkpt>
      <trkpt lat="42.8632" lon="-0.1204">
        <ele>1271</ele>
        <time>2024-12-05T08:20:54.000Z</time>
      </trkpt>
      <trkpt lat="42.86303" lon="-0.12074">
        <ele>1275</ele>
        <time>2024-12-05T08:20:56.000Z</time>
      </trkpt>
      <trkpt lat="42.86305" lon="-0.12085">
        <ele>1277</ele>
        <time>2024-12-05T08:20:58.000Z</time>
      </trkpt>
      <trkpt lat="42.86295" lon="-0.12109">
        <ele>1280</ele>
        <time>2024-12-05T08:21:00.000Z</time>
      </trkpt>
      <trkpt lat="42.86284" lon="-0.12113">
        <ele>1277</ele>
        <time>2024-12-05T08:21:02.000Z</time>
      </trkpt>
      <trkpt lat="42.86277" lon="-0.1213">
        <ele>1277</ele>
        <time>2024-12-05T08:21:04.000Z</time>
      </trkpt>
      <trkpt lat="42.86277" lon="-0.12152">
        <ele>1280</ele>
        <time>2024-12-05T08:21:06.000Z</time>
      </trkpt>
      <trkpt lat="42.86284" lon="-0.12156">
        <ele>1281</ele>
        <time>2024-12-05T08:21:08.000Z</time>
      </trkpt>
      <trkpt lat="42.86279" lon="-0.12167">
        <ele>1281</ele>
        <time>2024-12-05T08:21:10.000Z</time>
      </trkpt>
      <trkpt lat="42.86282" lon="-0.12173">
        <ele>1282</ele>
        <time>2024-12-05T08:21:13.000Z</time>
      </trkpt>
      <trkpt lat="42.86284" lon="-0.12212">
        <ele>1290</ele>
        <time>2024-12-05T08:21:15.000Z</time>
      </trkpt>
      <trkpt lat="42.86275" lon="-0.12222">
        <ele>1290</ele>
        <time>2024-12-05T08:21:17.000Z</time>
      </trkpt>
      <trkpt lat="42.8626" lon="-0.12235">
        <ele>1290</ele>
        <time>2024-12-05T08:21:19.000Z</time>
      </trkpt>
      <trkpt lat="42.86245" lon="-0.12248">
        <ele>1290</ele>
        <time>2024-12-05T08:21:22.000Z</time>
      </trkpt>
      <trkpt lat="42.86234" lon="-0.12246">
        <ele>1289</ele>
        <time>2024-12-05T08:21:24.000Z</time>
      </trkpt>
      <trkpt lat="42.86241" lon="-0.12257">
        <ele>1292</ele>
        <time>2024-12-05T08:21:26.000Z</time>
      </trkpt>
      <trkpt lat="42.86239" lon="-0.12265">
        <ele>1295</ele>
        <time>2024-12-05T08:21:28.000Z</time>
      </trkpt>
      <trkpt lat="42.86228" lon="-0.12276">
        <ele>1298</ele>
        <time>2024-12-05T08:21:31.000Z</time>
      </trkpt>
      <trkpt lat="42.86239" lon="-0.12315">
        <ele>1316</ele>
        <time>2024-12-05T08:21:33.000Z</time>
      </trkpt>
      <trkpt lat="42.86215" lon="-0.12338">
        <ele>1317</ele>
        <time>2024-12-05T08:21:36.000Z</time>
      </trkpt>
      <trkpt lat="42.86197" lon="-0.12346">
        <ele>1317</ele>
        <time>2024-12-05T08:21:38.000Z</time>
      </trkpt>
      <trkpt lat="42.86178" lon="-0.12353">
        <ele>1319</ele>
        <time>2024-12-05T08:21:40.000Z</time>
      </trkpt>
      <trkpt lat="42.86172" lon="-0.12355">
        <ele>1320</ele>
        <time>2024-12-05T08:21:43.000Z</time>
      </trkpt>
      <trkpt lat="42.86168" lon="-0.12364">
        <ele>1328</ele>
        <time>2024-12-05T08:21:45.000Z</time>
      </trkpt>
      <trkpt lat="42.8614" lon="-0.1236">
        <ele>1325</ele>
        <time>2024-12-05T08:21:48.000Z</time>
      </trkpt>
      <trkpt lat="42.86112" lon="-0.12355">
        <ele>1325</ele>
        <time>2024-12-05T08:21:50.000Z</time>
      </trkpt>
      <trkpt lat="42.86099" lon="-0.12366">
        <ele>1330</ele>
        <time>2024-12-05T08:21:53.000Z</time>
      </trkpt>
      <trkpt lat="42.86089" lon="-0.12366">
        <ele>1332</ele>
        <time>2024-12-05T08:21:56.000Z</time>
      </trkpt>
      <trkpt lat="42.86077" lon="-0.12382">
        <ele>1335</ele>
        <time>2024-12-05T08:21:58.000Z</time>
      </trkpt>
      <trkpt lat="42.86065" lon="-0.12398">
        <ele>1340</ele>
        <time>2024-12-05T08:22:01.000Z</time>
      </trkpt>
      <trkpt lat="42.86056" lon="-0.12437">
        <ele>1353</ele>
        <time>2024-12-05T08:22:03.000Z</time>
      </trkpt>
      <trkpt lat="42.86048" lon="-0.12461">
        <ele>1361</ele>
        <time>2024-12-05T08:22:06.000Z</time>
      </trkpt>
      <trkpt lat="42.86037" lon="-0.12473">
        <ele>1363</ele>
        <time>2024-12-05T08:22:09.000Z</time>
      </trkpt>
      <trkpt lat="42.86026" lon="-0.12476">
        <ele>1362</ele>
        <time>2024-12-05T08:22:12.000Z</time>
      </trkpt>
      <trkpt lat="42.86013" lon="-0.12493">
        <ele>1366</ele>
        <time>2024-12-05T08:22:14.000Z</time>
      </trkpt>
      <trkpt lat="42.85998" lon="-0.12497">
        <ele>1364</ele>
        <time>2024-12-05T08:22:17.000Z</time>
      </trkpt>
      <trkpt lat="42.85998" lon="-0.12491">
        <ele>1362</ele>
        <time>2024-12-05T08:22:20.000Z</time>
      </trkpt>
      <trkpt lat="42.85975" lon="-0.12478">
        <ele>1356</ele>
        <time>2024-12-05T08:22:23.000Z</time>
      </trkpt>
      <trkpt lat="42.85975" lon="-0.12478">
        <ele>1356</ele>
        <time>2024-12-05T08:22:25.000Z</time>
      </trkpt>
      <trkpt lat="42.85964" lon="-0.12486">
        <ele>1356</ele>
        <time>2024-12-05T08:22:28.000Z</time>
      </trkpt>
      <trkpt lat="42.85955" lon="-0.12503">
        <ele>1358</ele>
        <time>2024-12-05T08:22:31.000Z</time>
      </trkpt>
      <trkpt lat="42.85951" lon="-0.12523">
        <ele>1361</ele>
        <time>2024-12-05T08:22:34.000Z</time>
      </trkpt>
      <trkpt lat="42.85936" lon="-0.12544">
        <ele>1362</ele>
        <time>2024-12-05T08:22:37.000Z</time>
      </trkpt>
      <trkpt lat="42.85921" lon="-0.12555">
        <ele>1361</ele>
        <time>2024-12-05T08:22:40.000Z</time>
      </trkpt>
      <trkpt lat="42.85915" lon="-0.1257">
        <ele>1362</ele>
        <time>2024-12-05T08:22:43.000Z</time>
      </trkpt>
      <trkpt lat="42.85913" lon="-0.12587">
        <ele>1364</ele>
        <time>2024-12-05T08:22:46.000Z</time>
      </trkpt>
      <trkpt lat="42.85895" lon="-0.12598">
        <ele>1364</ele>
        <time>2024-12-05T08:22:49.000Z</time>
      </trkpt>
      <trkpt lat="42.85878" lon="-0.12628">
        <ele>1369</ele>
        <time>2024-12-05T08:22:52.000Z</time>
      </trkpt>
      <trkpt lat="42.85859" lon="-0.12654">
        <ele>1371</ele>
        <time>2024-12-05T08:22:55.000Z</time>
      </trkpt>
      <trkpt lat="42.8585" lon="-0.12654">
        <ele>1368</ele>
        <time>2024-12-05T08:22:58.000Z</time>
      </trkpt>
      <trkpt lat="42.8584" lon="-0.12677">
        <ele>1369</ele>
        <time>2024-12-05T08:23:01.000Z</time>
      </trkpt>
      <trkpt lat="42.85822" lon="-0.12694">
        <ele>1370</ele>
        <time>2024-12-05T08:23:04.000Z</time>
      </trkpt>
      <trkpt lat="42.85803" lon="-0.12727">
        <ele>1374</ele>
        <time>2024-12-05T08:23:07.000Z</time>
      </trkpt>
      <trkpt lat="42.8579" lon="-0.12724">
        <ele>1372</ele>
        <time>2024-12-05T08:23:10.000Z</time>
      </trkpt>
      <trkpt lat="42.8579" lon="-0.12724">
        <ele>1372</ele>
        <time>2024-12-05T08:23:13.000Z</time>
      </trkpt>
      <trkpt lat="42.85773" lon="-0.12748">
        <ele>1376</ele>
        <time>2024-12-05T08:23:17.000Z</time>
      </trkpt>
      <trkpt lat="42.85762" lon="-0.12772">
        <ele>1382</ele>
        <time>2024-12-05T08:23:20.000Z</time>
      </trkpt>
      <trkpt lat="42.85745" lon="-0.12792">
        <ele>1387</ele>
        <time>2024-12-05T08:23:23.000Z</time>
      </trkpt>
      <trkpt lat="42.85728" lon="-0.12812">
        <ele>1385</ele>
        <time>2024-12-05T08:23:26.000Z</time>
      </trkpt>
      <trkpt lat="42.85715" lon="-0.1284">
        <ele>1385</ele>
        <time>2024-12-05T08:23:30.000Z</time>
      </trkpt>
      <trkpt lat="42.85702" lon="-0.12868">
        <ele>1384</ele>
        <time>2024-12-05T08:23:33.000Z</time>
      </trkpt>
      <trkpt lat="42.85696" lon="-0.12896">
        <ele>1386</ele>
        <time>2024-12-05T08:23:36.000Z</time>
      </trkpt>
      <trkpt lat="42.85681" lon="-0.12914">
        <ele>1385</ele>
        <time>2024-12-05T08:23:40.000Z</time>
      </trkpt>
      <trkpt lat="42.85666" lon="-0.12933">
        <ele>1388</ele>
        <time>2024-12-05T08:23:43.000Z</time>
      </trkpt>
      <trkpt lat="42.85646" lon="-0.1295">
        <ele>1388</ele>
        <time>2024-12-05T08:23:47.000Z</time>
      </trkpt>
      <trkpt lat="42.85636" lon="-0.12956">
        <ele>1390</ele>
        <time>2024-12-05T08:23:50.000Z</time>
      </trkpt>
      <trkpt lat="42.85629" lon="-0.12969">
        <ele>1393</ele>
        <time>2024-12-05T08:23:54.000Z</time>
      </trkpt>
      <trkpt lat="42.85619" lon="-0.12971">
        <ele>1392</ele>
        <time>2024-12-05T08:23:57.000Z</time>
      </trkpt>
      <trkpt lat="42.85599" lon="-0.12991">
        <ele>1393</ele>
        <time>2024-12-05T08:24:01.000Z</time>
      </trkpt>
      <trkpt lat="42.85586" lon="-0.13021">
        <ele>1397</ele>
        <time>2024-12-05T08:24:04.000Z</time>
      </trkpt>
      <trkpt lat="42.85569" lon="-0.13042">
        <ele>1399</ele>
        <time>2024-12-05T08:24:08.000Z</time>
      </trkpt>
      <trkpt lat="42.85556" lon="-0.13063">
        <ele>1403</ele>
        <time>2024-12-05T08:24:12.000Z</time>
      </trkpt>
      <trkpt lat="42.85561" lon="-0.13089">
        <ele>1410</ele>
        <time>2024-12-05T08:24:15.000Z</time>
      </trkpt>
      <trkpt lat="42.85556" lon="-0.131">
        <ele>1411</ele>
        <time>2024-12-05T08:24:19.000Z</time>
      </trkpt>
      <trkpt lat="42.85548" lon="-0.13104">
        <ele>1410</ele>
        <time>2024-12-05T08:24:23.000Z</time>
      </trkpt>
      <trkpt lat="42.85556" lon="-0.13111">
        <ele>1415</ele>
        <time>2024-12-05T08:24:26.000Z</time>
      </trkpt>
      <trkpt lat="42.8555" lon="-0.13128">
        <ele>1417</ele>
        <time>2024-12-05T08:24:30.000Z</time>
      </trkpt>
      <trkpt lat="42.85539" lon="-0.13134">
        <ele>1417</ele>
        <time>2024-12-05T08:24:34.000Z</time>
      </trkpt>
      <trkpt lat="42.85559" lon="-0.13147">
        <ele>1426</ele>
        <time>2024-12-05T08:24:38.000Z</time>
      </trkpt>
      <trkpt lat="42.85567" lon="-0.13147">
        <ele>1429</ele>
        <time>2024-12-05T08:24:41.000Z</time>
      </trkpt>
      <trkpt lat="42.85578" lon="-0.13132">
        <ele>1429</ele>
        <time>2024-12-05T08:24:45.000Z</time>
      </trkpt>
      <trkpt lat="42.85589" lon="-0.13132">
        <ele>1434</ele>
        <time>2024-12-05T08:24:49.000Z</time>
      </trkpt>
      <trkpt lat="42.85595" lon="-0.13141">
        <ele>1439</ele>
        <time>2024-12-05T08:24:53.000Z</time>
      </trkpt>
      <trkpt lat="42.85597" lon="-0.13162">
        <ele>1444</ele>
        <time>2024-12-05T08:24:57.000Z</time>
      </trkpt>
      <trkpt lat="42.85586" lon="-0.13194">
        <ele>1444</ele>
        <time>2024-12-05T08:25:01.000Z</time>
      </trkpt>
      <trkpt lat="42.85586" lon="-0.13199">
        <ele>1445</ele>
        <time>2024-12-05T08:25:04.000Z</time>
      </trkpt>
      <trkpt lat="42.85584" lon="-0.13203">
        <ele>1445</ele>
        <time>2024-12-05T08:25:08.000Z</time>
      </trkpt>
      <trkpt lat="42.85559" lon="-0.13214">
        <ele>1443</ele>
        <time>2024-12-05T08:25:12.000Z</time>
      </trkpt>
      <trkpt lat="42.85554" lon="-0.13231">
        <ele>1447</ele>
        <time>2024-12-05T08:25:16.000Z</time>
      </trkpt>
      <trkpt lat="42.85543" lon="-0.13244">
        <ele>1449</ele>
        <time>2024-12-05T08:25:20.000Z</time>
      </trkpt>
      <trkpt lat="42.85533" lon="-0.13231">
        <ele>1445</ele>
        <time>2024-12-05T08:25:24.000Z</time>
      </trkpt>
      <trkpt lat="42.85516" lon="-0.13237">
        <ele>1443</ele>
        <time>2024-12-05T08:25:28.000Z</time>
      </trkpt>
      <trkpt lat="42.85505" lon="-0.1325">
        <ele>1443</ele>
        <time>2024-12-05T08:25:32.000Z</time>
      </trkpt>
      <trkpt lat="42.85492" lon="-0.13261">
        <ele>1443</ele>
        <time>2024-12-05T08:25:36.000Z</time>
      </trkpt>
      <trkpt lat="42.85486" lon="-0.13274">
        <ele>1444</ele>
        <time>2024-12-05T08:25:40.000Z</time>
      </trkpt>
      <trkpt lat="42.85477" lon="-0.13274">
        <ele>1443</ele>
        <time>2024-12-05T08:25:44.000Z</time>
      </trkpt>
      <trkpt lat="42.85473" lon="-0.13289">
        <ele>1444</ele>
        <time>2024-12-05T08:25:48.000Z</time>
      </trkpt>
      <trkpt lat="42.85466" lon="-0.13297">
        <ele>1444</ele>
        <time>2024-12-05T08:25:53.000Z</time>
      </trkpt>
      <trkpt lat="42.85462" lon="-0.13308">
        <ele>1446</ele>
        <time>2024-12-05T08:25:57.000Z</time>
      </trkpt>
      <trkpt lat="42.85458" lon="-0.13349">
        <ele>1449</ele>
        <time>2024-12-05T08:26:01.000Z</time>
      </trkpt>
      <trkpt lat="42.85451" lon="-0.13368">
        <ele>1451</ele>
        <time>2024-12-05T08:26:05.000Z</time>
      </trkpt>
      <trkpt lat="42.85451" lon="-0.13398">
        <ele>1456</ele>
        <time>2024-12-05T08:26:09.000Z</time>
      </trkpt>
      <trkpt lat="42.85439" lon="-0.13418">
        <ele>1456</ele>
        <time>2024-12-05T08:26:13.000Z</time>
      </trkpt>
      <trkpt lat="42.85428" lon="-0.13437">
        <ele>1457</ele>
        <time>2024-12-05T08:26:18.000Z</time>
      </trkpt>
      <trkpt lat="42.85423" lon="-0.13467">
        <ele>1459</ele>
        <time>2024-12-05T08:26:22.000Z</time>
      </trkpt>
      <trkpt lat="42.85415" lon="-0.13482">
        <ele>1459</ele>
        <time>2024-12-05T08:26:26.000Z</time>
      </trkpt>
      <trkpt lat="42.854" lon="-0.1349">
        <ele>1458</ele>
        <time>2024-12-05T08:26:31.000Z</time>
      </trkpt>
      <trkpt lat="42.854" lon="-0.13499">
        <ele>1459</ele>
        <time>2024-12-05T08:26:35.000Z</time>
      </trkpt>
      <trkpt lat="42.85389" lon="-0.13508">
        <ele>1459</ele>
        <time>2024-12-05T08:26:39.000Z</time>
      </trkpt>
      <trkpt lat="42.8537" lon="-0.13512">
        <ele>1459</ele>
        <time>2024-12-05T08:26:44.000Z</time>
      </trkpt>
      <trkpt lat="42.85378" lon="-0.13527">
        <ele>1462</ele>
        <time>2024-12-05T08:26:48.000Z</time>
      </trkpt>
      <trkpt lat="42.85363" lon="-0.13557">
        <ele>1464</ele>
        <time>2024-12-05T08:26:52.000Z</time>
      </trkpt>
      <trkpt lat="42.8535" lon="-0.13557">
        <ele>1461</ele>
        <time>2024-12-05T08:26:57.000Z</time>
      </trkpt>
      <trkpt lat="42.85344" lon="-0.13578">
        <ele>1463</ele>
        <time>2024-12-05T08:27:01.000Z</time>
      </trkpt>
      <trkpt lat="42.85344" lon="-0.136">
        <ele>1465</ele>
        <time>2024-12-05T08:27:06.000Z</time>
      </trkpt>
      <trkpt lat="42.85344" lon="-0.13621">
        <ele>1467</ele>
        <time>2024-12-05T08:27:10.000Z</time>
      </trkpt>
      <trkpt lat="42.85341" lon="-0.13654">
        <ele>1467</ele>
        <time>2024-12-05T08:27:15.000Z</time>
      </trkpt>
      <trkpt lat="42.85337" lon="-0.13686">
        <ele>1465</ele>
        <time>2024-12-05T08:27:19.000Z</time>
      </trkpt>
      <trkpt lat="42.8534" lon="-0.13707">
        <ele>1466</ele>
        <time>2024-12-05T08:27:24.000Z</time>
      </trkpt>
      <trkpt lat="42.85342" lon="-0.13729">
        <ele>1465</ele>
        <time>2024-12-05T08:27:29.000Z</time>
      </trkpt>
      <trkpt lat="42.85335" lon="-0.13748">
        <ele>1463</ele>
        <time>2024-12-05T08:27:33.000Z</time>
      </trkpt>
      <trkpt lat="42.85322" lon="-0.13763">
        <ele>1463</ele>
        <time>2024-12-05T08:27:38.000Z</time>
      </trkpt>
      <trkpt lat="42.85309" lon="-0.13787">
        <ele>1463</ele>
        <time>2024-12-05T08:27:43.000Z</time>
      </trkpt>
      <trkpt lat="42.85295" lon="-0.1381">
        <ele>1464</ele>
        <time>2024-12-05T08:27:47.000Z</time>
      </trkpt>
      <trkpt lat="42.85278" lon="-0.13823">
        <ele>1467</ele>
        <time>2024-12-05T08:27:52.000Z</time>
      </trkpt>
      <trkpt lat="42.85262" lon="-0.13836">
        <ele>1470</ele>
        <time>2024-12-05T08:27:57.000Z</time>
      </trkpt>
      <trkpt lat="42.8524" lon="-0.13842">
        <ele>1473</ele>
        <time>2024-12-05T08:28:02.000Z</time>
      </trkpt>
      <trkpt lat="42.85217" lon="-0.13849">
        <ele>1475</ele>
        <time>2024-12-05T08:28:06.000Z</time>
      </trkpt>
      <trkpt lat="42.85198" lon="-0.1386">
        <ele>1478</ele>
        <time>2024-12-05T08:28:11.000Z</time>
      </trkpt>
      <trkpt lat="42.85179" lon="-0.1387">
        <ele>1480</ele>
        <time>2024-12-05T08:28:16.000Z</time>
      </trkpt>
      <trkpt lat="42.85163" lon="-0.13893">
        <ele>1482</ele>
        <time>2024-12-05T08:28:21.000Z</time>
      </trkpt>
      <trkpt lat="42.85147" lon="-0.13915">
        <ele>1484</ele>
        <time>2024-12-05T08:28:26.000Z</time>
      </trkpt>
      <trkpt lat="42.85134" lon="-0.13924">
        <ele>1484</ele>
        <time>2024-12-05T08:28:31.000Z</time>
      </trkpt>
      <trkpt lat="42.85127" lon="-0.13933">
        <ele>1485</ele>
        <time>2024-12-05T08:28:36.000Z</time>
      </trkpt>
      <trkpt lat="42.85138" lon="-0.13933">
        <ele>1487</ele>
        <time>2024-12-05T08:28:41.000Z</time>
      </trkpt>
      <trkpt lat="42.85138" lon="-0.13935">
        <ele>1487</ele>
        <time>2024-12-05T08:28:46.000Z</time>
      </trkpt>
      <trkpt lat="42.85114" lon="-0.1396">
        <ele>1488</ele>
        <time>2024-12-05T08:28:51.000Z</time>
      </trkpt>
      <trkpt lat="42.85106" lon="-0.1398">
        <ele>1490</ele>
        <time>2024-12-05T08:28:56.000Z</time>
      </trkpt>
      <trkpt lat="42.85112" lon="-0.13986">
        <ele>1491</ele>
        <time>2024-12-05T08:29:01.000Z</time>
      </trkpt>
      <trkpt lat="42.85129" lon="-0.13975">
        <ele>1493</ele>
        <time>2024-12-05T08:29:06.000Z</time>
      </trkpt>
      <trkpt lat="42.85136" lon="-0.13975">
        <ele>1494</ele>
        <time>2024-12-05T08:29:11.000Z</time>
      </trkpt>
      <trkpt lat="42.8514" lon="-0.13982">
        <ele>1496</ele>
        <time>2024-12-05T08:29:16.000Z</time>
      </trkpt>
      <trkpt lat="42.85133" lon="-0.14013">
        <ele>1499</ele>
        <time>2024-12-05T08:29:22.000Z</time>
      </trkpt>
      <trkpt lat="42.85125" lon="-0.14044">
        <ele>1500</ele>
        <time>2024-12-05T08:29:27.000Z</time>
      </trkpt>
      <trkpt lat="42.85123" lon="-0.14083">
        <ele>1503</ele>
        <time>2024-12-05T08:29:32.000Z</time>
      </trkpt>
      <trkpt lat="42.85129" lon="-0.14106">
        <ele>1506</ele>
        <time>2024-12-05T08:29:37.000Z</time>
      </trkpt>
      <trkpt lat="42.85136" lon="-0.1413">
        <ele>1509</ele>
        <time>2024-12-05T08:29:42.000Z</time>
      </trkpt>
      <trkpt lat="42.85142" lon="-0.14145">
        <ele>1510</ele>
        <time>2024-12-05T08:29:48.000Z</time>
      </trkpt>
      <trkpt lat="42.8517" lon="-0.1416">
        <ele>1518</ele>
        <time>2024-12-05T08:29:53.000Z</time>
      </trkpt>
      <trkpt lat="42.85179" lon="-0.14173">
        <ele>1520</ele>
        <time>2024-12-05T08:29:58.000Z</time>
      </trkpt>
      <trkpt lat="42.85185" lon="-0.1419">
        <ele>1520</ele>
        <time>2024-12-05T08:30:04.000Z</time>
      </trkpt>
      <trkpt lat="42.85204" lon="-0.1422">
        <ele>1520</ele>
        <time>2024-12-05T08:30:09.000Z</time>
      </trkpt>
      <trkpt lat="42.85228" lon="-0.14248">
        <ele>1518</ele>
        <time>2024-12-05T08:30:15.000Z</time>
      </trkpt>
      <trkpt lat="42.85245" lon="-0.14261">
        <ele>1519</ele>
        <time>2024-12-05T08:30:20.000Z</time>
      </trkpt>
      <trkpt lat="42.85254" lon="-0.14267">
        <ele>1520</ele>
        <time>2024-12-05T08:30:25.000Z</time>
      </trkpt>
      <trkpt lat="42.85258" lon="-0.14282">
        <ele>1521</ele>
        <time>2024-12-05T08:30:31.000Z</time>
      </trkpt>
      <trkpt lat="42.8526" lon="-0.14318">
        <ele>1521</ele>
        <time>2024-12-05T08:30:37.000Z</time>
      </trkpt>
      <trkpt lat="42.85262" lon="-0.14353">
        <ele>1520</ele>
        <time>2024-12-05T08:30:42.000Z</time>
      </trkpt>
      <trkpt lat="42.8526" lon="-0.14375">
        <ele>1521</ele>
        <time>2024-12-05T08:30:48.000Z</time>
      </trkpt>
      <trkpt lat="42.85247" lon="-0.14412">
        <ele>1520</ele>
        <time>2024-12-05T08:30:53.000Z</time>
      </trkpt>
      <trkpt lat="42.85235" lon="-0.1445">
        <ele>1520</ele>
        <time>2024-12-05T08:30:59.000Z</time>
      </trkpt>
      <trkpt lat="42.85224" lon="-0.14487">
        <ele>1519</ele>
        <time>2024-12-05T08:31:05.000Z</time>
      </trkpt>
      <trkpt lat="42.85213" lon="-0.14525">
        <ele>1519</ele>
        <time>2024-12-05T08:31:10.000Z</time>
      </trkpt>
      <trkpt lat="42.85199" lon="-0.14559">
        <ele>1522</ele>
        <time>2024-12-05T08:31:16.000Z</time>
      </trkpt>
      <trkpt lat="42.85184" lon="-0.14592">
        <ele>1524</ele>
        <time>2024-12-05T08:31:22.000Z</time>
      </trkpt>
      <trkpt lat="42.8517" lon="-0.14626">
        <ele>1523</ele>
        <time>2024-12-05T08:31:28.000Z</time>
      </trkpt>
      <trkpt lat="42.85155" lon="-0.1466">
        <ele>1521</ele>
        <time>2024-12-05T08:31:34.000Z</time>
      </trkpt>
      <trkpt lat="42.85159" lon="-0.14688">
        <ele>1521</ele>
        <time>2024-12-05T08:31:40.000Z</time>
      </trkpt>
      <trkpt lat="42.8517" lon="-0.14714">
        <ele>1521</ele>
        <time>2024-12-05T08:31:46.000Z</time>
      </trkpt>
      <trkpt lat="42.85168" lon="-0.14744">
        <ele>1521</ele>
        <time>2024-12-05T08:31:52.000Z</time>
      </trkpt>
      <trkpt lat="42.85166" lon="-0.14775">
        <ele>1521</ele>
        <time>2024-12-05T08:31:58.000Z</time>
      </trkpt>
      <trkpt lat="42.85164" lon="-0.14806">
        <ele>1522</ele>
        <time>2024-12-05T08:32:04.000Z</time>
      </trkpt>
      <trkpt lat="42.85168" lon="-0.14834">
        <ele>1525</ele>
        <time>2024-12-05T08:32:10.000Z</time>
      </trkpt>
      <trkpt lat="42.85169" lon="-0.14869">
        <ele>1529</ele>
        <time>2024-12-05T08:32:16.000Z</time>
      </trkpt>
      <trkpt lat="42.85169" lon="-0.14904">
        <ele>1531</ele>
        <time>2024-12-05T08:32:22.000Z</time>
      </trkpt>
      <trkpt lat="42.8517" lon="-0.14939">
        <ele>1535</ele>
        <time>2024-12-05T08:32:28.000Z</time>
      </trkpt>
      <trkpt lat="42.85172" lon="-0.14947">
        <ele>1536</ele>
        <time>2024-12-05T08:32:34.000Z</time>
      </trkpt>
      <trkpt lat="42.85179" lon="-0.14952">
        <ele>1538</ele>
        <time>2024-12-05T08:32:40.000Z</time>
      </trkpt>
      <trkpt lat="42.85185" lon="-0.14958">
        <ele>1539</ele>
        <time>2024-12-05T08:32:47.000Z</time>
      </trkpt>
      <trkpt lat="42.85192" lon="-0.14978">
        <ele>1540</ele>
        <time>2024-12-05T08:32:53.000Z</time>
      </trkpt>
      <trkpt lat="42.85205" lon="-0.15016">
        <ele>1546</ele>
        <time>2024-12-05T08:32:59.000Z</time>
      </trkpt>
      <trkpt lat="42.85219" lon="-0.15055">
        <ele>1550</ele>
        <time>2024-12-05T08:33:05.000Z</time>
      </trkpt>
      <trkpt lat="42.85232" lon="-0.15093">
        <ele>1554</ele>
        <time>2024-12-05T08:33:12.000Z</time>
      </trkpt>
      <trkpt lat="42.85247" lon="-0.15126">
        <ele>1560</ele>
        <time>2024-12-05T08:33:18.000Z</time>
      </trkpt>
      <trkpt lat="42.85247" lon="-0.15141">
        <ele>1561</ele>
        <time>2024-12-05T08:33:25.000Z</time>
      </trkpt>
      <trkpt lat="42.85241" lon="-0.15164">
        <ele>1561</ele>
        <time>2024-12-05T08:33:31.000Z</time>
      </trkpt>
      <trkpt lat="42.85235" lon="-0.15188">
        <ele>1562</ele>
        <time>2024-12-05T08:33:37.000Z</time>
      </trkpt>
      <trkpt lat="42.85227" lon="-0.15225">
        <ele>1564</ele>
        <time>2024-12-05T08:33:44.000Z</time>
      </trkpt>
      <trkpt lat="42.85219" lon="-0.15263">
        <ele>1567</ele>
        <time>2024-12-05T08:33:51.000Z</time>
      </trkpt>
      <trkpt lat="42.85219" lon="-0.15263">
        <ele>1567</ele>
        <time>2024-12-05T08:33:57.000Z</time>
      </trkpt>
      <trkpt lat="42.85212" lon="-0.15289">
        <ele>1568</ele>
        <time>2024-12-05T08:34:04.000Z</time>
      </trkpt>
      <trkpt lat="42.85204" lon="-0.15314">
        <ele>1569</ele>
        <time>2024-12-05T08:34:10.000Z</time>
      </trkpt>
      <trkpt lat="42.85203" lon="-0.15356">
        <ele>1574</ele>
        <time>2024-12-05T08:34:17.000Z</time>
      </trkpt>
      <trkpt lat="42.85202" lon="-0.15397">
        <ele>1576</ele>
        <time>2024-12-05T08:34:23.000Z</time>
      </trkpt>
      <trkpt lat="42.85201" lon="-0.15439">
        <ele>1576</ele>
        <time>2024-12-05T08:34:30.000Z</time>
      </trkpt>
      <trkpt lat="42.852" lon="-0.1548">
        <ele>1576</ele>
        <time>2024-12-05T08:34:37.000Z</time>
      </trkpt>
      <trkpt lat="42.85202" lon="-0.1551">
        <ele>1576</ele>
        <time>2024-12-05T08:34:44.000Z</time>
      </trkpt>
      <trkpt lat="42.85211" lon="-0.15542">
        <ele>1580</ele>
        <time>2024-12-05T08:34:50.000Z</time>
      </trkpt>
      <trkpt lat="42.85209" lon="-0.15578">
        <ele>1580</ele>
        <time>2024-12-05T08:34:57.000Z</time>
      </trkpt>
      <trkpt lat="42.85207" lon="-0.15615">
        <ele>1580</ele>
        <time>2024-12-05T08:35:04.000Z</time>
      </trkpt>
      <trkpt lat="42.85217" lon="-0.15643">
        <ele>1581</ele>
        <time>2024-12-05T08:35:11.000Z</time>
      </trkpt>
      <trkpt lat="42.85228" lon="-0.15671">
        <ele>1584</ele>
        <time>2024-12-05T08:35:18.000Z</time>
      </trkpt>
      <trkpt lat="42.85232" lon="-0.15692">
        <ele>1583</ele>
        <time>2024-12-05T08:35:25.000Z</time>
      </trkpt>
      <trkpt lat="42.8523" lon="-0.15716">
        <ele>1584</ele>
        <time>2024-12-05T08:35:32.000Z</time>
      </trkpt>
      <trkpt lat="42.85224" lon="-0.15735">
        <ele>1584</ele>
        <time>2024-12-05T08:35:39.000Z</time>
      </trkpt>
      <trkpt lat="42.85204" lon="-0.15763">
        <ele>1580</ele>
        <time>2024-12-05T08:35:46.000Z</time>
      </trkpt>
      <trkpt lat="42.85212" lon="-0.15797">
        <ele>1585</ele>
        <time>2024-12-05T08:35:53.000Z</time>
      </trkpt>
      <trkpt lat="42.85219" lon="-0.15832">
        <ele>1589</ele>
        <time>2024-12-05T08:36:00.000Z</time>
      </trkpt>
      <trkpt lat="42.85219" lon="-0.15844">
        <ele>1589</ele>
        <time>2024-12-05T08:36:07.000Z</time>
      </trkpt>
      <trkpt lat="42.85209" lon="-0.1587">
        <ele>1592</ele>
        <time>2024-12-05T08:36:15.000Z</time>
      </trkpt>
      <trkpt lat="42.85196" lon="-0.15887">
        <ele>1592</ele>
        <time>2024-12-05T08:36:22.000Z</time>
      </trkpt>
      <trkpt lat="42.85183" lon="-0.15904">
        <ele>1595</ele>
        <time>2024-12-05T08:36:29.000Z</time>
      </trkpt>
      <trkpt lat="42.85174" lon="-0.15928">
        <ele>1597</ele>
        <time>2024-12-05T08:36:36.000Z</time>
      </trkpt>
      <trkpt lat="42.85172" lon="-0.1595">
        <ele>1600</ele>
        <time>2024-12-05T08:36:43.000Z</time>
      </trkpt>
      <trkpt lat="42.8517" lon="-0.15971">
        <ele>1598</ele>
        <time>2024-12-05T08:36:51.000Z</time>
      </trkpt>
      <trkpt lat="42.85162" lon="-0.16004">
        <ele>1598</ele>
        <time>2024-12-05T08:36:58.000Z</time>
      </trkpt>
      <trkpt lat="42.85154" lon="-0.16037">
        <ele>1600</ele>
        <time>2024-12-05T08:37:05.000Z</time>
      </trkpt>
      <trkpt lat="42.85147" lon="-0.1607">
        <ele>1601</ele>
        <time>2024-12-05T08:37:13.000Z</time>
      </trkpt>
      <trkpt lat="42.8514" lon="-0.1608">
        <ele>1601</ele>
        <time>2024-12-05T08:37:20.000Z</time>
      </trkpt>
      <trkpt lat="42.85129" lon="-0.16111">
        <ele>1603</ele>
        <time>2024-12-05T08:37:27.000Z</time>
      </trkpt>
      <trkpt lat="42.85119" lon="-0.16141">
        <ele>1606</ele>
        <time>2024-12-05T08:37:35.000Z</time>
      </trkpt>
      <trkpt lat="42.85099" lon="-0.16168">
        <ele>1608</ele>
        <time>2024-12-05T08:37:42.000Z</time>
      </trkpt>
      <trkpt lat="42.85093" lon="-0.1619">
        <ele>1610</ele>
        <time>2024-12-05T08:37:50.000Z</time>
      </trkpt>
      <trkpt lat="42.85086" lon="-0.16211">
        <ele>1612</ele>
        <time>2024-12-05T08:37:57.000Z</time>
      </trkpt>
      <trkpt lat="42.85071" lon="-0.16231">
        <ele>1612</ele>
        <time>2024-12-05T08:38:05.000Z</time>
      </trkpt>
      <trkpt lat="42.85056" lon="-0.1625">
        <ele>1612</ele>
        <time>2024-12-05T08:38:13.000Z</time>
      </trkpt>
      <trkpt lat="42.8505" lon="-0.16254">
        <ele>1613</ele>
        <time>2024-12-05T08:38:20.000Z</time>
      </trkpt>
      <trkpt lat="42.8502" lon="-0.16263">
        <ele>1617</ele>
        <time>2024-12-05T08:38:28.000Z</time>
      </trkpt>
      <trkpt lat="42.8499" lon="-0.16271">
        <ele>1617</ele>
        <time>2024-12-05T08:38:36.000Z</time>
      </trkpt>
      <trkpt lat="42.84975" lon="-0.16287">
        <ele>1616</ele>
        <time>2024-12-05T08:38:43.000Z</time>
      </trkpt>
      <trkpt lat="42.8496" lon="-0.16304">
        <ele>1615</ele>
        <time>2024-12-05T08:38:51.000Z</time>
      </trkpt>
      <trkpt lat="42.84951" lon="-0.16319">
        <ele>1616</ele>
        <time>2024-12-05T08:38:59.000Z</time>
      </trkpt>
      <trkpt lat="42.84951" lon="-0.16359">
        <ele>1615</ele>
        <time>2024-12-05T08:39:07.000Z</time>
      </trkpt>
      <trkpt lat="42.84951" lon="-0.16359">
        <ele>1615</ele>
        <time>2024-12-05T08:39:14.000Z</time>
      </trkpt>
      <trkpt lat="42.84949" lon="-0.16383">
        <ele>1615</ele>
        <time>2024-12-05T08:39:22.000Z</time>
      </trkpt>
      <trkpt lat="42.84947" lon="-0.16407">
        <ele>1615</ele>
        <time>2024-12-05T08:39:30.000Z</time>
      </trkpt>
      <trkpt lat="42.84941" lon="-0.16424">
        <ele>1615</ele>
        <time>2024-12-05T08:39:38.000Z</time>
      </trkpt>
      <trkpt lat="42.84934" lon="-0.16426">
        <ele>1615</ele>
        <time>2024-12-05T08:39:46.000Z</time>
      </trkpt>
      <trkpt lat="42.84922" lon="-0.16446">
        <ele>1615</ele>
        <time>2024-12-05T08:39:54.000Z</time>
      </trkpt>
      <trkpt lat="42.8491" lon="-0.16467">
        <ele>1615</ele>
        <time>2024-12-05T08:40:01.000Z</time>
      </trkpt>
      <trkpt lat="42.84891" lon="-0.16471">
        <ele>1615</ele>
        <time>2024-12-05T08:40:09.000Z</time>
      </trkpt>
      <trkpt lat="42.84868" lon="-0.1649">
        <ele>1618</ele>
        <time>2024-12-05T08:40:17.000Z</time>
      </trkpt>
      <trkpt lat="42.84849" lon="-0.165">
        <ele>1618</ele>
        <time>2024-12-05T08:40:25.000Z</time>
      </trkpt>
      <trkpt lat="42.84831" lon="-0.1651">
        <ele>1617</ele>
        <time>2024-12-05T08:40:33.000Z</time>
      </trkpt>
      <trkpt lat="42.84816" lon="-0.16514">
        <ele>1617</ele>
        <time>2024-12-05T08:40:42.000Z</time>
      </trkpt>
      <trkpt lat="42.84799" lon="-0.16514">
        <ele>1618</ele>
        <time>2024-12-05T08:40:50.000Z</time>
      </trkpt>
      <trkpt lat="42.84784" lon="-0.1652">
        <ele>1620</ele>
        <time>2024-12-05T08:40:58.000Z</time>
      </trkpt>
      <trkpt lat="42.84771" lon="-0.16531">
        <ele>1618</ele>
        <time>2024-12-05T08:41:06.000Z</time>
      </trkpt>
      <trkpt lat="42.84762" lon="-0.16544">
        <ele>1619</ele>
        <time>2024-12-05T08:41:14.000Z</time>
      </trkpt>
      <trkpt lat="42.84737" lon="-0.16559">
        <ele>1616</ele>
        <time>2024-12-05T08:41:22.000Z</time>
      </trkpt>
      <trkpt lat="42.84732" lon="-0.16578">
        <ele>1618</ele>
        <time>2024-12-05T08:41:30.000Z</time>
      </trkpt>
      <trkpt lat="42.8472" lon="-0.16595">
        <ele>1618</ele>
        <time>2024-12-05T08:41:39.000Z</time>
      </trkpt>
      <trkpt lat="42.84711" lon="-0.16616">
        <ele>1618</ele>
        <time>2024-12-05T08:41:47.000Z</time>
      </trkpt>
      <trkpt lat="42.84702" lon="-0.16636">
        <ele>1618</ele>
        <time>2024-12-05T08:41:55.000Z</time>
      </trkpt>
      <trkpt lat="42.84689" lon="-0.16654">
        <ele>1619</ele>
        <time>2024-12-05T08:42:03.000Z</time>
      </trkpt>
      <trkpt lat="42.84677" lon="-0.16673">
        <ele>1618</ele>
        <time>2024-12-05T08:42:12.000Z</time>
      </trkpt>
      <trkpt lat="42.84656" lon="-0.16687">
        <ele>1618</ele>
        <time>2024-12-05T08:42:20.000Z</time>
      </trkpt>
      <trkpt lat="42.84636" lon="-0.16701">
        <ele>1618</ele>
        <time>2024-12-05T08:42:28.000Z</time>
      </trkpt>
      <trkpt lat="42.84611" lon="-0.16707">
        <ele>1619</ele>
        <time>2024-12-05T08:42:37.000Z</time>
      </trkpt>
      <trkpt lat="42.84586" lon="-0.16713">
        <ele>1619</ele>
        <time>2024-12-05T08:42:45.000Z</time>
      </trkpt>
      <trkpt lat="42.84568" lon="-0.16729">
        <ele>1621</ele>
        <time>2024-12-05T08:42:54.000Z</time>
      </trkpt>
      <trkpt lat="42.84549" lon="-0.16745">
        <ele>1621</ele>
        <time>2024-12-05T08:43:02.000Z</time>
      </trkpt>
      <trkpt lat="42.84531" lon="-0.16761">
        <ele>1622</ele>
        <time>2024-12-05T08:43:11.000Z</time>
      </trkpt>
      <trkpt lat="42.84514" lon="-0.16769">
        <ele>1621</ele>
        <time>2024-12-05T08:43:19.000Z</time>
      </trkpt>
      <trkpt lat="42.84498" lon="-0.16784">
        <ele>1622</ele>
        <time>2024-12-05T08:43:28.000Z</time>
      </trkpt>
      <trkpt lat="42.84483" lon="-0.16799">
        <ele>1621</ele>
        <time>2024-12-05T08:43:36.000Z</time>
      </trkpt>
      <trkpt lat="42.84468" lon="-0.1681">
        <ele>1620</ele>
        <time>2024-12-05T08:43:45.000Z</time>
      </trkpt>
      <trkpt lat="42.8444" lon="-0.16817">
        <ele>1620</ele>
        <time>2024-12-05T08:43:54.000Z</time>
      </trkpt>
      <trkpt lat="42.84411" lon="-0.16825">
        <ele>1620</ele>
        <time>2024-12-05T08:44:02.000Z</time>
      </trkpt>
      <trkpt lat="42.84386" lon="-0.16838">
        <ele>1619</ele>
        <time>2024-12-05T08:44:11.000Z</time>
      </trkpt>
      <trkpt lat="42.84361" lon="-0.16851">
        <ele>1622</ele>
        <time>2024-12-05T08:44:20.000Z</time>
      </trkpt>
      <trkpt lat="42.84331" lon="-0.16859">
        <ele>1623</ele>
        <time>2024-12-05T08:44:29.000Z</time>
      </trkpt>
      <trkpt lat="42.84304" lon="-0.16869">
        <ele>1626</ele>
        <time>2024-12-05T08:44:38.000Z</time>
      </trkpt>
      <trkpt lat="42.84277" lon="-0.16879">
        <ele>1628</ele>
        <time>2024-12-05T08:44:46.000Z</time>
      </trkpt>
      <trkpt lat="42.8426" lon="-0.16896">
        <ele>1629</ele>
        <time>2024-12-05T08:44:55.000Z</time>
      </trkpt>
      <trkpt lat="42.84235" lon="-0.16897">
        <ele>1627</ele>
        <time>2024-12-05T08:45:04.000Z</time>
      </trkpt>
      <trkpt lat="42.84209" lon="-0.16898">
        <ele>1624</ele>
        <time>2024-12-05T08:45:13.000Z</time>
      </trkpt>
      <trkpt lat="42.842" lon="-0.16898">
        <ele>1624</ele>
        <time>2024-12-05T08:45:22.000Z</time>
      </trkpt>
      <trkpt lat="42.84183" lon="-0.16896">
        <ele>1623</ele>
        <time>2024-12-05T08:45:31.000Z</time>
      </trkpt>
      <trkpt lat="42.84166" lon="-0.16894">
        <ele>1623</ele>
        <time>2024-12-05T08:45:40.000Z</time>
      </trkpt>
      <trkpt lat="42.84136" lon="-0.16883">
        <ele>1624</ele>
        <time>2024-12-05T08:45:49.000Z</time>
      </trkpt>
      <trkpt lat="42.84112" lon="-0.1689">
        <ele>1625</ele>
        <time>2024-12-05T08:45:59.000Z</time>
      </trkpt>
      <trkpt lat="42.84089" lon="-0.16898">
        <ele>1624</ele>
        <time>2024-12-05T08:46:08.000Z</time>
      </trkpt>
      <trkpt lat="42.8408" lon="-0.16904">
        <ele>1625</ele>
        <time>2024-12-05T08:46:17.000Z</time>
      </trkpt>
      <trkpt lat="42.84069" lon="-0.16925">
        <ele>1627</ele>
        <time>2024-12-05T08:46:26.000Z</time>
      </trkpt>
      <trkpt lat="42.84059" lon="-0.16945">
        <ele>1628</ele>
        <time>2024-12-05T08:46:35.000Z</time>
      </trkpt>
      <trkpt lat="42.84039" lon="-0.16969">
        <ele>1630</ele>
        <time>2024-12-05T08:46:44.000Z</time>
      </trkpt>
      <trkpt lat="42.8402" lon="-0.16992">
        <ele>1634</ele>
        <time>2024-12-05T08:46:54.000Z</time>
      </trkpt>
      <trkpt lat="42.84007" lon="-0.16999">
        <ele>1633</ele>
        <time>2024-12-05T08:47:03.000Z</time>
      </trkpt>
      <trkpt lat="42.83993" lon="-0.17018">
        <ele>1636</ele>
        <time>2024-12-05T08:47:12.000Z</time>
      </trkpt>
      <trkpt lat="42.83979" lon="-0.17037">
        <ele>1639</ele>
        <time>2024-12-05T08:47:22.000Z</time>
      </trkpt>
      <trkpt lat="42.83975" lon="-0.17044">
        <ele>1640</ele>
        <time>2024-12-05T08:47:31.000Z</time>
      </trkpt>
      <trkpt lat="42.83979" lon="-0.17063">
        <ele>1647</ele>
        <time>2024-12-05T08:47:40.000Z</time>
      </trkpt>
      <trkpt lat="42.83984" lon="-0.1707">
        <ele>1648</ele>
        <time>2024-12-05T08:47:50.000Z</time>
      </trkpt>
      <trkpt lat="42.84002" lon="-0.17071">
        <ele>1651</ele>
        <time>2024-12-05T08:47:59.000Z</time>
      </trkpt>
      <trkpt lat="42.8402" lon="-0.17072">
        <ele>1653</ele>
        <time>2024-12-05T08:48:09.000Z</time>
      </trkpt>
      <trkpt lat="42.84031" lon="-0.17083">
        <ele>1656</ele>
        <time>2024-12-05T08:48:18.000Z</time>
      </trkpt>
      <trkpt lat="42.8405" lon="-0.17091">
        <ele>1659</ele>
        <time>2024-12-05T08:48:28.000Z</time>
      </trkpt>
      <trkpt lat="42.84061" lon="-0.171">
        <ele>1662</ele>
        <time>2024-12-05T08:48:37.000Z</time>
      </trkpt>
      <trkpt lat="42.84063" lon="-0.17108">
        <ele>1665</ele>
        <time>2024-12-05T08:48:47.000Z</time>
      </trkpt>
      <trkpt lat="42.84084" lon="-0.17115">
        <ele>1667</ele>
        <time>2024-12-05T08:48:56.000Z</time>
      </trkpt>
      <trkpt lat="42.84087" lon="-0.17121">
        <ele>1670</ele>
        <time>2024-12-05T08:49:06.000Z</time>
      </trkpt>
      <trkpt lat="42.84082" lon="-0.17138">
        <ele>1675</ele>
        <time>2024-12-05T08:49:15.000Z</time>
      </trkpt>
      <trkpt lat="42.84071" lon="-0.17149">
        <ele>1677</ele>
        <time>2024-12-05T08:49:25.000Z</time>
      </trkpt>
      <trkpt lat="42.84063" lon="-0.17151">
        <ele>1676</ele>
        <time>2024-12-05T08:49:34.000Z</time>
      </trkpt>
      <trkpt lat="42.84059" lon="-0.17155">
        <ele>1676</ele>
        <time>2024-12-05T08:49:44.000Z</time>
      </trkpt>
      <trkpt lat="42.84074" lon="-0.17177">
        <ele>1688</ele>
        <time>2024-12-05T08:49:54.000Z</time>
      </trkpt>
      <trkpt lat="42.84067" lon="-0.17185">
        <ele>1689</ele>
        <time>2024-12-05T08:50:03.000Z</time>
      </trkpt>
      <trkpt lat="42.84052" lon="-0.17218">
        <ele>1698</ele>
        <time>2024-12-05T08:50:13.000Z</time>
      </trkpt>
      <trkpt lat="42.84026" lon="-0.17239">
        <ele>1704</ele>
        <time>2024-12-05T08:50:23.000Z</time>
      </trkpt>
      <trkpt lat="42.84024" lon="-0.17256">
        <ele>1713</ele>
        <time>2024-12-05T08:50:32.000Z</time>
      </trkpt>
      <trkpt lat="42.84035" lon="-0.17258">
        <ele>1718</ele>
        <time>2024-12-05T08:50:42.000Z</time>
      </trkpt>
      <trkpt lat="42.84035" lon="-0.17263">
        <ele>1720</ele>
        <time>2024-12-05T08:50:52.000Z</time>
      </trkpt>
      <trkpt lat="42.8402" lon="-0.17281">
        <ele>1721</ele>
        <time>2024-12-05T08:51:02.000Z</time>
      </trkpt>
      <trkpt lat="42.84005" lon="-0.17299">
        <ele>1724</ele>
        <time>2024-12-05T08:51:11.000Z</time>
      </trkpt>
      <trkpt lat="42.84003" lon="-0.17319">
        <ele>1732</ele>
        <time>2024-12-05T08:51:21.000Z</time>
      </trkpt>
      <trkpt lat="42.84031" lon="-0.17308">
        <ele>1740</ele>
        <time>2024-12-05T08:51:31.000Z</time>
      </trkpt>
      <trkpt lat="42.84059" lon="-0.17297">
        <ele>1751</ele>
        <time>2024-12-05T08:51:41.000Z</time>
      </trkpt>
      <trkpt lat="42.8404" lon="-0.17316">
        <ele>1753</ele>
        <time>2024-12-05T08:51:51.000Z</time>
      </trkpt>
      <trkpt lat="42.84021" lon="-0.17336">
        <ele>1751</ele>
        <time>2024-12-05T08:52:01.000Z</time>
      </trkpt>
      <trkpt lat="42.84003" lon="-0.17355">
        <ele>1749</ele>
        <time>2024-12-05T08:52:11.000Z</time>
      </trkpt>
      <trkpt lat="42.84026" lon="-0.17342">
        <ele>1756</ele>
        <time>2024-12-05T08:52:21.000Z</time>
      </trkpt>
      <trkpt lat="42.84033" lon="-0.17344">
        <ele>1760</ele>
        <time>2024-12-05T08:52:31.000Z</time>
      </trkpt>
      <trkpt lat="42.84037" lon="-0.17357">
        <ele>1768</ele>
        <time>2024-12-05T08:52:41.000Z</time>
      </trkpt>
      <trkpt lat="42.84048" lon="-0.1737">
        <ele>1780</ele>
        <time>2024-12-05T08:52:51.000Z</time>
      </trkpt>
      <trkpt lat="42.84056" lon="-0.17364">
        <ele>1783</ele>
        <time>2024-12-05T08:53:01.000Z</time>
      </trkpt>
      <trkpt lat="42.84061" lon="-0.17349">
        <ele>1779</ele>
        <time>2024-12-05T08:53:11.000Z</time>
      </trkpt>
      <trkpt lat="42.84084" lon="-0.17336">
        <ele>1781</ele>
        <time>2024-12-05T08:53:21.000Z</time>
      </trkpt>
      <trkpt lat="42.84074" lon="-0.17355">
        <ele>1787</ele>
        <time>2024-12-05T08:53:32.000Z</time>
      </trkpt>
      <trkpt lat="42.84098" lon="-0.1735">
        <ele>1794</ele>
        <time>2024-12-05T08:53:42.000Z</time>
      </trkpt>
      <trkpt lat="42.84123" lon="-0.17344">
        <ele>1799</ele>
        <time>2024-12-05T08:53:52.000Z</time>
      </trkpt>
      <trkpt lat="42.84144" lon="-0.17345">
        <ele>1803</ele>
        <time>2024-12-05T08:54:02.000Z</time>
      </trkpt>
      <trkpt lat="42.84166" lon="-0.17346">
        <ele>1810</ele>
        <time>2024-12-05T08:54:13.000Z</time>
      </trkpt>
      <trkpt lat="42.84192" lon="-0.17327">
        <ele>1811</ele>
        <time>2024-12-05T08:54:23.000Z</time>
      </trkpt>
      <trkpt lat="42.84211" lon="-0.17319">
        <ele>1816</ele>
        <time>2024-12-05T08:54:33.000Z</time>
      </trkpt>
      <trkpt lat="42.8423" lon="-0.1731">
        <ele>1814</ele>
        <time>2024-12-05T08:54:44.000Z</time>
      </trkpt>
      <trkpt lat="42.8423" lon="-0.17327">
        <ele>1820</ele>
        <time>2024-12-05T08:54:54.000Z</time>
      </trkpt>
      <trkpt lat="42.8426" lon="-0.17331">
        <ele>1822</ele>
        <time>2024-12-05T08:55:04.000Z</time>
      </trkpt>
      <trkpt lat="42.84274" lon="-0.17343">
        <ele>1824</ele>
        <time>2024-12-05T08:55:15.000Z</time>
      </trkpt>
      <trkpt lat="42.84288" lon="-0.17355">
        <ele>1828</ele>
        <time>2024-12-05T08:55:25.000Z</time>
      </trkpt>
      <trkpt lat="42.84295" lon="-0.17357">
        <ele>1830</ele>
        <time>2024-12-05T08:55:36.000Z</time>
      </trkpt>
      <trkpt lat="42.84317" lon="-0.17354">
        <ele>1832</ele>
        <time>2024-12-05T08:55:46.000Z</time>
      </trkpt>
      <trkpt lat="42.8434" lon="-0.17351">
        <ele>1838</ele>
        <time>2024-12-05T08:55:57.000Z</time>
      </trkpt>
      <trkpt lat="42.84357" lon="-0.17341">
        <ele>1842</ele>
        <time>2024-12-05T08:56:07.000Z</time>
      </trkpt>
      <trkpt lat="42.84374" lon="-0.17331">
        <ele>1845</ele>
        <time>2024-12-05T08:56:18.000Z</time>
      </trkpt>
      <trkpt lat="42.84397" lon="-0.17328">
        <ele>1852</ele>
        <time>2024-12-05T08:56:29.000Z</time>
      </trkpt>
      <trkpt lat="42.84419" lon="-0.17325">
        <ele>1857</ele>
        <time>2024-12-05T08:56:39.000Z</time>
      </trkpt>
      <trkpt lat="42.84445" lon="-0.17306">
        <ele>1858</ele>
        <time>2024-12-05T08:56:50.000Z</time>
      </trkpt>
      <trkpt lat="42.84453" lon="-0.1731">
        <ele>1863</ele>
        <time>2024-12-05T08:57:01.000Z</time>
      </trkpt>
      <trkpt lat="42.84451" lon="-0.17314">
        <ele>1864</ele>
        <time>2024-12-05T08:57:11.000Z</time>
      </trkpt>
      <trkpt lat="42.84458" lon="-0.17314">
        <ele>1867</ele>
        <time>2024-12-05T08:57:22.000Z</time>
      </trkpt>
      <trkpt lat="42.84451" lon="-0.17323">
        <ele>1869</ele>
        <time>2024-12-05T08:57:33.000Z</time>
      </trkpt>
      <trkpt lat="42.8446" lon="-0.17331">
        <ele>1876</ele>
        <time>2024-12-05T08:57:44.000Z</time>
      </trkpt>
      <trkpt lat="42.84447" lon="-0.17353">
        <ele>1881</ele>
        <time>2024-12-05T08:57:54.000Z</time>
      </trkpt>
      <trkpt lat="42.84436" lon="-0.17387">
        <ele>1890</ele>
        <time>2024-12-05T08:58:05.000Z</time>
      </trkpt>
      <trkpt lat="42.84441" lon="-0.17391">
        <ele>1893</ele>
        <time>2024-12-05T08:58:16.000Z</time>
      </trkpt>
      <trkpt lat="42.8446" lon="-0.17376">
        <ele>1896</ele>
        <time>2024-12-05T08:58:27.000Z</time>
      </trkpt>
      <trkpt lat="42.84449" lon="-0.174">
        <ele>1901</ele>
        <time>2024-12-05T08:58:38.000Z</time>
      </trkpt>
      <trkpt lat="42.84438" lon="-0.17424">
        <ele>1911</ele>
        <time>2024-12-05T08:58:49.000Z</time>
      </trkpt>
      <trkpt lat="42.84419" lon="-0.17422">
        <ele>1908</ele>
        <time>2024-12-05T08:59:00.000Z</time>
      </trkpt>
      <trkpt lat="42.84408" lon="-0.17432">
        <ele>1912</ele>
        <time>2024-12-05T08:59:11.000Z</time>
      </trkpt>
      <trkpt lat="42.84406" lon="-0.17445">
        <ele>1914</ele>
        <time>2024-12-05T08:59:21.000Z</time>
      </trkpt>
      <trkpt lat="42.84398" lon="-0.17454">
        <ele>1914</ele>
        <time>2024-12-05T08:59:32.000Z</time>
      </trkpt>
      <trkpt lat="42.84393" lon="-0.17475">
        <ele>1919</ele>
        <time>2024-12-05T08:59:43.000Z</time>
      </trkpt>
      <trkpt lat="42.84389" lon="-0.17497">
        <ele>1924</ele>
        <time>2024-12-05T08:59:54.000Z</time>
      </trkpt>
      <trkpt lat="42.84411" lon="-0.17486">
        <ele>1930</ele>
        <time>2024-12-05T09:00:05.000Z</time>
      </trkpt>
      <trkpt lat="42.84403" lon="-0.17514">
        <ele>1936</ele>
        <time>2024-12-05T09:00:17.000Z</time>
      </trkpt>
      <trkpt lat="42.84396" lon="-0.17542">
        <ele>1939</ele>
        <time>2024-12-05T09:00:28.000Z</time>
      </trkpt>
      <trkpt lat="42.84391" lon="-0.17571">
        <ele>1942</ele>
        <time>2024-12-05T09:00:39.000Z</time>
      </trkpt>
      <trkpt lat="42.84387" lon="-0.176">
        <ele>1946</ele>
        <time>2024-12-05T09:00:50.000Z</time>
      </trkpt>
      <trkpt lat="42.84376" lon="-0.17639">
        <ele>1952</ele>
        <time>2024-12-05T09:01:01.000Z</time>
      </trkpt>
      <trkpt lat="42.84365" lon="-0.17679">
        <ele>1958</ele>
        <time>2024-12-05T09:01:12.000Z</time>
      </trkpt>
      <trkpt lat="42.84357" lon="-0.17694">
        <ele>1960</ele>
        <time>2024-12-05T09:01:24.000Z</time>
      </trkpt>
      <trkpt lat="42.8434" lon="-0.17707">
        <ele>1962</ele>
        <time>2024-12-05T09:01:35.000Z</time>
      </trkpt>
      <trkpt lat="42.84331" lon="-0.17748">
        <ele>1966</ele>
        <time>2024-12-05T09:01:46.000Z</time>
      </trkpt>
      <trkpt lat="42.84332" lon="-0.17787">
        <ele>1970</ele>
        <time>2024-12-05T09:01:58.000Z</time>
      </trkpt>
      <trkpt lat="42.84333" lon="-0.17827">
        <ele>1977</ele>
        <time>2024-12-05T09:02:09.000Z</time>
      </trkpt>
      <trkpt lat="42.84325" lon="-0.17849">
        <ele>1978</ele>
        <time>2024-12-05T09:02:20.000Z</time>
      </trkpt>
      <trkpt lat="42.84325" lon="-0.17849">
        <ele>1978</ele>
        <time>2024-12-05T09:02:32.000Z</time>
      </trkpt>
      <trkpt lat="42.84318" lon="-0.17876">
        <ele>1980</ele>
        <time>2024-12-05T09:02:43.000Z</time>
      </trkpt>
      <trkpt lat="42.84318" lon="-0.179">
        <ele>1983</ele>
        <time>2024-12-05T09:02:55.000Z</time>
      </trkpt>
      <trkpt lat="42.84318" lon="-0.17924">
        <ele>1988</ele>
        <time>2024-12-05T09:03:06.000Z</time>
      </trkpt>
      <trkpt lat="42.84306" lon="-0.17948">
        <ele>1987</ele>
        <time>2024-12-05T09:03:18.000Z</time>
      </trkpt>
      <trkpt lat="42.84295" lon="-0.17973">
        <ele>1991</ele>
        <time>2024-12-05T09:03:29.000Z</time>
      </trkpt>
      <trkpt lat="42.84279" lon="-0.17984">
        <ele>1994</ele>
        <time>2024-12-05T09:03:41.000Z</time>
      </trkpt>
      <trkpt lat="42.84262" lon="-0.17994">
        <ele>1997</ele>
        <time>2024-12-05T09:03:53.000Z</time>
      </trkpt>
      <trkpt lat="42.84258" lon="-0.18003">
        <ele>2000</ele>
        <time>2024-12-05T09:04:04.000Z</time>
      </trkpt>
      <trkpt lat="42.84271" lon="-0.18014">
        <ele>2003</ele>
        <time>2024-12-05T09:04:16.000Z</time>
      </trkpt>
      <trkpt lat="42.84265" lon="-0.1802">
        <ele>2006</ele>
        <time>2024-12-05T09:04:28.000Z</time>
      </trkpt>
      <trkpt lat="42.8426" lon="-0.18037">
        <ele>2009</ele>
        <time>2024-12-05T09:04:39.000Z</time>
      </trkpt>
      <trkpt lat="42.84241" lon="-0.18042">
        <ele>2012</ele>
        <time>2024-12-05T09:04:51.000Z</time>
      </trkpt>
      <trkpt lat="42.84222" lon="-0.1804">
        <ele>2021</ele>
        <time>2024-12-05T09:05:03.000Z</time>
      </trkpt>
      <trkpt lat="42.84205" lon="-0.18017">
        <ele>2025</ele>
        <time>2024-12-05T09:05:14.000Z</time>
      </trkpt>
      <trkpt lat="42.84187" lon="-0.17994">
        <ele>2032</ele>
        <time>2024-12-05T09:05:26.000Z</time>
      </trkpt>
      <trkpt lat="42.84181" lon="-0.17973">
        <ele>2038</ele>
        <time>2024-12-05T09:05:38.000Z</time>
      </trkpt>
      <trkpt lat="42.84179" lon="-0.17979">
        <ele>2038</ele>
        <time>2024-12-05T09:05:50.000Z</time>
      </trkpt>
      <trkpt lat="42.84183" lon="-0.17992">
        <ele>2035</ele>
        <time>2024-12-05T09:06:02.000Z</time>
      </trkpt>
      <trkpt lat="42.84172" lon="-0.17982">
        <ele>2045</ele>
        <time>2024-12-05T09:06:14.000Z</time>
      </trkpt>
      <trkpt lat="42.8417" lon="-0.17969">
        <ele>2045</ele>
        <time>2024-12-05T09:06:25.000Z</time>
      </trkpt>
      <trkpt lat="42.84174" lon="-0.1796">
        <ele>2043</ele>
        <time>2024-12-05T09:06:37.000Z</time>
      </trkpt>
      <trkpt lat="42.84177" lon="-0.17952">
        <ele>2043</ele>
        <time>2024-12-05T09:06:49.000Z</time>
      </trkpt>
      <trkpt lat="42.84172" lon="-0.17947">
        <ele>2045</ele>
        <time>2024-12-05T09:07:01.000Z</time>
      </trkpt>
      <trkpt lat="42.84166" lon="-0.1796">
        <ele>2047</ele>
        <time>2024-12-05T09:07:13.000Z</time>
      </trkpt>
      <trkpt lat="42.84162" lon="-0.17949">
        <ele>2049</ele>
        <time>2024-12-05T09:07:25.000Z</time>
      </trkpt>
      <trkpt lat="42.84149" lon="-0.1796">
        <ele>2056</ele>
        <time>2024-12-05T09:07:37.000Z</time>
      </trkpt>
      <trkpt lat="42.84147" lon="-0.17956">
        <ele>2057</ele>
        <time>2024-12-05T09:07:49.000Z</time>
      </trkpt>
      <trkpt lat="42.84147" lon="-0.17967">
        <ele>2057</ele>
        <time>2024-12-05T09:08:01.000Z</time>
      </trkpt>
      <trkpt lat="42.84136" lon="-0.1799">
        <ele>2063</ele>
        <time>2024-12-05T09:08:13.000Z</time>
      </trkpt>
      <trkpt lat="42.84121" lon="-0.18005">
        <ele>2063</ele>
        <time>2024-12-05T09:08:25.000Z</time>
      </trkpt>
      <trkpt lat="42.84119" lon="-0.1802">
        <ele>2063</ele>
        <time>2024-12-05T09:08:37.000Z</time>
      </trkpt>
      <trkpt lat="42.84125" lon="-0.1804">
        <ele>2064</ele>
        <time>2024-12-05T09:08:49.000Z</time>
      </trkpt>
      <trkpt lat="42.84121" lon="-0.18046">
        <ele>2064</ele>
        <time>2024-12-05T09:09:01.000Z</time>
      </trkpt>
      <trkpt lat="42.84114" lon="-0.18048">
        <ele>2063</ele>
        <time>2024-12-05T09:09:13.000Z</time>
      </trkpt>
      <trkpt lat="42.84104" lon="-0.18061">
        <ele>2066</ele>
        <time>2024-12-05T09:09:25.000Z</time>
      </trkpt>
      <trkpt lat="42.84095" lon="-0.18082">
        <ele>2064</ele>
        <time>2024-12-05T09:09:37.000Z</time>
      </trkpt>
      <trkpt lat="42.84097" lon="-0.18095">
        <ele>2070</ele>
        <time>2024-12-05T09:09:49.000Z</time>
      </trkpt>
      <trkpt lat="42.84095" lon="-0.18136">
        <ele>2073</ele>
        <time>2024-12-05T09:10:01.000Z</time>
      </trkpt>
      <trkpt lat="42.84098" lon="-0.18175">
        <ele>2075</ele>
        <time>2024-12-05T09:10:13.000Z</time>
      </trkpt>
      <trkpt lat="42.84102" lon="-0.18214">
        <ele>2077</ele>
        <time>2024-12-05T09:10:26.000Z</time>
      </trkpt>
      <trkpt lat="42.84104" lon="-0.18237">
        <ele>2076</ele>
        <time>2024-12-05T09:10:38.000Z</time>
      </trkpt>
      <trkpt lat="42.84106" lon="-0.18261">
        <ele>2075</ele>
        <time>2024-12-05T09:10:50.000Z</time>
      </trkpt>
      <trkpt lat="42.84104" lon="-0.18276">
        <ele>2077</ele>
        <time>2024-12-05T09:11:03.000Z</time>
      </trkpt>
      <trkpt lat="42.84095" lon="-0.18295">
        <ele>2077</ele>
        <time>2024-12-05T09:11:15.000Z</time>
      </trkpt>
      <trkpt lat="42.84099" lon="-0.18312">
        <ele>2077</ele>
        <time>2024-12-05T09:11:27.000Z</time>
      </trkpt>
      <trkpt lat="42.84117" lon="-0.18331">
        <ele>2078</ele>
        <time>2024-12-05T09:11:40.000Z</time>
      </trkpt>
      <trkpt lat="42.84134" lon="-0.18361">
        <ele>2079</ele>
        <time>2024-12-05T09:11:52.000Z</time>
      </trkpt>
      <trkpt lat="42.8414" lon="-0.18364">
        <ele>2082</ele>
        <time>2024-12-05T09:12:04.000Z</time>
      </trkpt>
      <trkpt lat="42.84147" lon="-0.18374">
        <ele>2083</ele>
        <time>2024-12-05T09:12:17.000Z</time>
      </trkpt>
      <trkpt lat="42.84164" lon="-0.18402">
        <ele>2087</ele>
        <time>2024-12-05T09:12:29.000Z</time>
      </trkpt>
      <trkpt lat="42.84177" lon="-0.18434">
        <ele>2087</ele>
        <time>2024-12-05T09:12:42.000Z</time>
      </trkpt>
      <trkpt lat="42.8419" lon="-0.18456">
        <ele>2092</ele>
        <time>2024-12-05T09:12:54.000Z</time>
      </trkpt>
      <trkpt lat="42.84197" lon="-0.18481">
        <ele>2092</ele>
        <time>2024-12-05T09:13:07.000Z</time>
      </trkpt>
      <trkpt lat="42.84205" lon="-0.18505">
        <ele>2099</ele>
        <time>2024-12-05T09:13:19.000Z</time>
      </trkpt>
      <trkpt lat="42.84207" lon="-0.18529">
        <ele>2099</ele>
        <time>2024-12-05T09:13:32.000Z</time>
      </trkpt>
      <trkpt lat="42.84207" lon="-0.18529">
        <ele>2099</ele>
        <time>2024-12-05T09:13:44.000Z</time>
      </trkpt>
      <trkpt lat="42.8422" lon="-0.18559">
        <ele>2101</ele>
        <time>2024-12-05T09:13:57.000Z</time>
      </trkpt>
      <trkpt lat="42.84225" lon="-0.18592">
        <ele>2106</ele>
        <time>2024-12-05T09:14:10.000Z</time>
      </trkpt>
      <trkpt lat="42.84231" lon="-0.18626">
        <ele>2117</ele>
        <time>2024-12-05T09:14:22.000Z</time>
      </trkpt>
      <trkpt lat="42.84237" lon="-0.1866">
        <ele>2123</ele>
        <time>2024-12-05T09:14:35.000Z</time>
      </trkpt>
      <trkpt lat="42.84247" lon="-0.18677">
        <ele>2129</ele>
        <time>2024-12-05T09:14:48.000Z</time>
      </trkpt>
      <trkpt lat="42.84258" lon="-0.18694">
        <ele>2136</ele>
        <time>2024-12-05T09:15:01.000Z</time>
      </trkpt>
      <trkpt lat="42.84256" lon="-0.18726">
        <ele>2139</ele>
        <time>2024-12-05T09:15:14.000Z</time>
      </trkpt>
      <trkpt lat="42.84262" lon="-0.18735">
        <ele>2141</ele>
        <time>2024-12-05T09:15:26.000Z</time>
      </trkpt>
      <trkpt lat="42.84262" lon="-0.18735">
        <ele>2141</ele>
        <time>2024-12-05T09:15:39.000Z</time>
      </trkpt>
      <trkpt lat="42.84271" lon="-0.18758">
        <ele>2140</ele>
        <time>2024-12-05T09:15:52.000Z</time>
      </trkpt>
      <trkpt lat="42.84286" lon="-0.18782">
        <ele>2138</ele>
        <time>2024-12-05T09:16:05.000Z</time>
      </trkpt>
      <trkpt lat="42.84301" lon="-0.18806">
        <ele>2144</ele>
        <time>2024-12-05T09:16:18.000Z</time>
      </trkpt>
      <trkpt lat="42.84316" lon="-0.18829">
        <ele>2151</ele>
        <time>2024-12-05T09:16:31.000Z</time>
      </trkpt>
      <trkpt lat="42.8432" lon="-0.18864">
        <ele>2155</ele>
        <time>2024-12-05T09:16:44.000Z</time>
      </trkpt>
      <trkpt lat="42.84325" lon="-0.18898">
        <ele>2159</ele>
        <time>2024-12-05T09:16:57.000Z</time>
      </trkpt>
      <trkpt lat="42.84329" lon="-0.18932">
        <ele>2164</ele>
        <time>2024-12-05T09:17:10.000Z</time>
      </trkpt>
      <trkpt lat="42.84338" lon="-0.18951">
        <ele>2168</ele>
        <time>2024-12-05T09:17:23.000Z</time>
      </trkpt>
      <trkpt lat="42.84344" lon="-0.18982">
        <ele>2170</ele>
        <time>2024-12-05T09:17:36.000Z</time>
      </trkpt>
      <trkpt lat="42.84344" lon="-0.18982">
        <ele>2170</ele>
        <time>2024-12-05T09:17:49.000Z</time>
      </trkpt>
      <trkpt lat="42.8435" lon="-0.19005">
        <ele>2175</ele>
        <time>2024-12-05T09:18:02.000Z</time>
      </trkpt>
      <trkpt lat="42.84348" lon="-0.19044">
        <ele>2180</ele>
        <time>2024-12-05T09:18:15.000Z</time>
      </trkpt>
      <trkpt lat="42.84346" lon="-0.19083">
        <ele>2184</ele>
        <time>2024-12-05T09:18:28.000Z</time>
      </trkpt>
      <trkpt lat="42.84344" lon="-0.19121">
        <ele>2193</ele>
        <time>2024-12-05T09:18:42.000Z</time>
      </trkpt>
      <trkpt lat="42.84359" lon="-0.19105">
        <ele>2194</ele>
        <time>2024-12-05T09:18:55.000Z</time>
      </trkpt>
      <trkpt lat="42.84374" lon="-0.19089">
        <ele>2200</ele>
        <time>2024-12-05T09:19:08.000Z</time>
      </trkpt>
      <trkpt lat="42.84389" lon="-0.19078">
        <ele>2205</ele>
        <time>2024-12-05T09:19:22.000Z</time>
      </trkpt>
      <trkpt lat="42.84404" lon="-0.19074">
        <ele>2212</ele>
        <time>2024-12-05T09:19:35.000Z</time>
      </trkpt>
      <trkpt lat="42.84398" lon="-0.19096">
        <ele>2217</ele>
        <time>2024-12-05T09:19:48.000Z</time>
      </trkpt>
      <trkpt lat="42.84391" lon="-0.19119">
        <ele>2217</ele>
        <time>2024-12-05T09:20:02.000Z</time>
      </trkpt>
      <trkpt lat="42.84386" lon="-0.19152">
        <ele>2224</ele>
        <time>2024-12-05T09:20:15.000Z</time>
      </trkpt>
      <trkpt lat="42.8438" lon="-0.19184">
        <ele>2229</ele>
        <time>2024-12-05T09:20:28.000Z</time>
      </trkpt>
      <trkpt lat="42.84375" lon="-0.19217">
        <ele>2237</ele>
        <time>2024-12-05T09:20:42.000Z</time>
      </trkpt>
      <trkpt lat="42.8437" lon="-0.1925">
        <ele>2243</ele>
        <time>2024-12-05T09:20:55.000Z</time>
      </trkpt>
      <trkpt lat="42.84363" lon="-0.19256">
        <ele>2243</ele>
        <time>2024-12-05T09:21:09.000Z</time>
      </trkpt>
      <trkpt lat="42.8435" lon="-0.1926">
        <ele>2242</ele>
        <time>2024-12-05T09:21:22.000Z</time>
      </trkpt>
      <trkpt lat="42.84335" lon="-0.19282">
        <ele>2241</ele>
        <time>2024-12-05T09:21:36.000Z</time>
      </trkpt>
      <trkpt lat="42.84333" lon="-0.19293">
        <ele>2242</ele>
        <time>2024-12-05T09:21:50.000Z</time>
      </trkpt>
      <trkpt lat="42.84338" lon="-0.19303">
        <ele>2246</ele>
        <time>2024-12-05T09:22:03.000Z</time>
      </trkpt>
      <trkpt lat="42.84331" lon="-0.19325">
        <ele>2247</ele>
        <time>2024-12-05T09:22:17.000Z</time>
      </trkpt>
      <trkpt lat="42.84325" lon="-0.19346">
        <ele>2250</ele>
        <time>2024-12-05T09:22:30.000Z</time>
      </trkpt>
      <trkpt lat="42.84325" lon="-0.19368">
        <ele>2254</ele>
        <time>2024-12-05T09:22:44.000Z</time>
      </trkpt>
      <trkpt lat="42.84329" lon="-0.19387">
        <ele>2262</ele>
        <time>2024-12-05T09:22:58.000Z</time>
      </trkpt>
      <trkpt lat="42.84323" lon="-0.19415">
        <ele>2265</ele>
        <time>2024-12-05T09:23:11.000Z</time>
      </trkpt>
      <trkpt lat="42.84329" lon="-0.19409">
        <ele>2269</ele>
        <time>2024-12-05T09:23:25.000Z</time>
      </trkpt>
      <trkpt lat="42.84331" lon="-0.19439">
        <ele>2274</ele>
        <time>2024-12-05T09:23:39.000Z</time>
      </trkpt>
      <trkpt lat="42.84333" lon="-0.19469">
        <ele>2280</ele>
        <time>2024-12-05T09:23:53.000Z</time>
      </trkpt>
      <trkpt lat="42.84341" lon="-0.19497">
        <ele>2283</ele>
        <time>2024-12-05T09:24:06.000Z</time>
      </trkpt>
      <trkpt lat="42.84348" lon="-0.19524">
        <ele>2285</ele>
        <time>2024-12-05T09:24:20.000Z</time>
      </trkpt>
      <trkpt lat="42.84348" lon="-0.19561">
        <ele>2290</ele>
        <time>2024-12-05T09:24:34.000Z</time>
      </trkpt>
      <trkpt lat="42.84348" lon="-0.19597">
        <ele>2295</ele>
        <time>2024-12-05T09:24:48.000Z</time>
      </trkpt>
      <trkpt lat="42.84342" lon="-0.19636">
        <ele>2303</ele>
        <time>2024-12-05T09:25:02.000Z</time>
      </trkpt>
      <trkpt lat="42.84342" lon="-0.19662">
        <ele>2304</ele>
        <time>2024-12-05T09:25:16.000Z</time>
      </trkpt>
      <trkpt lat="42.84346" lon="-0.19672">
        <ele>2305</ele>
        <time>2024-12-05T09:25:30.000Z</time>
      </trkpt>
      <trkpt lat="42.84346" lon="-0.19672">
        <ele>2305</ele>
        <time>2024-12-05T09:25:44.000Z</time>
      </trkpt>
      <trkpt lat="42.84354" lon="-0.19693">
        <ele>2307</ele>
        <time>2024-12-05T09:25:58.000Z</time>
      </trkpt>
      <trkpt lat="42.84361" lon="-0.19713">
        <ele>2311</ele>
        <time>2024-12-05T09:26:12.000Z</time>
      </trkpt>
      <trkpt lat="42.84367" lon="-0.19747">
        <ele>2312</ele>
        <time>2024-12-05T09:26:26.000Z</time>
      </trkpt>
      <trkpt lat="42.84373" lon="-0.19781">
        <ele>2311</ele>
        <time>2024-12-05T09:26:40.000Z</time>
      </trkpt>
      <trkpt lat="42.84378" lon="-0.19814">
        <ele>2316</ele>
        <time>2024-12-05T09:26:54.000Z</time>
      </trkpt>
      <trkpt lat="42.84378" lon="-0.19848">
        <ele>2316</ele>
        <time>2024-12-05T09:27:08.000Z</time>
      </trkpt>
      <trkpt lat="42.84385" lon="-0.1987">
        <ele>2318</ele>
        <time>2024-12-05T09:27:22.000Z</time>
      </trkpt>
      <trkpt lat="42.84391" lon="-0.19891">
        <ele>2326</ele>
        <time>2024-12-05T09:27:37.000Z</time>
      </trkpt>
      <trkpt lat="42.84391" lon="-0.19925">
        <ele>2331</ele>
        <time>2024-12-05T09:27:51.000Z</time>
      </trkpt>
      <trkpt lat="42.84391" lon="-0.19958">
        <ele>2338</ele>
        <time>2024-12-05T09:28:05.000Z</time>
      </trkpt>
      <trkpt lat="42.844" lon="-0.19941">
        <ele>2342</ele>
        <time>2024-12-05T09:28:19.000Z</time>
      </trkpt>
      <trkpt lat="42.84402" lon="-0.19947">
        <ele>2346</ele>
        <time>2024-12-05T09:28:34.000Z</time>
      </trkpt>
      <trkpt lat="42.84398" lon="-0.19984">
        <ele>2352</ele>
        <time>2024-12-05T09:28:48.000Z</time>
      </trkpt>
      <trkpt lat="42.84393" lon="-0.2002">
        <ele>2358</ele>
        <time>2024-12-05T09:29:02.000Z</time>
      </trkpt>
      <trkpt lat="42.84408" lon="-0.20011">
        <ele>2363</ele>
        <time>2024-12-05T09:29:17.000Z</time>
      </trkpt>
      <trkpt lat="42.84426" lon="-0.1999">
        <ele>2366</ele>
        <time>2024-12-05T09:29:31.000Z</time>
      </trkpt>
      <trkpt lat="42.8442" lon="-0.20016">
        <ele>2368</ele>
        <time>2024-12-05T09:29:46.000Z</time>
      </trkpt>
      <trkpt lat="42.84415" lon="-0.20042">
        <ele>2375</ele>
        <time>2024-12-05T09:30:00.000Z</time>
      </trkpt>
      <trkpt lat="42.84405" lon="-0.20061">
        <ele>2379</ele>
        <time>2024-12-05T09:30:15.000Z</time>
      </trkpt>
      <trkpt lat="42.84396" lon="-0.2008">
        <ele>2386</ele>
        <time>2024-12-05T09:30:29.000Z</time>
      </trkpt>
      <trkpt lat="42.84383" lon="-0.20099">
        <ele>2389</ele>
        <time>2024-12-05T09:30:44.000Z</time>
      </trkpt>
      <trkpt lat="42.84365" lon="-0.20113">
        <ele>2397</ele>
        <time>2024-12-05T09:30:58.000Z</time>
      </trkpt>
      <trkpt lat="42.84348" lon="-0.20127">
        <ele>2406</ele>
        <time>2024-12-05T09:31:13.000Z</time>
      </trkpt>
      <trkpt lat="42.84348" lon="-0.20127">
        <ele>2406</ele>
        <time>2024-12-05T09:31:27.000Z</time>
      </trkpt>
      <trkpt lat="42.84345" lon="-0.20126">
        <ele>2406</ele>
        <time>2024-12-05T09:31:42.000Z</time>
      </trkpt>
      <trkpt lat="42.84331" lon="-0.20119">
        <ele>2406</ele>
        <time>2024-12-05T09:31:57.000Z</time>
      </trkpt>
      <trkpt lat="42.84314" lon="-0.20127">
        <ele>2412</ele>
        <time>2024-12-05T09:32:11.000Z</time>
      </trkpt>
      <trkpt lat="42.84301" lon="-0.2016">
        <ele>2422</ele>
        <time>2024-12-05T09:32:26.000Z</time>
      </trkpt>
      <trkpt lat="42.84282" lon="-0.20179">
        <ele>2427</ele>
        <time>2024-12-05T09:32:41.000Z</time>
      </trkpt>
      <trkpt lat="42.84282" lon="-0.20185">
        <ele>2424</ele>
        <time>2024-12-05T09:32:55.000Z</time>
      </trkpt>
      <trkpt lat="42.84275" lon="-0.2019">
        <ele>2423</ele>
        <time>2024-12-05T09:33:10.000Z</time>
      </trkpt>
      <trkpt lat="42.84258" lon="-0.2019">
        <ele>2428</ele>
        <time>2024-12-05T09:33:25.000Z</time>
      </trkpt>
      <trkpt lat="42.84239" lon="-0.20181">
        <ele>2428</ele>
        <time>2024-12-05T09:33:40.000Z</time>
      </trkpt>
      <trkpt lat="42.8422" lon="-0.20172">
        <ele>2424</ele>
        <time>2024-12-05T09:33:54.000Z</time>
      </trkpt>
      <trkpt lat="42.84194" lon="-0.20155">
        <ele>2426</ele>
        <time>2024-12-05T09:34:09.000Z</time>
      </trkpt>
      <trkpt lat="42.84174" lon="-0.20138">
        <ele>2426</ele>
        <time>2024-12-05T09:34:24.000Z</time>
      </trkpt>
      <trkpt lat="42.84159" lon="-0.20132">
        <ele>2425</ele>
        <time>2024-12-05T09:34:39.000Z</time>
      </trkpt>
      <trkpt lat="42.84146" lon="-0.20117">
        <ele>2426</ele>
        <time>2024-12-05T09:34:54.000Z</time>
      </trkpt>
      <trkpt lat="42.84132" lon="-0.20102">
        <ele>2424</ele>
        <time>2024-12-05T09:35:09.000Z</time>
      </trkpt>
      <trkpt lat="42.84127" lon="-0.20082">
        <ele>2423</ele>
        <time>2024-12-05T09:35:24.000Z</time>
      </trkpt>
      <trkpt lat="42.84119" lon="-0.20082">
        <ele>2419</ele>
        <time>2024-12-05T09:35:39.000Z</time>
      </trkpt>
      <trkpt lat="42.84095" lon="-0.20074">
        <ele>2414</ele>
        <time>2024-12-05T09:35:54.000Z</time>
      </trkpt>
      <trkpt lat="42.84082" lon="-0.20059">
        <ele>2414</ele>
        <time>2024-12-05T09:36:09.000Z</time>
      </trkpt>
      <trkpt lat="42.84061" lon="-0.20054">
        <ele>2410</ele>
        <time>2024-12-05T09:36:24.000Z</time>
      </trkpt>
      <trkpt lat="42.84045" lon="-0.20045">
        <ele>2408</ele>
        <time>2024-12-05T09:36:39.000Z</time>
      </trkpt>
      <trkpt lat="42.84029" lon="-0.20035">
        <ele>2410</ele>
        <time>2024-12-05T09:36:54.000Z</time>
      </trkpt>
      <trkpt lat="42.84003" lon="-0.20036">
        <ele>2405</ele>
        <time>2024-12-05T09:37:09.000Z</time>
      </trkpt>
      <trkpt lat="42.83977" lon="-0.20037">
        <ele>2400</ele>
        <time>2024-12-05T09:37:24.000Z</time>
      </trkpt>
      <trkpt lat="42.83966" lon="-0.20035">
        <ele>2398</ele>
        <time>2024-12-05T09:37:40.000Z</time>
      </trkpt>
      <trkpt lat="42.8396" lon="-0.20039">
        <ele>2398</ele>
        <time>2024-12-05T09:37:55.000Z</time>
      </trkpt>
      <trkpt lat="42.83951" lon="-0.20037">
        <ele>2396</ele>
        <time>2024-12-05T09:38:10.000Z</time>
      </trkpt>
      <trkpt lat="42.83933" lon="-0.20044">
        <ele>2393</ele>
        <time>2024-12-05T09:38:25.000Z</time>
      </trkpt>
      <trkpt lat="42.83915" lon="-0.2005">
        <ele>2391</ele>
        <time>2024-12-05T09:38:40.000Z</time>
      </trkpt>
      <trkpt lat="42.83897" lon="-0.20046">
        <ele>2390</ele>
        <time>2024-12-05T09:38:56.000Z</time>
      </trkpt>
      <trkpt lat="42.83878" lon="-0.20042">
        <ele>2389</ele>
        <time>2024-12-05T09:39:11.000Z</time>
      </trkpt>
      <trkpt lat="42.83857" lon="-0.20054">
        <ele>2388</ele>
        <time>2024-12-05T09:39:26.000Z</time>
      </trkpt>
      <trkpt lat="42.83835" lon="-0.20052">
        <ele>2388</ele>
        <time>2024-12-05T09:39:42.000Z</time>
      </trkpt>
      <trkpt lat="42.83831" lon="-0.20059">
        <ele>2388</ele>
        <time>2024-12-05T09:39:57.000Z</time>
      </trkpt>
      <trkpt lat="42.83816" lon="-0.20069">
        <ele>2384</ele>
        <time>2024-12-05T09:40:13.000Z</time>
      </trkpt>
      <trkpt lat="42.83812" lon="-0.20087">
        <ele>2381</ele>
        <time>2024-12-05T09:40:28.000Z</time>
      </trkpt>
      <trkpt lat="42.83808" lon="-0.20084">
        <ele>2381</ele>
        <time>2024-12-05T09:40:43.000Z</time>
      </trkpt>
      <trkpt lat="42.8379" lon="-0.20087">
        <ele>2379</ele>
        <time>2024-12-05T09:40:59.000Z</time>
      </trkpt>
      <trkpt lat="42.83784" lon="-0.20117">
        <ele>2373</ele>
        <time>2024-12-05T09:41:14.000Z</time>
      </trkpt>
      <trkpt lat="42.83778" lon="-0.20138">
        <ele>2368</ele>
        <time>2024-12-05T09:41:30.000Z</time>
      </trkpt>
      <trkpt lat="42.83778" lon="-0.2016">
        <ele>2366</ele>
        <time>2024-12-05T09:41:45.000Z</time>
      </trkpt>
      <trkpt lat="42.83769" lon="-0.20153">
        <ele>2364</ele>
        <time>2024-12-05T09:42:01.000Z</time>
      </trkpt>
      <trkpt lat="42.83771" lon="-0.20183">
        <ele>2361</ele>
        <time>2024-12-05T09:42:16.000Z</time>
      </trkpt>
      <trkpt lat="42.83767" lon="-0.2019">
        <ele>2360</ele>
        <time>2024-12-05T09:42:32.000Z</time>
      </trkpt>
      <trkpt lat="42.83756" lon="-0.20172">
        <ele>2356</ele>
        <time>2024-12-05T09:42:48.000Z</time>
      </trkpt>
      <trkpt lat="42.83745" lon="-0.20155">
        <ele>2352</ele>
        <time>2024-12-05T09:43:03.000Z</time>
      </trkpt>
      <trkpt lat="42.8373" lon="-0.20145">
        <ele>2350</ele>
        <time>2024-12-05T09:43:19.000Z</time>
      </trkpt>
      <trkpt lat="42.83715" lon="-0.20134">
        <ele>2347</ele>
        <time>2024-12-05T09:43:34.000Z</time>
      </trkpt>
      <trkpt lat="42.83709" lon="-0.20145">
        <ele>2340</ele>
        <time>2024-12-05T09:43:50.000Z</time>
      </trkpt>
      <trkpt lat="42.83683" lon="-0.20142">
        <ele>2335</ele>
        <time>2024-12-05T09:44:06.000Z</time>
      </trkpt>
      <trkpt lat="42.83657" lon="-0.2014">
        <ele>2334</ele>
        <time>2024-12-05T09:44:22.000Z</time>
      </trkpt>
      <trkpt lat="42.8364" lon="-0.20147">
        <ele>2332</ele>
        <time>2024-12-05T09:44:37.000Z</time>
      </trkpt>
      <trkpt lat="42.83614" lon="-0.20147">
        <ele>2337</ele>
        <time>2024-12-05T09:44:53.000Z</time>
      </trkpt>
      <trkpt lat="42.83596" lon="-0.20157">
        <ele>2334</ele>
        <time>2024-12-05T09:45:09.000Z</time>
      </trkpt>
      <trkpt lat="42.83578" lon="-0.20168">
        <ele>2334</ele>
        <time>2024-12-05T09:45:25.000Z</time>
      </trkpt>
      <trkpt lat="42.83562" lon="-0.20171">
        <ele>2332</ele>
        <time>2024-12-05T09:45:41.000Z</time>
      </trkpt>
      <trkpt lat="42.83546" lon="-0.20175">
        <ele>2330</ele>
        <time>2024-12-05T09:45:57.000Z</time>
      </trkpt>
      <trkpt lat="42.83537" lon="-0.20172">
        <ele>2331</ele>
        <time>2024-12-05T09:46:13.000Z</time>
      </trkpt>
      <trkpt lat="42.83531" lon="-0.20179">
        <ele>2327</ele>
        <time>2024-12-05T09:46:28.000Z</time>
      </trkpt>
      <trkpt lat="42.8352" lon="-0.20181">
        <ele>2324</ele>
        <time>2024-12-05T09:46:44.000Z</time>
      </trkpt>
      <trkpt lat="42.83507" lon="-0.20183">
        <ele>2323</ele>
        <time>2024-12-05T09:47:00.000Z</time>
      </trkpt>
      <trkpt lat="42.83477" lon="-0.2017">
        <ele>2326</ele>
        <time>2024-12-05T09:47:16.000Z</time>
      </trkpt>
      <trkpt lat="42.83464" lon="-0.20172">
        <ele>2324</ele>
        <time>2024-12-05T09:47:32.000Z</time>
      </trkpt>
      <trkpt lat="42.83447" lon="-0.20187">
        <ele>2318</ele>
        <time>2024-12-05T09:47:48.000Z</time>
      </trkpt>
      <trkpt lat="42.83426" lon="-0.2019">
        <ele>2317</ele>
        <time>2024-12-05T09:48:04.000Z</time>
      </trkpt>
      <trkpt lat="42.83417" lon="-0.20209">
        <ele>2312</ele>
        <time>2024-12-05T09:48:21.000Z</time>
      </trkpt>
      <trkpt lat="42.83411" lon="-0.2023">
        <ele>2308</ele>
        <time>2024-12-05T09:48:37.000Z</time>
      </trkpt>
      <trkpt lat="42.83402" lon="-0.20243">
        <ele>2308</ele>
        <time>2024-12-05T09:48:53.000Z</time>
      </trkpt>
      <trkpt lat="42.83396" lon="-0.20245">
        <ele>2309</ele>
        <time>2024-12-05T09:49:09.000Z</time>
      </trkpt>
      <trkpt lat="42.83376" lon="-0.20269">
        <ele>2311</ele>
        <time>2024-12-05T09:49:25.000Z</time>
      </trkpt>
      <trkpt lat="42.83346" lon="-0.20282">
        <ele>2315</ele>
        <time>2024-12-05T09:49:41.000Z</time>
      </trkpt>
      <trkpt lat="42.83344" lon="-0.20301">
        <ele>2317</ele>
        <time>2024-12-05T09:49:58.000Z</time>
      </trkpt>
      <trkpt lat="42.83338" lon="-0.2031">
        <ele>2313</ele>
        <time>2024-12-05T09:50:14.000Z</time>
      </trkpt>
      <trkpt lat="42.8332" lon="-0.20314">
        <ele>2307</ele>
        <time>2024-12-05T09:50:30.000Z</time>
      </trkpt>
      <trkpt lat="42.83318" lon="-0.2032">
        <ele>2305</ele>
        <time>2024-12-05T09:50:46.000Z</time>
      </trkpt>
      <trkpt lat="42.8332" lon="-0.20327">
        <ele>2305</ele>
        <time>2024-12-05T09:51:03.000Z</time>
      </trkpt>
      <trkpt lat="42.83327" lon="-0.20338">
        <ele>2307</ele>
        <time>2024-12-05T09:51:19.000Z</time>
      </trkpt>
      <trkpt lat="42.83312" lon="-0.20346">
        <ele>2300</ele>
        <time>2024-12-05T09:51:35.000Z</time>
      </trkpt>
      <trkpt lat="42.83327" lon="-0.20353">
        <ele>2308</ele>
        <time>2024-12-05T09:51:52.000Z</time>
      </trkpt>
      <trkpt lat="42.83311" lon="-0.20367">
        <ele>2302</ele>
        <time>2024-12-05T09:52:08.000Z</time>
      </trkpt>
      <trkpt lat="42.83295" lon="-0.20381">
        <ele>2295</ele>
        <time>2024-12-05T09:52:24.000Z</time>
      </trkpt>
      <trkpt lat="42.8329" lon="-0.20357">
        <ele>2290</ele>
        <time>2024-12-05T09:52:41.000Z</time>
      </trkpt>
      <trkpt lat="42.83282" lon="-0.20372">
        <ele>2281</ele>
        <time>2024-12-05T09:52:57.000Z</time>
      </trkpt>
      <trkpt lat="42.83271" lon="-0.20396">
        <ele>2279</ele>
        <time>2024-12-05T09:53:14.000Z</time>
      </trkpt>
      <trkpt lat="42.83269" lon="-0.2037">
        <ele>2274</ele>
        <time>2024-12-05T09:53:30.000Z</time>
      </trkpt>
      <trkpt lat="42.83256" lon="-0.20398">
        <ele>2273</ele>
        <time>2024-12-05T09:53:47.000Z</time>
      </trkpt>
      <trkpt lat="42.83248" lon="-0.20363">
        <ele>2262</ele>
        <time>2024-12-05T09:54:03.000Z</time>
      </trkpt>
      <trkpt lat="42.83241" lon="-0.20359">
        <ele>2259</ele>
        <time>2024-12-05T09:54:20.000Z</time>
      </trkpt>
      <trkpt lat="42.83215" lon="-0.20355">
        <ele>2252</ele>
        <time>2024-12-05T09:54:36.000Z</time>
      </trkpt>
      <trkpt lat="42.83209" lon="-0.20351">
        <ele>2252</ele>
        <time>2024-12-05T09:54:53.000Z</time>
      </trkpt>
      <trkpt lat="42.83205" lon="-0.2034">
        <ele>2250</ele>
        <time>2024-12-05T09:55:10.000Z</time>
      </trkpt>
      <trkpt lat="42.83209" lon="-0.20318">
        <ele>2248</ele>
        <time>2024-12-05T09:55:26.000Z</time>
      </trkpt>
      <trkpt lat="42.83226" lon="-0.20303">
        <ele>2248</ele>
        <time>2024-12-05T09:55:43.000Z</time>
      </trkpt>
      <trkpt lat="42.83239" lon="-0.20299">
        <ele>2249</ele>
        <time>2024-12-05T09:56:00.000Z</time>
      </trkpt>
      <trkpt lat="42.83245" lon="-0.2028">
        <ele>2245</ele>
        <time>2024-12-05T09:56:16.000Z</time>
      </trkpt>
      <trkpt lat="42.83235" lon="-0.20288">
        <ele>2242</ele>
        <time>2024-12-05T09:56:33.000Z</time>
      </trkpt>
      <trkpt lat="42.8322" lon="-0.20286">
        <ele>2239</ele>
        <time>2024-12-05T09:56:50.000Z</time>
      </trkpt>
      <trkpt lat="42.83222" lon="-0.20278">
        <ele>2235</ele>
        <time>2024-12-05T09:57:06.000Z</time>
      </trkpt>
      <trkpt lat="42.83217" lon="-0.20263">
        <ele>2229</ele>
        <time>2024-12-05T09:57:23.000Z</time>
      </trkpt>
      <trkpt lat="42.83209" lon="-0.20254">
        <ele>2226</ele>
        <time>2024-12-05T09:57:40.000Z</time>
      </trkpt>
      <trkpt lat="42.83194" lon="-0.20245">
        <ele>2220</ele>
        <time>2024-12-05T09:57:57.000Z</time>
      </trkpt>
      <trkpt lat="42.83196" lon="-0.20232">
        <ele>2217</ele>
        <time>2024-12-05T09:58:14.000Z</time>
      </trkpt>
      <trkpt lat="42.83181" lon="-0.20215">
        <ele>2211</ele>
        <time>2024-12-05T09:58:30.000Z</time>
      </trkpt>
      <trkpt lat="42.83181" lon="-0.20194">
        <ele>2208</ele>
        <time>2024-12-05T09:58:47.000Z</time>
      </trkpt>
      <trkpt lat="42.83181" lon="-0.20172">
        <ele>2205</ele>
        <time>2024-12-05T09:59:04.000Z</time>
      </trkpt>
      <trkpt lat="42.83196" lon="-0.20149">
        <ele>2203</ele>
        <time>2024-12-05T09:59:21.000Z</time>
      </trkpt>
      <trkpt lat="42.83198" lon="-0.20129">
        <ele>2197</ele>
        <time>2024-12-05T09:59:38.000Z</time>
      </trkpt>
      <trkpt lat="42.83181" lon="-0.20112">
        <ele>2195</ele>
        <time>2024-12-05T09:59:55.000Z</time>
      </trkpt>
      <trkpt lat="42.8317" lon="-0.20095">
        <ele>2190</ele>
        <time>2024-12-05T10:00:12.000Z</time>
      </trkpt>
      <trkpt lat="42.83162" lon="-0.20089">
        <ele>2189</ele>
        <time>2024-12-05T10:00:29.000Z</time>
      </trkpt>
      <trkpt lat="42.83155" lon="-0.20078">
        <ele>2187</ele>
        <time>2024-12-05T10:00:46.000Z</time>
      </trkpt>
      <trkpt lat="42.83151" lon="-0.20074">
        <ele>2188</ele>
        <time>2024-12-05T10:01:03.000Z</time>
      </trkpt>
      <trkpt lat="42.83135" lon="-0.20076">
        <ele>2187</ele>
        <time>2024-12-05T10:01:20.000Z</time>
      </trkpt>
      <trkpt lat="42.83119" lon="-0.20078">
        <ele>2185</ele>
        <time>2024-12-05T10:01:37.000Z</time>
      </trkpt>
      <trkpt lat="42.83098" lon="-0.20084">
        <ele>2182</ele>
        <time>2024-12-05T10:01:54.000Z</time>
      </trkpt>
      <trkpt lat="42.83078" lon="-0.20091">
        <ele>2180</ele>
        <time>2024-12-05T10:02:11.000Z</time>
      </trkpt>
      <trkpt lat="42.83055" lon="-0.20094">
        <ele>2178</ele>
        <time>2024-12-05T10:02:28.000Z</time>
      </trkpt>
      <trkpt lat="42.83033" lon="-0.20097">
        <ele>2177</ele>
        <time>2024-12-05T10:02:46.000Z</time>
      </trkpt>
      <trkpt lat="42.83022" lon="-0.20104">
        <ele>2175</ele>
        <time>2024-12-05T10:03:03.000Z</time>
      </trkpt>
      <trkpt lat="42.83006" lon="-0.20106">
        <ele>2172</ele>
        <time>2024-12-05T10:03:20.000Z</time>
      </trkpt>
      <trkpt lat="42.8299" lon="-0.20108">
        <ele>2169</ele>
        <time>2024-12-05T10:03:37.000Z</time>
      </trkpt>
      <trkpt lat="42.82986" lon="-0.20104">
        <ele>2169</ele>
        <time>2024-12-05T10:03:55.000Z</time>
      </trkpt>
      <trkpt lat="42.82984" lon="-0.20089">
        <ele>2170</ele>
        <time>2024-12-05T10:04:12.000Z</time>
      </trkpt>
      <trkpt lat="42.8296" lon="-0.20089">
        <ele>2163</ele>
        <time>2024-12-05T10:04:29.000Z</time>
      </trkpt>
      <trkpt lat="42.82956" lon="-0.20084">
        <ele>2160</ele>
        <time>2024-12-05T10:04:46.000Z</time>
      </trkpt>
      <trkpt lat="42.82954" lon="-0.20048">
        <ele>2161</ele>
        <time>2024-12-05T10:05:04.000Z</time>
      </trkpt>
      <trkpt lat="42.82947" lon="-0.20039">
        <ele>2159</ele>
        <time>2024-12-05T10:05:21.000Z</time>
      </trkpt>
      <trkpt lat="42.82919" lon="-0.20022">
        <ele>2153</ele>
        <time>2024-12-05T10:05:38.000Z</time>
      </trkpt>
      <trkpt lat="42.82891" lon="-0.20024">
        <ele>2145</ele>
        <time>2024-12-05T10:05:56.000Z</time>
      </trkpt>
      <trkpt lat="42.82902" lon="-0.20048">
        <ele>2139</ele>
        <time>2024-12-05T10:06:13.000Z</time>
      </trkpt>
      <trkpt lat="42.82878" lon="-0.20042">
        <ele>2136</ele>
        <time>2024-12-05T10:06:31.000Z</time>
      </trkpt>
      <trkpt lat="42.82851" lon="-0.20044">
        <ele>2130</ele>
        <time>2024-12-05T10:06:48.000Z</time>
      </trkpt>
      <trkpt lat="42.82832" lon="-0.20036">
        <ele>2128</ele>
        <time>2024-12-05T10:07:06.000Z</time>
      </trkpt>
      <trkpt lat="42.82814" lon="-0.20029">
        <ele>2124</ele>
        <time>2024-12-05T10:07:23.000Z</time>
      </trkpt>
      <trkpt lat="42.82803" lon="-0.20016">
        <ele>2121</ele>
        <time>2024-12-05T10:07:41.000Z</time>
      </trkpt>
      <trkpt lat="42.82775" lon="-0.20009">
        <ele>2116</ele>
        <time>2024-12-05T10:07:59.000Z</time>
      </trkpt>
      <trkpt lat="42.82758" lon="-0.19996">
        <ele>2110</ele>
        <time>2024-12-05T10:08:16.000Z</time>
      </trkpt>
      <trkpt lat="42.82775" lon="-0.20024">
        <ele>2110</ele>
        <time>2024-12-05T10:08:34.000Z</time>
      </trkpt>
      <trkpt lat="42.82769" lon="-0.20024">
        <ele>2107</ele>
        <time>2024-12-05T10:08:52.000Z</time>
      </trkpt>
      <trkpt lat="42.82751" lon="-0.20011">
        <ele>2101</ele>
        <time>2024-12-05T10:09:09.000Z</time>
      </trkpt>
      <trkpt lat="42.82733" lon="-0.19999">
        <ele>2096</ele>
        <time>2024-12-05T10:09:27.000Z</time>
      </trkpt>
      <trkpt lat="42.82739" lon="-0.20023">
        <ele>2092</ele>
        <time>2024-12-05T10:09:45.000Z</time>
      </trkpt>
      <trkpt lat="42.82745" lon="-0.20048">
        <ele>2088</ele>
        <time>2024-12-05T10:10:03.000Z</time>
      </trkpt>
      <trkpt lat="42.82728" lon="-0.20031">
        <ele>2086</ele>
        <time>2024-12-05T10:10:21.000Z</time>
      </trkpt>
      <trkpt lat="42.82711" lon="-0.20014">
        <ele>2080</ele>
        <time>2024-12-05T10:10:38.000Z</time>
      </trkpt>
      <trkpt lat="42.82692" lon="-0.2">
        <ele>2074</ele>
        <time>2024-12-05T10:10:56.000Z</time>
      </trkpt>
      <trkpt lat="42.82672" lon="-0.19986">
        <ele>2067</ele>
        <time>2024-12-05T10:11:14.000Z</time>
      </trkpt>
      <trkpt lat="42.8266" lon="-0.19973">
        <ele>2064</ele>
        <time>2024-12-05T10:11:32.000Z</time>
      </trkpt>
      <trkpt lat="42.82657" lon="-0.19996">
        <ele>2060</ele>
        <time>2024-12-05T10:11:50.000Z</time>
      </trkpt>
      <trkpt lat="42.82659" lon="-0.20019">
        <ele>2059</ele>
        <time>2024-12-05T10:12:08.000Z</time>
      </trkpt>
      <trkpt lat="42.8266" lon="-0.20042">
        <ele>2057</ele>
        <time>2024-12-05T10:12:26.000Z</time>
      </trkpt>
      <trkpt lat="42.82651" lon="-0.20061">
        <ele>2054</ele>
        <time>2024-12-05T10:12:44.000Z</time>
      </trkpt>
      <trkpt lat="42.82642" lon="-0.2008">
        <ele>2052</ele>
        <time>2024-12-05T10:13:02.000Z</time>
      </trkpt>
      <trkpt lat="42.8264" lon="-0.2011">
        <ele>2050</ele>
        <time>2024-12-05T10:13:20.000Z</time>
      </trkpt>
      <trkpt lat="42.82634" lon="-0.20136">
        <ele>2046</ele>
        <time>2024-12-05T10:13:38.000Z</time>
      </trkpt>
      <trkpt lat="42.82621" lon="-0.20145">
        <ele>2043</ele>
        <time>2024-12-05T10:13:57.000Z</time>
      </trkpt>
      <trkpt lat="42.82608" lon="-0.20142">
        <ele>2042</ele>
        <time>2024-12-05T10:14:15.000Z</time>
      </trkpt>
      <trkpt lat="42.82587" lon="-0.20114">
        <ele>2039</ele>
        <time>2024-12-05T10:14:33.000Z</time>
      </trkpt>
      <trkpt lat="42.82579" lon="-0.20079">
        <ele>2038</ele>
        <time>2024-12-05T10:14:51.000Z</time>
      </trkpt>
      <trkpt lat="42.82572" lon="-0.20044">
        <ele>2034</ele>
        <time>2024-12-05T10:15:09.000Z</time>
      </trkpt>
      <trkpt lat="42.82556" lon="-0.20037">
        <ele>2031</ele>
        <time>2024-12-05T10:15:28.000Z</time>
      </trkpt>
      <trkpt lat="42.82539" lon="-0.20031">
        <ele>2027</ele>
        <time>2024-12-05T10:15:46.000Z</time>
      </trkpt>
      <trkpt lat="42.82525" lon="-0.20015">
        <ele>2029</ele>
        <time>2024-12-05T10:16:04.000Z</time>
      </trkpt>
      <trkpt lat="42.82512" lon="-0.19999">
        <ele>2021</ele>
        <time>2024-12-05T10:16:23.000Z</time>
      </trkpt>
      <trkpt lat="42.82499" lon="-0.19971">
        <ele>2017</ele>
        <time>2024-12-05T10:16:41.000Z</time>
      </trkpt>
      <trkpt lat="42.82476" lon="-0.19956">
        <ele>2013</ele>
        <time>2024-12-05T10:16:59.000Z</time>
      </trkpt>
      <trkpt lat="42.82454" lon="-0.19941">
        <ele>2009</ele>
        <time>2024-12-05T10:17:18.000Z</time>
      </trkpt>
      <trkpt lat="42.82445" lon="-0.19928">
        <ele>2008</ele>
        <time>2024-12-05T10:17:36.000Z</time>
      </trkpt>
      <trkpt lat="42.82417" lon="-0.19911">
        <ele>1999</ele>
        <time>2024-12-05T10:17:55.000Z</time>
      </trkpt>
      <trkpt lat="42.82409" lon="-0.19908">
        <ele>1999</ele>
        <time>2024-12-05T10:18:13.000Z</time>
      </trkpt>
      <trkpt lat="42.82391" lon="-0.19907">
        <ele>1991</ele>
        <time>2024-12-05T10:18:32.000Z</time>
      </trkpt>
      <trkpt lat="42.82374" lon="-0.19906">
        <ele>1985</ele>
        <time>2024-12-05T10:18:50.000Z</time>
      </trkpt>
      <trkpt lat="42.82372" lon="-0.19911">
        <ele>1982</ele>
        <time>2024-12-05T10:19:09.000Z</time>
      </trkpt>
      <trkpt lat="42.82363" lon="-0.19917">
        <ele>1979</ele>
        <time>2024-12-05T10:19:28.000Z</time>
      </trkpt>
      <trkpt lat="42.82359" lon="-0.19915">
        <ele>1977</ele>
        <time>2024-12-05T10:19:46.000Z</time>
      </trkpt>
      <trkpt lat="42.82351" lon="-0.19919">
        <ele>1972</ele>
        <time>2024-12-05T10:20:05.000Z</time>
      </trkpt>
      <trkpt lat="42.82327" lon="-0.19919">
        <ele>1963</ele>
        <time>2024-12-05T10:20:23.000Z</time>
      </trkpt>
      <trkpt lat="42.82323" lon="-0.19923">
        <ele>1960</ele>
        <time>2024-12-05T10:20:42.000Z</time>
      </trkpt>
      <trkpt lat="42.82327" lon="-0.19926">
        <ele>1962</ele>
        <time>2024-12-05T10:21:01.000Z</time>
      </trkpt>
      <trkpt lat="42.82325" lon="-0.19932">
        <ele>1961</ele>
        <time>2024-12-05T10:21:19.000Z</time>
      </trkpt>
      <trkpt lat="42.82299" lon="-0.19923">
        <ele>1952</ele>
        <time>2024-12-05T10:21:38.000Z</time>
      </trkpt>
      <trkpt lat="42.82293" lon="-0.19903">
        <ele>1950</ele>
        <time>2024-12-05T10:21:57.000Z</time>
      </trkpt>
      <trkpt lat="42.82286" lon="-0.19883">
        <ele>1949</ele>
        <time>2024-12-05T10:22:15.000Z</time>
      </trkpt>
      <trkpt lat="42.82273" lon="-0.19874">
        <ele>1947</ele>
        <time>2024-12-05T10:22:34.000Z</time>
      </trkpt>
      <trkpt lat="42.82252" lon="-0.19846">
        <ele>1941</ele>
        <time>2024-12-05T10:22:53.000Z</time>
      </trkpt>
      <trkpt lat="42.8225" lon="-0.19823">
        <ele>1943</ele>
        <time>2024-12-05T10:23:12.000Z</time>
      </trkpt>
      <trkpt lat="42.8223" lon="-0.1979">
        <ele>1937</ele>
        <time>2024-12-05T10:23:31.000Z</time>
      </trkpt>
      <trkpt lat="42.82228" lon="-0.19778">
        <ele>1938</ele>
        <time>2024-12-05T10:23:50.000Z</time>
      </trkpt>
      <trkpt lat="42.8222" lon="-0.19758">
        <ele>1936</ele>
        <time>2024-12-05T10:24:08.000Z</time>
      </trkpt>
      <trkpt lat="42.822" lon="-0.19735">
        <ele>1928</ele>
        <time>2024-12-05T10:24:27.000Z</time>
      </trkpt>
      <trkpt lat="42.82192" lon="-0.1972">
        <ele>1924</ele>
        <time>2024-12-05T10:24:46.000Z</time>
      </trkpt>
      <trkpt lat="42.82181" lon="-0.19711">
        <ele>1920</ele>
        <time>2024-12-05T10:25:05.000Z</time>
      </trkpt>
      <trkpt lat="42.82172" lon="-0.1969">
        <ele>1914</ele>
        <time>2024-12-05T10:25:24.000Z</time>
      </trkpt>
      <trkpt lat="42.82166" lon="-0.19681">
        <ele>1913</ele>
        <time>2024-12-05T10:25:43.000Z</time>
      </trkpt>
      <trkpt lat="42.82164" lon="-0.19666">
        <ele>1915</ele>
        <time>2024-12-05T10:26:02.000Z</time>
      </trkpt>
      <trkpt lat="42.82153" lon="-0.19627">
        <ele>1913</ele>
        <time>2024-12-05T10:26:21.000Z</time>
      </trkpt>
      <trkpt lat="42.82142" lon="-0.19632">
        <ele>1908</ele>
        <time>2024-12-05T10:26:40.000Z</time>
      </trkpt>
      <trkpt lat="42.82125" lon="-0.19657">
        <ele>1899</ele>
        <time>2024-12-05T10:26:59.000Z</time>
      </trkpt>
      <trkpt lat="42.82115" lon="-0.1966">
        <ele>1895</ele>
        <time>2024-12-05T10:27:19.000Z</time>
      </trkpt>
      <trkpt lat="42.8211" lon="-0.19649">
        <ele>1894</ele>
        <time>2024-12-05T10:27:38.000Z</time>
      </trkpt>
      <trkpt lat="42.82093" lon="-0.1963">
        <ele>1887</ele>
        <time>2024-12-05T10:27:57.000Z</time>
      </trkpt>
      <trkpt lat="42.82091" lon="-0.19615">
        <ele>1885</ele>
        <time>2024-12-05T10:28:16.000Z</time>
      </trkpt>
      <trkpt lat="42.82087" lon="-0.19615">
        <ele>1883</ele>
        <time>2024-12-05T10:28:35.000Z</time>
      </trkpt>
      <trkpt lat="42.82082" lon="-0.19608">
        <ele>1882</ele>
        <time>2024-12-05T10:28:54.000Z</time>
      </trkpt>
      <trkpt lat="42.82085" lon="-0.19599">
        <ele>1883</ele>
        <time>2024-12-05T10:29:14.000Z</time>
      </trkpt>
      <trkpt lat="42.82076" lon="-0.19597">
        <ele>1880</ele>
        <time>2024-12-05T10:29:33.000Z</time>
      </trkpt>
      <trkpt lat="42.82072" lon="-0.19593">
        <ele>1878</ele>
        <time>2024-12-05T10:29:52.000Z</time>
      </trkpt>
      <trkpt lat="42.82074" lon="-0.19587">
        <ele>1879</ele>
        <time>2024-12-05T10:30:11.000Z</time>
      </trkpt>
      <trkpt lat="42.82059" lon="-0.19576">
        <ele>1873</ele>
        <time>2024-12-05T10:30:30.000Z</time>
      </trkpt>
      <trkpt lat="42.82048" lon="-0.19557">
        <ele>1872</ele>
        <time>2024-12-05T10:30:50.000Z</time>
      </trkpt>
      <trkpt lat="42.82035" lon="-0.19554">
        <ele>1867</ele>
        <time>2024-12-05T10:31:09.000Z</time>
      </trkpt>
      <trkpt lat="42.82035" lon="-0.1955">
        <ele>1867</ele>
        <time>2024-12-05T10:31:28.000Z</time>
      </trkpt>
      <trkpt lat="42.82027" lon="-0.19535">
        <ele>1867</ele>
        <time>2024-12-05T10:31:48.000Z</time>
      </trkpt>
      <trkpt lat="42.82016" lon="-0.19531">
        <ele>1865</ele>
        <time>2024-12-05T10:32:07.000Z</time>
      </trkpt>
      <trkpt lat="42.82007" lon="-0.19501">
        <ele>1864</ele>
        <time>2024-12-05T10:32:26.000Z</time>
      </trkpt>
      <trkpt lat="42.82003" lon="-0.19484">
        <ele>1864</ele>
        <time>2024-12-05T10:32:46.000Z</time>
      </trkpt>
      <trkpt lat="42.81994" lon="-0.19481">
        <ele>1861</ele>
        <time>2024-12-05T10:33:05.000Z</time>
      </trkpt>
      <trkpt lat="42.81984" lon="-0.19458">
        <ele>1858</ele>
        <time>2024-12-05T10:33:24.000Z</time>
      </trkpt>
      <trkpt lat="42.81979" lon="-0.19445">
        <ele>1858</ele>
        <time>2024-12-05T10:33:44.000Z</time>
      </trkpt>
      <trkpt lat="42.81971" lon="-0.19439">
        <ele>1855</ele>
        <time>2024-12-05T10:34:03.000Z</time>
      </trkpt>
      <trkpt lat="42.81956" lon="-0.19406">
        <ele>1853</ele>
        <time>2024-12-05T10:34:23.000Z</time>
      </trkpt>
      <trkpt lat="42.8196" lon="-0.19383">
        <ele>1853</ele>
        <time>2024-12-05T10:34:42.000Z</time>
      </trkpt>
      <trkpt lat="42.81951" lon="-0.19359">
        <ele>1851</ele>
        <time>2024-12-05T10:35:02.000Z</time>
      </trkpt>
      <trkpt lat="42.81945" lon="-0.19351">
        <ele>1851</ele>
        <time>2024-12-05T10:35:21.000Z</time>
      </trkpt>
      <trkpt lat="42.81932" lon="-0.19359">
        <ele>1850</ele>
        <time>2024-12-05T10:35:41.000Z</time>
      </trkpt>
      <trkpt lat="42.81932" lon="-0.19329">
        <ele>1850</ele>
        <time>2024-12-05T10:36:00.000Z</time>
      </trkpt>
      <trkpt lat="42.81928" lon="-0.19327">
        <ele>1849</ele>
        <time>2024-12-05T10:36:20.000Z</time>
      </trkpt>
      <trkpt lat="42.81917" lon="-0.19329">
        <ele>1848</ele>
        <time>2024-12-05T10:36:40.000Z</time>
      </trkpt>
      <trkpt lat="42.81909" lon="-0.19323">
        <ele>1847</ele>
        <time>2024-12-05T10:36:59.000Z</time>
      </trkpt>
      <trkpt lat="42.81911" lon="-0.19299">
        <ele>1844</ele>
        <time>2024-12-05T10:37:19.000Z</time>
      </trkpt>
      <trkpt lat="42.81921" lon="-0.19269">
        <ele>1840</ele>
        <time>2024-12-05T10:37:39.000Z</time>
      </trkpt>
      <trkpt lat="42.81924" lon="-0.19237">
        <ele>1841</ele>
        <time>2024-12-05T10:37:58.000Z</time>
      </trkpt>
      <trkpt lat="42.81919" lon="-0.19205">
        <ele>1836</ele>
        <time>2024-12-05T10:38:18.000Z</time>
      </trkpt>
      <trkpt lat="42.81909" lon="-0.19188">
        <ele>1835</ele>
        <time>2024-12-05T10:38:38.000Z</time>
      </trkpt>
      <trkpt lat="42.81909" lon="-0.19183">
        <ele>1834</ele>
        <time>2024-12-05T10:38:58.000Z</time>
      </trkpt>
      <trkpt lat="42.81924" lon="-0.19164">
        <ele>1833</ele>
        <time>2024-12-05T10:39:17.000Z</time>
      </trkpt>
      <trkpt lat="42.8193" lon="-0.19142">
        <ele>1832</ele>
        <time>2024-12-05T10:39:37.000Z</time>
      </trkpt>
      <trkpt lat="42.81934" lon="-0.19117">
        <ele>1828</ele>
        <time>2024-12-05T10:39:57.000Z</time>
      </trkpt>
      <trkpt lat="42.81931" lon="-0.19089">
        <ele>1826</ele>
        <time>2024-12-05T10:40:17.000Z</time>
      </trkpt>
      <trkpt lat="42.81928" lon="-0.19061">
        <ele>1825</ele>
        <time>2024-12-05T10:40:37.000Z</time>
      </trkpt>
      <trkpt lat="42.81915" lon="-0.19042">
        <ele>1821</ele>
        <time>2024-12-05T10:40:57.000Z</time>
      </trkpt>
      <trkpt lat="42.81906" lon="-0.19035">
        <ele>1820</ele>
        <time>2024-12-05T10:41:17.000Z</time>
      </trkpt>
      <trkpt lat="42.8189" lon="-0.19031">
        <ele>1820</ele>
        <time>2024-12-05T10:41:37.000Z</time>
      </trkpt>
      <trkpt lat="42.81874" lon="-0.19027">
        <ele>1821</ele>
        <time>2024-12-05T10:41:57.000Z</time>
      </trkpt>
      <trkpt lat="42.8186" lon="-0.1901">
        <ele>1820</ele>
        <time>2024-12-05T10:42:17.000Z</time>
      </trkpt>
      <trkpt lat="42.81846" lon="-0.18994">
        <ele>1820</ele>
        <time>2024-12-05T10:42:37.000Z</time>
      </trkpt>
      <trkpt lat="42.81833" lon="-0.18965">
        <ele>1822</ele>
        <time>2024-12-05T10:42:57.000Z</time>
      </trkpt>
      <trkpt lat="42.81821" lon="-0.18936">
        <ele>1822</ele>
        <time>2024-12-05T10:43:17.000Z</time>
      </trkpt>
      <trkpt lat="42.81793" lon="-0.18928">
        <ele>1820</ele>
        <time>2024-12-05T10:43:37.000Z</time>
      </trkpt>
      <trkpt lat="42.81786" lon="-0.18924">
        <ele>1821</ele>
        <time>2024-12-05T10:43:57.000Z</time>
      </trkpt>
      <trkpt lat="42.81778" lon="-0.18926">
        <ele>1821</ele>
        <time>2024-12-05T10:44:17.000Z</time>
      </trkpt>
      <trkpt lat="42.81771" lon="-0.18915">
        <ele>1822</ele>
        <time>2024-12-05T10:44:37.000Z</time>
      </trkpt>
      <trkpt lat="42.81758" lon="-0.18915">
        <ele>1824</ele>
        <time>2024-12-05T10:44:57.000Z</time>
      </trkpt>
      <trkpt lat="42.81735" lon="-0.18943">
        <ele>1826</ele>
        <time>2024-12-05T10:45:18.000Z</time>
      </trkpt>
      <trkpt lat="42.81707" lon="-0.1895">
        <ele>1830</ele>
        <time>2024-12-05T10:45:38.000Z</time>
      </trkpt>
      <trkpt lat="42.81679" lon="-0.18958">
        <ele>1832</ele>
        <time>2024-12-05T10:45:58.000Z</time>
      </trkpt>
      <trkpt lat="42.81655" lon="-0.18969">
        <ele>1835</ele>
        <time>2024-12-05T10:46:19.000Z</time>
      </trkpt>
      <trkpt lat="42.81645" lon="-0.18977">
        <ele>1835</ele>
        <time>2024-12-05T10:46:39.000Z</time>
      </trkpt>
      <trkpt lat="42.81615" lon="-0.18988">
        <ele>1840</ele>
        <time>2024-12-05T10:46:59.000Z</time>
      </trkpt>
      <trkpt lat="42.81592" lon="-0.18994">
        <ele>1845</ele>
        <time>2024-12-05T10:47:20.000Z</time>
      </trkpt>
      <trkpt lat="42.8157" lon="-0.19001">
        <ele>1853</ele>
        <time>2024-12-05T10:47:40.000Z</time>
      </trkpt>
      <trkpt lat="42.81548" lon="-0.19007">
        <ele>1858</ele>
        <time>2024-12-05T10:48:01.000Z</time>
      </trkpt>
      <trkpt lat="42.81533" lon="-0.19003">
        <ele>1863</ele>
        <time>2024-12-05T10:48:21.000Z</time>
      </trkpt>
      <trkpt lat="42.81522" lon="-0.18994">
        <ele>1865</ele>
        <time>2024-12-05T10:48:42.000Z</time>
      </trkpt>
      <trkpt lat="42.81507" lon="-0.1899">
        <ele>1869</ele>
        <time>2024-12-05T10:49:02.000Z</time>
      </trkpt>
      <trkpt lat="42.81486" lon="-0.18987">
        <ele>1875</ele>
        <time>2024-12-05T10:49:23.000Z</time>
      </trkpt>
      <trkpt lat="42.81464" lon="-0.18984">
        <ele>1878</ele>
        <time>2024-12-05T10:49:43.000Z</time>
      </trkpt>
      <trkpt lat="42.81445" lon="-0.18977">
        <ele>1880</ele>
        <time>2024-12-05T10:50:04.000Z</time>
      </trkpt>
      <trkpt lat="42.81426" lon="-0.18971">
        <ele>1881</ele>
        <time>2024-12-05T10:50:25.000Z</time>
      </trkpt>
      <trkpt lat="42.81419" lon="-0.1896">
        <ele>1884</ele>
        <time>2024-12-05T10:50:45.000Z</time>
      </trkpt>
      <trkpt lat="42.81389" lon="-0.18949">
        <ele>1885</ele>
        <time>2024-12-05T10:51:06.000Z</time>
      </trkpt>
      <trkpt lat="42.81359" lon="-0.18947">
        <ele>1887</ele>
        <time>2024-12-05T10:51:27.000Z</time>
      </trkpt>
      <trkpt lat="42.81346" lon="-0.18936">
        <ele>1889</ele>
        <time>2024-12-05T10:51:48.000Z</time>
      </trkpt>
      <trkpt lat="42.81325" lon="-0.18945">
        <ele>1889</ele>
        <time>2024-12-05T10:52:08.000Z</time>
      </trkpt>
      <trkpt lat="42.81303" lon="-0.18934">
        <ele>1896</ele>
        <time>2024-12-05T10:52:29.000Z</time>
      </trkpt>
      <trkpt lat="42.81278" lon="-0.18928">
        <ele>1901</ele>
        <time>2024-12-05T10:52:50.000Z</time>
      </trkpt>
      <trkpt lat="42.81269" lon="-0.18921">
        <ele>1903</ele>
        <time>2024-12-05T10:53:11.000Z</time>
      </trkpt>
      <trkpt lat="42.81252" lon="-0.1892">
        <ele>1907</ele>
        <time>2024-12-05T10:53:32.000Z</time>
      </trkpt>
      <trkpt lat="42.81235" lon="-0.18919">
        <ele>1910</ele>
        <time>2024-12-05T10:53:53.000Z</time>
      </trkpt>
      <trkpt lat="42.81222" lon="-0.18904">
        <ele>1913</ele>
        <time>2024-12-05T10:54:14.000Z</time>
      </trkpt>
      <trkpt lat="42.81218" lon="-0.189">
        <ele>1914</ele>
        <time>2024-12-05T10:54:35.000Z</time>
      </trkpt>
      <trkpt lat="42.812" lon="-0.18901">
        <ele>1916</ele>
        <time>2024-12-05T10:54:56.000Z</time>
      </trkpt>
      <trkpt lat="42.81183" lon="-0.18902">
        <ele>1919</ele>
        <time>2024-12-05T10:55:17.000Z</time>
      </trkpt>
      <trkpt lat="42.81153" lon="-0.18913">
        <ele>1924</ele>
        <time>2024-12-05T10:55:38.000Z</time>
      </trkpt>
      <trkpt lat="42.81149" lon="-0.18919">
        <ele>1926</ele>
        <time>2024-12-05T10:55:59.000Z</time>
      </trkpt>
      <trkpt lat="42.81136" lon="-0.18924">
        <ele>1927</ele>
        <time>2024-12-05T10:56:20.000Z</time>
      </trkpt>
      <trkpt lat="42.81132" lon="-0.18915">
        <ele>1928</ele>
        <time>2024-12-05T10:56:41.000Z</time>
      </trkpt>
      <trkpt lat="42.81123" lon="-0.18904">
        <ele>1931</ele>
        <time>2024-12-05T10:57:02.000Z</time>
      </trkpt>
      <trkpt lat="42.81115" lon="-0.18876">
        <ele>1935</ele>
        <time>2024-12-05T10:57:23.000Z</time>
      </trkpt>
      <trkpt lat="42.81112" lon="-0.18866">
        <ele>1937</ele>
        <time>2024-12-05T10:57:44.000Z</time>
      </trkpt>
      <trkpt lat="42.81121" lon="-0.18846">
        <ele>1944</ele>
        <time>2024-12-05T10:58:05.000Z</time>
      </trkpt>
      <trkpt lat="42.8113" lon="-0.18827">
        <ele>1946</ele>
        <time>2024-12-05T10:58:26.000Z</time>
      </trkpt>
      <trkpt lat="42.81123" lon="-0.18827">
        <ele>1951</ele>
        <time>2024-12-05T10:58:48.000Z</time>
      </trkpt>
      <trkpt lat="42.81117" lon="-0.18833">
        <ele>1952</ele>
        <time>2024-12-05T10:59:09.000Z</time>
      </trkpt>
      <trkpt lat="42.81095" lon="-0.18855">
        <ele>1953</ele>
        <time>2024-12-05T10:59:30.000Z</time>
      </trkpt>
      <trkpt lat="42.81074" lon="-0.1884">
        <ele>1959</ele>
        <time>2024-12-05T10:59:51.000Z</time>
      </trkpt>
      <trkpt lat="42.81061" lon="-0.18829">
        <ele>1963</ele>
        <time>2024-12-05T11:00:13.000Z</time>
      </trkpt>
      <trkpt lat="42.81052" lon="-0.18806">
        <ele>1967</ele>
        <time>2024-12-05T11:00:34.000Z</time>
      </trkpt>
      <trkpt lat="42.81022" lon="-0.18803">
        <ele>1972</ele>
        <time>2024-12-05T11:00:55.000Z</time>
      </trkpt>
      <trkpt lat="42.81014" lon="-0.18788">
        <ele>1975</ele>
        <time>2024-12-05T11:01:17.000Z</time>
      </trkpt>
      <trkpt lat="42.80986" lon="-0.18776">
        <ele>1978</ele>
        <time>2024-12-05T11:01:38.000Z</time>
      </trkpt>
      <trkpt lat="42.80973" lon="-0.18776">
        <ele>1978</ele>
        <time>2024-12-05T11:01:59.000Z</time>
      </trkpt>
      <trkpt lat="42.80952" lon="-0.18767">
        <ele>1977</ele>
        <time>2024-12-05T11:02:21.000Z</time>
      </trkpt>
      <trkpt lat="42.80947" lon="-0.18778">
        <ele>1973</ele>
        <time>2024-12-05T11:02:42.000Z</time>
      </trkpt>
      <trkpt lat="42.80952" lon="-0.18786">
        <ele>1971</ele>
        <time>2024-12-05T11:03:04.000Z</time>
      </trkpt>
      <trkpt lat="42.80932" lon="-0.18784">
        <ele>1973</ele>
        <time>2024-12-05T11:03:25.000Z</time>
      </trkpt>
      <trkpt lat="42.80917" lon="-0.18788">
        <ele>1978</ele>
        <time>2024-12-05T11:03:47.000Z</time>
      </trkpt>
      <trkpt lat="42.80906" lon="-0.18776">
        <ele>1981</ele>
        <time>2024-12-05T11:04:08.000Z</time>
      </trkpt>
      <trkpt lat="42.80876" lon="-0.18765">
        <ele>1984</ele>
        <time>2024-12-05T11:04:30.000Z</time>
      </trkpt>
      <trkpt lat="42.8087" lon="-0.18756">
        <ele>1988</ele>
        <time>2024-12-05T11:04:52.000Z</time>
      </trkpt>
      <trkpt lat="42.80849" lon="-0.18756">
        <ele>1991</ele>
        <time>2024-12-05T11:05:13.000Z</time>
      </trkpt>
      <trkpt lat="42.80842" lon="-0.18748">
        <ele>1992</ele>
        <time>2024-12-05T11:05:35.000Z</time>
      </trkpt>
      <trkpt lat="42.80836" lon="-0.1872">
        <ele>1995</ele>
        <time>2024-12-05T11:05:57.000Z</time>
      </trkpt>
      <trkpt lat="42.80808" lon="-0.18703">
        <ele>1995</ele>
        <time>2024-12-05T11:06:18.000Z</time>
      </trkpt>
      <trkpt lat="42.80795" lon="-0.18679">
        <ele>1997</ele>
        <time>2024-12-05T11:06:40.000Z</time>
      </trkpt>
      <trkpt lat="42.80788" lon="-0.18651">
        <ele>2000</ele>
        <time>2024-12-05T11:07:02.000Z</time>
      </trkpt>
      <trkpt lat="42.80782" lon="-0.18638">
        <ele>2000</ele>
        <time>2024-12-05T11:07:23.000Z</time>
      </trkpt>
      <trkpt lat="42.80776" lon="-0.18625">
        <ele>2002</ele>
        <time>2024-12-05T11:07:45.000Z</time>
      </trkpt>
      <trkpt lat="42.80755" lon="-0.18608">
        <ele>2001</ele>
        <time>2024-12-05T11:08:07.000Z</time>
      </trkpt>
      <trkpt lat="42.80735" lon="-0.18591">
        <ele>2006</ele>
        <time>2024-12-05T11:08:29.000Z</time>
      </trkpt>
      <trkpt lat="42.80724" lon="-0.18576">
        <ele>2011</ele>
        <time>2024-12-05T11:08:51.000Z</time>
      </trkpt>
      <trkpt lat="42.80713" lon="-0.18554">
        <ele>2014</ele>
        <time>2024-12-05T11:09:13.000Z</time>
      </trkpt>
      <trkpt lat="42.80703" lon="-0.18533">
        <ele>2017</ele>
        <time>2024-12-05T11:09:35.000Z</time>
      </trkpt>
      <trkpt lat="42.80703" lon="-0.18505">
        <ele>2021</ele>
        <time>2024-12-05T11:09:57.000Z</time>
      </trkpt>
      <trkpt lat="42.80696" lon="-0.18473">
        <ele>2022</ele>
        <time>2024-12-05T11:10:19.000Z</time>
      </trkpt>
      <trkpt lat="42.8069" lon="-0.18441">
        <ele>2027</ele>
        <time>2024-12-05T11:10:41.000Z</time>
      </trkpt>
      <trkpt lat="42.80685" lon="-0.1843">
        <ele>2029</ele>
        <time>2024-12-05T11:11:03.000Z</time>
      </trkpt>
      <trkpt lat="42.80677" lon="-0.18419">
        <ele>2030</ele>
        <time>2024-12-05T11:11:25.000Z</time>
      </trkpt>
      <trkpt lat="42.80675" lon="-0.18411">
        <ele>2031</ele>
        <time>2024-12-05T11:11:47.000Z</time>
      </trkpt>
      <trkpt lat="42.80679" lon="-0.18398">
        <ele>2032</ele>
        <time>2024-12-05T11:12:09.000Z</time>
      </trkpt>
      <trkpt lat="42.8069" lon="-0.18396">
        <ele>2034</ele>
        <time>2024-12-05T11:12:31.000Z</time>
      </trkpt>
      <trkpt lat="42.80693" lon="-0.18366">
        <ele>2038</ele>
        <time>2024-12-05T11:12:53.000Z</time>
      </trkpt>
      <trkpt lat="42.80697" lon="-0.18337">
        <ele>2043</ele>
        <time>2024-12-05T11:13:15.000Z</time>
      </trkpt>
      <trkpt lat="42.807" lon="-0.18308">
        <ele>2047</ele>
        <time>2024-12-05T11:13:37.000Z</time>
      </trkpt>
      <trkpt lat="42.80713" lon="-0.18329">
        <ele>2049</ele>
        <time>2024-12-05T11:14:00.000Z</time>
      </trkpt>
      <trkpt lat="42.80722" lon="-0.18336">
        <ele>2050</ele>
        <time>2024-12-05T11:14:22.000Z</time>
      </trkpt>
      <trkpt lat="42.80743" lon="-0.18338">
        <ele>2057</ele>
        <time>2024-12-05T11:14:44.000Z</time>
      </trkpt>
      <trkpt lat="42.8075" lon="-0.18351">
        <ele>2054</ele>
        <time>2024-12-05T11:15:06.000Z</time>
      </trkpt>
      <trkpt lat="42.80754" lon="-0.18353">
        <ele>2054</ele>
        <time>2024-12-05T11:15:28.000Z</time>
      </trkpt>
      <trkpt lat="42.80758" lon="-0.18346">
        <ele>2056</ele>
        <time>2024-12-05T11:15:51.000Z</time>
      </trkpt>
      <trkpt lat="42.80761" lon="-0.18353">
        <ele>2055</ele>
        <time>2024-12-05T11:16:13.000Z</time>
      </trkpt>
      <trkpt lat="42.80767" lon="-0.18355">
        <ele>2056</ele>
        <time>2024-12-05T11:16:35.000Z</time>
      </trkpt>
      <trkpt lat="42.80784" lon="-0.1834">
        <ele>2065</ele>
        <time>2024-12-05T11:16:58.000Z</time>
      </trkpt>
      <trkpt lat="42.80782" lon="-0.18318">
        <ele>2071</ele>
        <time>2024-12-05T11:17:20.000Z</time>
      </trkpt>
      <trkpt lat="42.80769" lon="-0.18299">
        <ele>2073</ele>
        <time>2024-12-05T11:17:42.000Z</time>
      </trkpt>
      <trkpt lat="42.80756" lon="-0.1828">
        <ele>2075</ele>
        <time>2024-12-05T11:18:05.000Z</time>
      </trkpt>
      <trkpt lat="42.80756" lon="-0.18273">
        <ele>2077</ele>
        <time>2024-12-05T11:18:27.000Z</time>
      </trkpt>
      <trkpt lat="42.8075" lon="-0.18252">
        <ele>2078</ele>
        <time>2024-12-05T11:18:50.000Z</time>
      </trkpt>
      <trkpt lat="42.8075" lon="-0.1823">
        <ele>2084</ele>
        <time>2024-12-05T11:19:12.000Z</time>
      </trkpt>
      <trkpt lat="42.80754" lon="-0.18237">
        <ele>2085</ele>
        <time>2024-12-05T11:19:34.000Z</time>
      </trkpt>
      <trkpt lat="42.80756" lon="-0.18235">
        <ele>2086</ele>
        <time>2024-12-05T11:19:57.000Z</time>
      </trkpt>
      <trkpt lat="42.80756" lon="-0.18237">
        <ele>2086</ele>
        <time>2024-12-05T11:20:19.000Z</time>
      </trkpt>
      <trkpt lat="42.80758" lon="-0.18233">
        <ele>2087</ele>
        <time>2024-12-05T11:20:42.000Z</time>
      </trkpt>
      <trkpt lat="42.80763" lon="-0.18239">
        <ele>2087</ele>
        <time>2024-12-05T11:21:04.000Z</time>
      </trkpt>
      <trkpt lat="42.80765" lon="-0.18235">
        <ele>2089</ele>
        <time>2024-12-05T11:21:27.000Z</time>
      </trkpt>
      <trkpt lat="42.80767" lon="-0.18246">
        <ele>2087</ele>
        <time>2024-12-05T11:21:49.000Z</time>
      </trkpt>
      <trkpt lat="42.8078" lon="-0.18256">
        <ele>2092</ele>
        <time>2024-12-05T11:22:12.000Z</time>
      </trkpt>
      <trkpt lat="42.80788" lon="-0.18248">
        <ele>2097</ele>
        <time>2024-12-05T11:22:34.000Z</time>
      </trkpt>
      <trkpt lat="42.80795" lon="-0.18213">
        <ele>2105</ele>
        <time>2024-12-05T11:22:57.000Z</time>
      </trkpt>
      <trkpt lat="42.80803" lon="-0.18205">
        <ele>2108</ele>
        <time>2024-12-05T11:23:19.000Z</time>
      </trkpt>
      <trkpt lat="42.80801" lon="-0.18192">
        <ele>2110</ele>
        <time>2024-12-05T11:23:42.000Z</time>
      </trkpt>
      <trkpt lat="42.80788" lon="-0.18181">
        <ele>2108</ele>
        <time>2024-12-05T11:24:04.000Z</time>
      </trkpt>
      <trkpt lat="42.80782" lon="-0.18158">
        <ele>2113</ele>
        <time>2024-12-05T11:24:27.000Z</time>
      </trkpt>
      <trkpt lat="42.80767" lon="-0.1813">
        <ele>2116</ele>
        <time>2024-12-05T11:24:50.000Z</time>
      </trkpt>
      <trkpt lat="42.80756" lon="-0.18125">
        <ele>2118</ele>
        <time>2024-12-05T11:25:12.000Z</time>
      </trkpt>
      <trkpt lat="42.8075" lon="-0.18108">
        <ele>2121</ele>
        <time>2024-12-05T11:25:35.000Z</time>
      </trkpt>
      <trkpt lat="42.80734" lon="-0.18104">
        <ele>2123</ele>
        <time>2024-12-05T11:25:58.000Z</time>
      </trkpt>
      <trkpt lat="42.80718" lon="-0.181">
        <ele>2123</ele>
        <time>2024-12-05T11:26:21.000Z</time>
      </trkpt>
      <trkpt lat="42.80711" lon="-0.18091">
        <ele>2123</ele>
        <time>2024-12-05T11:26:43.000Z</time>
      </trkpt>
      <trkpt lat="42.80694" lon="-0.18084">
        <ele>2124</ele>
        <time>2024-12-05T11:27:06.000Z</time>
      </trkpt>
      <trkpt lat="42.80677" lon="-0.18076">
        <ele>2125</ele>
        <time>2024-12-05T11:27:29.000Z</time>
      </trkpt>
      <trkpt lat="42.80655" lon="-0.18055">
        <ele>2128</ele>
        <time>2024-12-05T11:27:52.000Z</time>
      </trkpt>
      <trkpt lat="42.80634" lon="-0.18033">
        <ele>2132</ele>
        <time>2024-12-05T11:28:15.000Z</time>
      </trkpt>
      <trkpt lat="42.80625" lon="-0.18022">
        <ele>2134</ele>
        <time>2024-12-05T11:28:37.000Z</time>
      </trkpt>
      <trkpt lat="42.8063" lon="-0.17997">
        <ele>2142</ele>
        <time>2024-12-05T11:29:00.000Z</time>
      </trkpt>
      <trkpt lat="42.80628" lon="-0.17982">
        <ele>2145</ele>
        <time>2024-12-05T11:29:23.000Z</time>
      </trkpt>
      <trkpt lat="42.80617" lon="-0.17971">
        <ele>2147</ele>
        <time>2024-12-05T11:29:46.000Z</time>
      </trkpt>
      <trkpt lat="42.80596" lon="-0.1797">
        <ele>2149</ele>
        <time>2024-12-05T11:30:09.000Z</time>
      </trkpt>
      <trkpt lat="42.80576" lon="-0.17969">
        <ele>2152</ele>
        <time>2024-12-05T11:30:32.000Z</time>
      </trkpt>
      <trkpt lat="42.80559" lon="-0.17986">
        <ele>2149</ele>
        <time>2024-12-05T11:30:55.000Z</time>
      </trkpt>
      <trkpt lat="42.8055" lon="-0.17986">
        <ele>2152</ele>
        <time>2024-12-05T11:31:18.000Z</time>
      </trkpt>
      <trkpt lat="42.80525" lon="-0.17964">
        <ele>2159</ele>
        <time>2024-12-05T11:31:41.000Z</time>
      </trkpt>
      <trkpt lat="42.80507" lon="-0.17958">
        <ele>2163</ele>
        <time>2024-12-05T11:32:04.000Z</time>
      </trkpt>
      <trkpt lat="42.80501" lon="-0.17945">
        <ele>2171</ele>
        <time>2024-12-05T11:32:27.000Z</time>
      </trkpt>
      <trkpt lat="42.80479" lon="-0.17935">
        <ele>2174</ele>
        <time>2024-12-05T11:32:51.000Z</time>
      </trkpt>
      <trkpt lat="42.80458" lon="-0.17926">
        <ele>2174</ele>
        <time>2024-12-05T11:33:14.000Z</time>
      </trkpt>
      <trkpt lat="42.80443" lon="-0.17904">
        <ele>2179</ele>
        <time>2024-12-05T11:33:37.000Z</time>
      </trkpt>
      <trkpt lat="42.80441" lon="-0.17879">
        <ele>2180</ele>
        <time>2024-12-05T11:34:00.000Z</time>
      </trkpt>
      <trkpt lat="42.80443" lon="-0.17876">
        <ele>2183</ele>
        <time>2024-12-05T11:34:23.000Z</time>
      </trkpt>
      <trkpt lat="42.80454" lon="-0.17885">
        <ele>2185</ele>
        <time>2024-12-05T11:34:47.000Z</time>
      </trkpt>
      <trkpt lat="42.8046" lon="-0.17887">
        <ele>2187</ele>
        <time>2024-12-05T11:35:10.000Z</time>
      </trkpt>
      <trkpt lat="42.80462" lon="-0.17879">
        <ele>2189</ele>
        <time>2024-12-05T11:35:33.000Z</time>
      </trkpt>
      <trkpt lat="42.80447" lon="-0.17851">
        <ele>2189</ele>
        <time>2024-12-05T11:35:56.000Z</time>
      </trkpt>
      <trkpt lat="42.80462" lon="-0.17849">
        <ele>2197</ele>
        <time>2024-12-05T11:36:20.000Z</time>
      </trkpt>
      <trkpt lat="42.80475" lon="-0.17836">
        <ele>2206</ele>
        <time>2024-12-05T11:36:43.000Z</time>
      </trkpt>
      <trkpt lat="42.80479" lon="-0.17823">
        <ele>2212</ele>
        <time>2024-12-05T11:37:06.000Z</time>
      </trkpt>
      <trkpt lat="42.80482" lon="-0.17803">
        <ele>2216</ele>
        <time>2024-12-05T11:37:30.000Z</time>
      </trkpt>
      <trkpt lat="42.80475" lon="-0.1778">
        <ele>2216</ele>
        <time>2024-12-05T11:37:53.000Z</time>
      </trkpt>
      <trkpt lat="42.80475" lon="-0.1778">
        <ele>2216</ele>
        <time>2024-12-05T11:38:17.000Z</time>
      </trkpt>
      <trkpt lat="42.80454" lon="-0.17778">
        <ele>2211</ele>
        <time>2024-12-05T11:38:40.000Z</time>
      </trkpt>
      <trkpt lat="42.80431" lon="-0.17765">
        <ele>2215</ele>
        <time>2024-12-05T11:39:04.000Z</time>
      </trkpt>
      <trkpt lat="42.80409" lon="-0.17752">
        <ele>2216</ele>
        <time>2024-12-05T11:39:27.000Z</time>
      </trkpt>
      <trkpt lat="42.804" lon="-0.17733">
        <ele>2226</ele>
        <time>2024-12-05T11:39:51.000Z</time>
      </trkpt>
      <trkpt lat="42.80394" lon="-0.17707">
        <ele>2232</ele>
        <time>2024-12-05T11:40:14.000Z</time>
      </trkpt>
      <trkpt lat="42.80389" lon="-0.17707">
        <ele>2232</ele>
        <time>2024-12-05T11:40:38.000Z</time>
      </trkpt>
      <trkpt lat="42.80366" lon="-0.17709">
        <ele>2236</ele>
        <time>2024-12-05T11:41:01.000Z</time>
      </trkpt>
      <trkpt lat="42.80342" lon="-0.17711">
        <ele>2239</ele>
        <time>2024-12-05T11:41:25.000Z</time>
      </trkpt>
      <trkpt lat="42.80321" lon="-0.177">
        <ele>2242</ele>
        <time>2024-12-05T11:41:48.000Z</time>
      </trkpt>
      <trkpt lat="42.80299" lon="-0.17675">
        <ele>2243</ele>
        <time>2024-12-05T11:42:12.000Z</time>
      </trkpt>
      <trkpt lat="42.80278" lon="-0.1765">
        <ele>2246</ele>
        <time>2024-12-05T11:42:36.000Z</time>
      </trkpt>
      <trkpt lat="42.80256" lon="-0.17625">
        <ele>2247</ele>
        <time>2024-12-05T11:43:00.000Z</time>
      </trkpt>
      <trkpt lat="42.80235" lon="-0.17613">
        <ele>2250</ele>
        <time>2024-12-05T11:43:23.000Z</time>
      </trkpt>
      <trkpt lat="42.80218" lon="-0.17585">
        <ele>2253</ele>
        <time>2024-12-05T11:43:47.000Z</time>
      </trkpt>
      <trkpt lat="42.80209" lon="-0.1758">
        <ele>2254</ele>
        <time>2024-12-05T11:44:11.000Z</time>
      </trkpt>
      <trkpt lat="42.8018" lon="-0.17581">
        <ele>2252</ele>
        <time>2024-12-05T11:44:35.000Z</time>
      </trkpt>
      <trkpt lat="42.80151" lon="-0.17582">
        <ele>2256</ele>
        <time>2024-12-05T11:44:59.000Z</time>
      </trkpt>
      <trkpt lat="42.80136" lon="-0.17592">
        <ele>2256</ele>
        <time>2024-12-05T11:45:23.000Z</time>
      </trkpt>
      <trkpt lat="42.80121" lon="-0.17602">
        <ele>2255</ele>
        <time>2024-12-05T11:45:47.000Z</time>
      </trkpt>
      <trkpt lat="42.80113" lon="-0.17619">
        <ele>2259</ele>
        <time>2024-12-05T11:46:11.000Z</time>
      </trkpt>
      <trkpt lat="42.801" lon="-0.17623">
        <ele>2256</ele>
        <time>2024-12-05T11:46:35.000Z</time>
      </trkpt>
      <trkpt lat="42.80087" lon="-0.17639">
        <ele>2257</ele>
        <time>2024-12-05T11:46:59.000Z</time>
      </trkpt>
      <trkpt lat="42.80074" lon="-0.17655">
        <ele>2258</ele>
        <time>2024-12-05T11:47:23.000Z</time>
      </trkpt>
      <trkpt lat="42.80063" lon="-0.17658">
        <ele>2255</ele>
        <time>2024-12-05T11:47:47.000Z</time>
      </trkpt>
      <trkpt lat="42.80039" lon="-0.17673">
        <ele>2254</ele>
        <time>2024-12-05T11:48:11.000Z</time>
      </trkpt>
      <trkpt lat="42.80014" lon="-0.17688">
        <ele>2255</ele>
        <time>2024-12-05T11:48:35.000Z</time>
      </trkpt>
      <trkpt lat="42.79999" lon="-0.17683">
        <ele>2257</ele>
        <time>2024-12-05T11:48:59.000Z</time>
      </trkpt>
      <trkpt lat="42.79982" lon="-0.17666">
        <ele>2258</ele>
        <time>2024-12-05T11:49:23.000Z</time>
      </trkpt>
      <trkpt lat="42.79971" lon="-0.17668">
        <ele>2260</ele>
        <time>2024-12-05T11:49:47.000Z</time>
      </trkpt>
      <trkpt lat="42.79947" lon="-0.17653">
        <ele>2260</ele>
        <time>2024-12-05T11:50:12.000Z</time>
      </trkpt>
      <trkpt lat="42.79934" lon="-0.17628">
        <ele>2261</ele>
        <time>2024-12-05T11:50:36.000Z</time>
      </trkpt>
      <trkpt lat="42.79919" lon="-0.17617">
        <ele>2264</ele>
        <time>2024-12-05T11:51:00.000Z</time>
      </trkpt>
      <trkpt lat="42.79917" lon="-0.17604">
        <ele>2264</ele>
        <time>2024-12-05T11:51:24.000Z</time>
      </trkpt>
      <trkpt lat="42.79907" lon="-0.17587">
        <ele>2264</ele>
        <time>2024-12-05T11:51:49.000Z</time>
      </trkpt>
      <trkpt lat="42.79883" lon="-0.1758">
        <ele>2264</ele>
        <time>2024-12-05T11:52:13.000Z</time>
      </trkpt>
      <trkpt lat="42.79879" lon="-0.17582">
        <ele>2265</ele>
        <time>2024-12-05T11:52:37.000Z</time>
      </trkpt>
      <trkpt lat="42.79862" lon="-0.17567">
        <ele>2264</ele>
        <time>2024-12-05T11:53:02.000Z</time>
      </trkpt>
      <trkpt lat="42.79846" lon="-0.1757">
        <ele>2263</ele>
        <time>2024-12-05T11:53:26.000Z</time>
      </trkpt>
      <trkpt lat="42.79844" lon="-0.17565">
        <ele>2263</ele>
        <time>2024-12-05T11:53:51.000Z</time>
      </trkpt>
      <trkpt lat="42.79816" lon="-0.17548">
        <ele>2267</ele>
        <time>2024-12-05T11:54:15.000Z</time>
      </trkpt>
      <trkpt lat="42.79806" lon="-0.17533">
        <ele>2270</ele>
        <time>2024-12-05T11:54:40.000Z</time>
      </trkpt>
      <trkpt lat="42.79799" lon="-0.17533">
        <ele>2271</ele>
        <time>2024-12-05T11:55:04.000Z</time>
      </trkpt>
      <trkpt lat="42.79793" lon="-0.17537">
        <ele>2273</ele>
        <time>2024-12-05T11:55:29.000Z</time>
      </trkpt>
      <trkpt lat="42.7978" lon="-0.17529">
        <ele>2278</ele>
        <time>2024-12-05T11:55:53.000Z</time>
      </trkpt>
      <trkpt lat="42.7978" lon="-0.17522">
        <ele>2278</ele>
        <time>2024-12-05T11:56:18.000Z</time>
      </trkpt>
      <trkpt lat="42.79774" lon="-0.1752">
        <ele>2279</ele>
        <time>2024-12-05T11:56:42.000Z</time>
      </trkpt>
      <trkpt lat="42.79765" lon="-0.17525">
        <ele>2281</ele>
        <time>2024-12-05T11:57:07.000Z</time>
      </trkpt>
      <trkpt lat="42.79763" lon="-0.17537">
        <ele>2282</ele>
        <time>2024-12-05T11:57:31.000Z</time>
      </trkpt>
      <trkpt lat="42.7975" lon="-0.17548">
        <ele>2283</ele>
        <time>2024-12-05T11:57:56.000Z</time>
      </trkpt>
      <trkpt lat="42.79741" lon="-0.1755">
        <ele>2283</ele>
        <time>2024-12-05T11:58:20.000Z</time>
      </trkpt>
      <trkpt lat="42.79731" lon="-0.17546">
        <ele>2284</ele>
        <time>2024-12-05T11:58:45.000Z</time>
      </trkpt>
      <trkpt lat="42.79716" lon="-0.17527">
        <ele>2284</ele>
        <time>2024-12-05T11:59:09.000Z</time>
      </trkpt>
      <trkpt lat="42.79698" lon="-0.17513">
        <ele>2285</ele>
        <time>2024-12-05T11:59:34.000Z</time>
      </trkpt>
      <trkpt lat="42.79681" lon="-0.17499">
        <ele>2286</ele>
        <time>2024-12-05T11:59:59.000Z</time>
      </trkpt>
      <trkpt lat="42.79681" lon="-0.17494">
        <ele>2286</ele>
        <time>2024-12-05T12:00:23.000Z</time>
      </trkpt>
      <trkpt lat="42.79683" lon="-0.1749">
        <ele>2287</ele>
        <time>2024-12-05T12:00:48.000Z</time>
      </trkpt>
      <trkpt lat="42.79666" lon="-0.17469">
        <ele>2292</ele>
        <time>2024-12-05T12:01:13.000Z</time>
      </trkpt>
      <trkpt lat="42.79664" lon="-0.17434">
        <ele>2297</ele>
        <time>2024-12-05T12:01:38.000Z</time>
      </trkpt>
      <trkpt lat="42.79664" lon="-0.17434">
        <ele>2297</ele>
        <time>2024-12-05T12:02:02.000Z</time>
      </trkpt>
      <trkpt lat="42.79636" lon="-0.17419">
        <ele>2300</ele>
        <time>2024-12-05T12:02:27.000Z</time>
      </trkpt>
      <trkpt lat="42.79619" lon="-0.17402">
        <ele>2305</ele>
        <time>2024-12-05T12:02:52.000Z</time>
      </trkpt>
      <trkpt lat="42.79619" lon="-0.17402">
        <ele>2305</ele>
        <time>2024-12-05T12:03:17.000Z</time>
      </trkpt>
      <trkpt lat="42.79615" lon="-0.17402">
        <ele>2305</ele>
        <time>2024-12-05T12:03:41.000Z</time>
      </trkpt>
      <trkpt lat="42.79608" lon="-0.17372">
        <ele>2310</ele>
        <time>2024-12-05T12:04:06.000Z</time>
      </trkpt>
      <trkpt lat="42.796" lon="-0.17366">
        <ele>2310</ele>
        <time>2024-12-05T12:04:31.000Z</time>
      </trkpt>
      <trkpt lat="42.79589" lon="-0.17351">
        <ele>2313</ele>
        <time>2024-12-05T12:04:56.000Z</time>
      </trkpt>
      <trkpt lat="42.79587" lon="-0.17351">
        <ele>2313</ele>
        <time>2024-12-05T12:05:21.000Z</time>
      </trkpt>
      <trkpt lat="42.79574" lon="-0.17329">
        <ele>2316</ele>
        <time>2024-12-05T12:05:46.000Z</time>
      </trkpt>
      <trkpt lat="42.79565" lon="-0.17325">
        <ele>2317</ele>
        <time>2024-12-05T12:06:11.000Z</time>
      </trkpt>
      <trkpt lat="42.79557" lon="-0.17306">
        <ele>2321</ele>
        <time>2024-12-05T12:06:36.000Z</time>
      </trkpt>
      <trkpt lat="42.79542" lon="-0.17291">
        <ele>2325</ele>
        <time>2024-12-05T12:07:01.000Z</time>
      </trkpt>
      <trkpt lat="42.79522" lon="-0.17284">
        <ele>2332</ele>
        <time>2024-12-05T12:07:26.000Z</time>
      </trkpt>
      <trkpt lat="42.79512" lon="-0.17273">
        <ele>2336</ele>
        <time>2024-12-05T12:07:51.000Z</time>
      </trkpt>
      <trkpt lat="42.7951" lon="-0.17286">
        <ele>2334</ele>
        <time>2024-12-05T12:08:16.000Z</time>
      </trkpt>
      <trkpt lat="42.79503" lon="-0.17284">
        <ele>2337</ele>
        <time>2024-12-05T12:08:41.000Z</time>
      </trkpt>
      <trkpt lat="42.79484" lon="-0.17297">
        <ele>2342</ele>
        <time>2024-12-05T12:09:06.000Z</time>
      </trkpt>
      <trkpt lat="42.79471" lon="-0.17297">
        <ele>2346</ele>
        <time>2024-12-05T12:09:31.000Z</time>
      </trkpt>
      <trkpt lat="42.79456" lon="-0.1729">
        <ele>2350</ele>
        <time>2024-12-05T12:09:56.000Z</time>
      </trkpt>
      <trkpt lat="42.79441" lon="-0.17282">
        <ele>2353</ele>
        <time>2024-12-05T12:10:21.000Z</time>
      </trkpt>
      <trkpt lat="42.79415" lon="-0.17284">
        <ele>2357</ele>
        <time>2024-12-05T12:10:46.000Z</time>
      </trkpt>
      <trkpt lat="42.79389" lon="-0.17286">
        <ele>2360</ele>
        <time>2024-12-05T12:11:11.000Z</time>
      </trkpt>
      <trkpt lat="42.79381" lon="-0.17258">
        <ele>2364</ele>
        <time>2024-12-05T12:11:37.000Z</time>
      </trkpt>
      <trkpt lat="42.79374" lon="-0.17248">
        <ele>2366</ele>
        <time>2024-12-05T12:12:02.000Z</time>
      </trkpt>
      <trkpt lat="42.79374" lon="-0.17235">
        <ele>2366</ele>
        <time>2024-12-05T12:12:27.000Z</time>
      </trkpt>
      <trkpt lat="42.79351" lon="-0.17228">
        <ele>2379</ele>
        <time>2024-12-05T12:12:52.000Z</time>
      </trkpt>
      <trkpt lat="42.79329" lon="-0.17228">
        <ele>2385</ele>
        <time>2024-12-05T12:13:18.000Z</time>
      </trkpt>
      <trkpt lat="42.79329" lon="-0.1722">
        <ele>2388</ele>
        <time>2024-12-05T12:13:43.000Z</time>
      </trkpt>
      <trkpt lat="42.79336" lon="-0.17209">
        <ele>2390</ele>
        <time>2024-12-05T12:14:08.000Z</time>
      </trkpt>
      <trkpt lat="42.79321" lon="-0.17197">
        <ele>2397</ele>
        <time>2024-12-05T12:14:34.000Z</time>
      </trkpt>
      <trkpt lat="42.79306" lon="-0.17185">
        <ele>2405</ele>
        <time>2024-12-05T12:14:59.000Z</time>
      </trkpt>
      <trkpt lat="42.79304" lon="-0.17179">
        <ele>2408</ele>
        <time>2024-12-05T12:15:25.000Z</time>
      </trkpt>
      <trkpt lat="42.79299" lon="-0.17179">
        <ele>2410</ele>
        <time>2024-12-05T12:15:50.000Z</time>
      </trkpt>
      <trkpt lat="42.79295" lon="-0.17168">
        <ele>2412</ele>
        <time>2024-12-05T12:16:15.000Z</time>
      </trkpt>
      <trkpt lat="42.79284" lon="-0.1717">
        <ele>2414</ele>
        <time>2024-12-05T12:16:41.000Z</time>
      </trkpt>
      <trkpt lat="42.79269" lon="-0.17192">
        <ele>2423</ele>
        <time>2024-12-05T12:17:06.000Z</time>
      </trkpt>
      <trkpt lat="42.79265" lon="-0.17205">
        <ele>2425</ele>
        <time>2024-12-05T12:17:32.000Z</time>
      </trkpt>
      <trkpt lat="42.79265" lon="-0.17222">
        <ele>2426</ele>
        <time>2024-12-05T12:17:57.000Z</time>
      </trkpt>
      <trkpt lat="42.79256" lon="-0.17228">
        <ele>2430</ele>
        <time>2024-12-05T12:18:23.000Z</time>
      </trkpt>
      <trkpt lat="42.79246" lon="-0.17224">
        <ele>2434</ele>
        <time>2024-12-05T12:18:48.000Z</time>
      </trkpt>
      <trkpt lat="42.79228" lon="-0.17231">
        <ele>2442</ele>
        <time>2024-12-05T12:19:14.000Z</time>
      </trkpt>
      <trkpt lat="42.79207" lon="-0.17231">
        <ele>2452</ele>
        <time>2024-12-05T12:19:39.000Z</time>
      </trkpt>
      <trkpt lat="42.79196" lon="-0.17239">
        <ele>2457</ele>
        <time>2024-12-05T12:20:05.000Z</time>
      </trkpt>
      <trkpt lat="42.79186" lon="-0.17222">
        <ele>2465</ele>
        <time>2024-12-05T12:20:30.000Z</time>
      </trkpt>
      <trkpt lat="42.79173" lon="-0.1722">
        <ele>2470</ele>
        <time>2024-12-05T12:20:56.000Z</time>
      </trkpt>
      <trkpt lat="42.79171" lon="-0.17213">
        <ele>2473</ele>
        <time>2024-12-05T12:21:22.000Z</time>
      </trkpt>
      <trkpt lat="42.79164" lon="-0.17211">
        <ele>2475</ele>
        <time>2024-12-05T12:21:47.000Z</time>
      </trkpt>
      <trkpt lat="42.7916" lon="-0.17205">
        <ele>2479</ele>
        <time>2024-12-05T12:22:13.000Z</time>
      </trkpt>
      <trkpt lat="42.79153" lon="-0.17207">
        <ele>2482</ele>
        <time>2024-12-05T12:22:39.000Z</time>
      </trkpt>
      <trkpt lat="42.79147" lon="-0.17181">
        <ele>2488</ele>
        <time>2024-12-05T12:23:04.000Z</time>
      </trkpt>
      <trkpt lat="42.79143" lon="-0.17183">
        <ele>2491</ele>
        <time>2024-12-05T12:23:30.000Z</time>
      </trkpt>
      <trkpt lat="42.79138" lon="-0.17203">
        <ele>2491</ele>
        <time>2024-12-05T12:23:56.000Z</time>
      </trkpt>
      <trkpt lat="42.79128" lon="-0.1722">
        <ele>2495</ele>
        <time>2024-12-05T12:24:21.000Z</time>
      </trkpt>
      <trkpt lat="42.79106" lon="-0.17226">
        <ele>2501</ele>
        <time>2024-12-05T12:24:47.000Z</time>
      </trkpt>
      <trkpt lat="42.79082" lon="-0.17226">
        <ele>2507</ele>
        <time>2024-12-05T12:25:13.000Z</time>
      </trkpt>
      <trkpt lat="42.79058" lon="-0.17226">
        <ele>2516</ele>
        <time>2024-12-05T12:25:39.000Z</time>
      </trkpt>
      <trkpt lat="42.79033" lon="-0.17226">
        <ele>2525</ele>
        <time>2024-12-05T12:26:04.000Z</time>
      </trkpt>
      <trkpt lat="42.7902" lon="-0.17243">
        <ele>2524</ele>
        <time>2024-12-05T12:26:30.000Z</time>
      </trkpt>
      <trkpt lat="42.78992" lon="-0.1725">
        <ele>2523</ele>
        <time>2024-12-05T12:26:56.000Z</time>
      </trkpt>
      <trkpt lat="42.78967" lon="-0.17271">
        <ele>2516</ele>
        <time>2024-12-05T12:27:22.000Z</time>
      </trkpt>
      <trkpt lat="42.78945" lon="-0.17273">
        <ele>2517</ele>
        <time>2024-12-05T12:27:48.000Z</time>
      </trkpt>
      <trkpt lat="42.78924" lon="-0.17291">
        <ele>2514</ele>
        <time>2024-12-05T12:28:14.000Z</time>
      </trkpt>
      <trkpt lat="42.78906" lon="-0.17291">
        <ele>2518</ele>
        <time>2024-12-05T12:28:40.000Z</time>
      </trkpt>
      <trkpt lat="42.78887" lon="-0.17291">
        <ele>2523</ele>
        <time>2024-12-05T12:29:06.000Z</time>
      </trkpt>
      <trkpt lat="42.78887" lon="-0.17286">
        <ele>2524</ele>
        <time>2024-12-05T12:29:32.000Z</time>
      </trkpt>
      <trkpt lat="42.78881" lon="-0.17284">
        <ele>2526</ele>
        <time>2024-12-05T12:29:58.000Z</time>
      </trkpt>
      <trkpt lat="42.78872" lon="-0.17286">
        <ele>2526</ele>
        <time>2024-12-05T12:30:25.000Z</time>
      </trkpt>
      <trkpt lat="42.7887" lon="-0.17276">
        <ele>2529</ele>
        <time>2024-12-05T12:30:51.000Z</time>
      </trkpt>
      <trkpt lat="42.78855" lon="-0.17271">
        <ele>2525</ele>
        <time>2024-12-05T12:31:17.000Z</time>
      </trkpt>
      <trkpt lat="42.78851" lon="-0.17265">
        <ele>2523</ele>
        <time>2024-12-05T12:31:43.000Z</time>
      </trkpt>
      <trkpt lat="42.78857" lon="-0.17246">
        <ele>2527</ele>
        <time>2024-12-05T12:32:09.000Z</time>
      </trkpt>
      <trkpt lat="42.78853" lon="-0.17239">
        <ele>2526</ele>
        <time>2024-12-05T12:32:35.000Z</time>
      </trkpt>
      <trkpt lat="42.78842" lon="-0.17216">
        <ele>2524</ele>
        <time>2024-12-05T12:33:01.000Z</time>
      </trkpt>
      <trkpt lat="42.78832" lon="-0.17192">
        <ele>2523</ele>
        <time>2024-12-05T12:33:28.000Z</time>
      </trkpt>
      <trkpt lat="42.78814" lon="-0.17162">
        <ele>2520</ele>
        <time>2024-12-05T12:33:54.000Z</time>
      </trkpt>
      <trkpt lat="42.78804" lon="-0.17136">
        <ele>2523</ele>
        <time>2024-12-05T12:34:20.000Z</time>
      </trkpt>
      <trkpt lat="42.78799" lon="-0.17134">
        <ele>2520</ele>
        <time>2024-12-05T12:34:46.000Z</time>
      </trkpt>
      <trkpt lat="42.78786" lon="-0.17106">
        <ele>2523</ele>
        <time>2024-12-05T12:35:13.000Z</time>
      </trkpt>
      <trkpt lat="42.78774" lon="-0.17095">
        <ele>2517</ele>
        <time>2024-12-05T12:35:39.000Z</time>
      </trkpt>
      <trkpt lat="42.78771" lon="-0.17087">
        <ele>2514</ele>
        <time>2024-12-05T12:36:05.000Z</time>
      </trkpt>
      <trkpt lat="42.78774" lon="-0.17072">
        <ele>2515</ele>
        <time>2024-12-05T12:36:32.000Z</time>
      </trkpt>
      <trkpt lat="42.78773" lon="-0.17033">
        <ele>2502</ele>
        <time>2024-12-05T12:36:58.000Z</time>
      </trkpt>
      <trkpt lat="42.78771" lon="-0.16995">
        <ele>2494</ele>
        <time>2024-12-05T12:37:25.000Z</time>
      </trkpt>
      <trkpt lat="42.78767" lon="-0.16973">
        <ele>2483</ele>
        <time>2024-12-05T12:37:51.000Z</time>
      </trkpt>
      <trkpt lat="42.78774" lon="-0.16943">
        <ele>2474</ele>
        <time>2024-12-05T12:38:17.000Z</time>
      </trkpt>
      <trkpt lat="42.78774" lon="-0.16922">
        <ele>2471</ele>
        <time>2024-12-05T12:38:44.000Z</time>
      </trkpt>
      <trkpt lat="42.78782" lon="-0.16907">
        <ele>2474</ele>
        <time>2024-12-05T12:39:10.000Z</time>
      </trkpt>
      <trkpt lat="42.78786" lon="-0.16885">
        <ele>2475</ele>
        <time>2024-12-05T12:39:37.000Z</time>
      </trkpt>
      <trkpt lat="42.78797" lon="-0.16859">
        <ele>2477</ele>
        <time>2024-12-05T12:40:04.000Z</time>
      </trkpt>
      <trkpt lat="42.78804" lon="-0.16849">
        <ele>2476</ele>
        <time>2024-12-05T12:40:30.000Z</time>
      </trkpt>
      <trkpt lat="42.78808" lon="-0.16846">
        <ele>2478</ele>
        <time>2024-12-05T12:40:57.000Z</time>
      </trkpt>
      <trkpt lat="42.78819" lon="-0.16825">
        <ele>2474</ele>
        <time>2024-12-05T12:41:23.000Z</time>
      </trkpt>
      <trkpt lat="42.78814" lon="-0.16819">
        <ele>2469</ele>
        <time>2024-12-05T12:41:50.000Z</time>
      </trkpt>
      <trkpt lat="42.78819" lon="-0.16806">
        <ele>2467</ele>
        <time>2024-12-05T12:42:17.000Z</time>
      </trkpt>
      <trkpt lat="42.78838" lon="-0.1678">
        <ele>2462</ele>
        <time>2024-12-05T12:42:43.000Z</time>
      </trkpt>
      <trkpt lat="42.78865" lon="-0.1676">
        <ele>2467</ele>
        <time>2024-12-05T12:43:10.000Z</time>
      </trkpt>
      <trkpt lat="42.78892" lon="-0.16739">
        <ele>2467</ele>
        <time>2024-12-05T12:43:37.000Z</time>
      </trkpt>
      <trkpt lat="42.78902" lon="-0.16726">
        <ele>2466</ele>
        <time>2024-12-05T12:44:04.000Z</time>
      </trkpt>
      <trkpt lat="42.78909" lon="-0.16711">
        <ele>2462</ele>
        <time>2024-12-05T12:44:30.000Z</time>
      </trkpt>
      <trkpt lat="42.7892" lon="-0.16703">
        <ele>2464</ele>
        <time>2024-12-05T12:44:57.000Z</time>
      </trkpt>
      <trkpt lat="42.78933" lon="-0.16681">
        <ele>2463</ele>
        <time>2024-12-05T12:45:24.000Z</time>
      </trkpt>
      <trkpt lat="42.78947" lon="-0.16658">
        <ele>2465</ele>
        <time>2024-12-05T12:45:51.000Z</time>
      </trkpt>
      <trkpt lat="42.7896" lon="-0.16636">
        <ele>2461</ele>
        <time>2024-12-05T12:46:18.000Z</time>
      </trkpt>
      <trkpt lat="42.78982" lon="-0.16615">
        <ele>2462</ele>
        <time>2024-12-05T12:46:45.000Z</time>
      </trkpt>
      <trkpt lat="42.78996" lon="-0.16592">
        <ele>2457</ele>
        <time>2024-12-05T12:47:12.000Z</time>
      </trkpt>
      <trkpt lat="42.7901" lon="-0.16569">
        <ele>2456</ele>
        <time>2024-12-05T12:47:39.000Z</time>
      </trkpt>
      <trkpt lat="42.79025" lon="-0.16546">
        <ele>2456</ele>
        <time>2024-12-05T12:48:06.000Z</time>
      </trkpt>
      <trkpt lat="42.7904" lon="-0.16533">
        <ele>2454</ele>
        <time>2024-12-05T12:48:33.000Z</time>
      </trkpt>
      <trkpt lat="42.79044" lon="-0.1652">
        <ele>2453</ele>
        <time>2024-12-05T12:49:00.000Z</time>
      </trkpt>
      <trkpt lat="42.79061" lon="-0.16497">
        <ele>2455</ele>
        <time>2024-12-05T12:49:27.000Z</time>
      </trkpt>
      <trkpt lat="42.79067" lon="-0.16475">
        <ele>2452</ele>
        <time>2024-12-05T12:49:54.000Z</time>
      </trkpt>
      <trkpt lat="42.79072" lon="-0.16454">
        <ele>2445</ele>
        <time>2024-12-05T12:50:21.000Z</time>
      </trkpt>
      <trkpt lat="42.79093" lon="-0.16429">
        <ele>2447</ele>
        <time>2024-12-05T12:50:48.000Z</time>
      </trkpt>
      <trkpt lat="42.79113" lon="-0.16404">
        <ele>2449</ele>
        <time>2024-12-05T12:51:16.000Z</time>
      </trkpt>
      <trkpt lat="42.79134" lon="-0.16379">
        <ele>2451</ele>
        <time>2024-12-05T12:51:43.000Z</time>
      </trkpt>
      <trkpt lat="42.79151" lon="-0.16364">
        <ele>2453</ele>
        <time>2024-12-05T12:52:10.000Z</time>
      </trkpt>
      <trkpt lat="42.79166" lon="-0.16338">
        <ele>2458</ele>
        <time>2024-12-05T12:52:37.000Z</time>
      </trkpt>
      <trkpt lat="42.79179" lon="-0.16314">
        <ele>2459</ele>
        <time>2024-12-05T12:53:05.000Z</time>
      </trkpt>
      <trkpt lat="42.79183" lon="-0.16293">
        <ele>2459</ele>
        <time>2024-12-05T12:53:32.000Z</time>
      </trkpt>
      <trkpt lat="42.79179" lon="-0.16274">
        <ele>2453</ele>
        <time>2024-12-05T12:54:00.000Z</time>
      </trkpt>
      <trkpt lat="42.7919" lon="-0.16248">
        <ele>2463</ele>
        <time>2024-12-05T12:54:27.000Z</time>
      </trkpt>
      <trkpt lat="42.79188" lon="-0.1622">
        <ele>2456</ele>
        <time>2024-12-05T12:54:54.000Z</time>
      </trkpt>
      <trkpt lat="42.79194" lon="-0.16203">
        <ele>2464</ele>
        <time>2024-12-05T12:55:22.000Z</time>
      </trkpt>
      <trkpt lat="42.792" lon="-0.16167">
        <ele>2468</ele>
        <time>2024-12-05T12:55:49.000Z</time>
      </trkpt>
      <trkpt lat="42.79205" lon="-0.16132">
        <ele>2472</ele>
        <time>2024-12-05T12:56:17.000Z</time>
      </trkpt>
      <trkpt lat="42.79203" lon="-0.16115">
        <ele>2468</ele>
        <time>2024-12-05T12:56:44.000Z</time>
      </trkpt>
      <trkpt lat="42.79207" lon="-0.161">
        <ele>2472</ele>
        <time>2024-12-05T12:57:12.000Z</time>
      </trkpt>
      <trkpt lat="42.79198" lon="-0.16083">
        <ele>2472</ele>
        <time>2024-12-05T12:57:40.000Z</time>
      </trkpt>
      <trkpt lat="42.79191" lon="-0.16055">
        <ele>2471</ele>
        <time>2024-12-05T12:58:07.000Z</time>
      </trkpt>
      <trkpt lat="42.79184" lon="-0.16028">
        <ele>2469</ele>
        <time>2024-12-05T12:58:35.000Z</time>
      </trkpt>
      <trkpt lat="42.79177" lon="-0.16001">
        <ele>2472</ele>
        <time>2024-12-05T12:59:02.000Z</time>
      </trkpt>
      <trkpt lat="42.79171" lon="-0.15965">
        <ele>2474</ele>
        <time>2024-12-05T12:59:30.000Z</time>
      </trkpt>
      <trkpt lat="42.79164" lon="-0.15929">
        <ele>2479</ele>
        <time>2024-12-05T12:59:58.000Z</time>
      </trkpt>
      <trkpt lat="42.79158" lon="-0.15894">
        <ele>2480</ele>
        <time>2024-12-05T13:00:26.000Z</time>
      </trkpt>
      <trkpt lat="42.7914" lon="-0.15859">
        <ele>2484</ele>
        <time>2024-12-05T13:00:53.000Z</time>
      </trkpt>
      <trkpt lat="42.79122" lon="-0.15825">
        <ele>2491</ele>
        <time>2024-12-05T13:01:21.000Z</time>
      </trkpt>
      <trkpt lat="42.79105" lon="-0.15791">
        <ele>2498</ele>
        <time>2024-12-05T13:01:49.000Z</time>
      </trkpt>
      <trkpt lat="42.79087" lon="-0.15756">
        <ele>2508</ele>
        <time>2024-12-05T13:02:17.000Z</time>
      </trkpt>
      <trkpt lat="42.79064" lon="-0.15732">
        <ele>2513</ele>
        <time>2024-12-05T13:02:45.000Z</time>
      </trkpt>
      <trkpt lat="42.79042" lon="-0.15707">
        <ele>2518</ele>
        <time>2024-12-05T13:03:13.000Z</time>
      </trkpt>
      <trkpt lat="42.79042" lon="-0.15698">
        <ele>2523</ele>
        <time>2024-12-05T13:03:41.000Z</time>
      </trkpt>
      <trkpt lat="42.79035" lon="-0.15696">
        <ele>2526</ele>
        <time>2024-12-05T13:04:09.000Z</time>
      </trkpt>
      <trkpt lat="42.79035" lon="-0.15692">
        <ele>2528</ele>
        <time>2024-12-05T13:04:37.000Z</time>
      </trkpt>
      <trkpt lat="42.79023" lon="-0.15698">
        <ele>2529</ele>
        <time>2024-12-05T13:05:05.000Z</time>
      </trkpt>
      <trkpt lat="42.79012" lon="-0.15698">
        <ele>2533</ele>
        <time>2024-12-05T13:05:33.000Z</time>
      </trkpt>
      <trkpt lat="42.7901" lon="-0.15698">
        <ele>2534</ele>
        <time>2024-12-05T13:06:01.000Z</time>
      </trkpt>
      <trkpt lat="42.79012" lon="-0.15694">
        <ele>2534</ele>
        <time>2024-12-05T13:06:29.000Z</time>
      </trkpt>
      <trkpt lat="42.79001" lon="-0.15696">
        <ele>2537</ele>
        <time>2024-12-05T13:06:58.000Z</time>
      </trkpt>
      <trkpt lat="42.78995" lon="-0.15683">
        <ele>2547</ele>
        <time>2024-12-05T13:07:26.000Z</time>
      </trkpt>
      <trkpt lat="42.78999" lon="-0.15675">
        <ele>2549</ele>
        <time>2024-12-05T13:07:54.000Z</time>
      </trkpt>
      <trkpt lat="42.78997" lon="-0.15664">
        <ele>2551</ele>
        <time>2024-12-05T13:08:22.000Z</time>
      </trkpt>
      <trkpt lat="42.78992" lon="-0.15662">
        <ele>2553</ele>
        <time>2024-12-05T13:08:50.000Z</time>
      </trkpt>
      <trkpt lat="42.78992" lon="-0.15656">
        <ele>2556</ele>
        <time>2024-12-05T13:09:18.000Z</time>
      </trkpt>
      <trkpt lat="42.78988" lon="-0.15656">
        <ele>2557</ele>
        <time>2024-12-05T13:09:46.000Z</time>
      </trkpt>
      <trkpt lat="42.78977" lon="-0.15636">
        <ele>2569</ele>
        <time>2024-12-05T13:10:14.000Z</time>
      </trkpt>
      <trkpt lat="42.78956" lon="-0.15626">
        <ele>2576</ele>
        <time>2024-12-05T13:10:43.000Z</time>
      </trkpt>
      <trkpt lat="42.78937" lon="-0.156">
        <ele>2587</ele>
        <time>2024-12-05T13:11:11.000Z</time>
      </trkpt>
      <trkpt lat="42.78915" lon="-0.15583">
        <ele>2591</ele>
        <time>2024-12-05T13:11:39.000Z</time>
      </trkpt>
      <trkpt lat="42.78911" lon="-0.15568">
        <ele>2594</ele>
        <time>2024-12-05T13:12:07.000Z</time>
      </trkpt>
      <trkpt lat="42.78909" lon="-0.15546">
        <ele>2593</ele>
        <time>2024-12-05T13:12:36.000Z</time>
      </trkpt>
      <trkpt lat="42.78915" lon="-0.15527">
        <ele>2588</ele>
        <time>2024-12-05T13:13:04.000Z</time>
      </trkpt>
      <trkpt lat="42.78924" lon="-0.15516">
        <ele>2581</ele>
        <time>2024-12-05T13:13:32.000Z</time>
      </trkpt>
      <trkpt lat="42.7892" lon="-0.15508">
        <ele>2581</ele>
        <time>2024-12-05T13:14:01.000Z</time>
      </trkpt>
      <trkpt lat="42.7892" lon="-0.15503">
        <ele>2581</ele>
        <time>2024-12-05T13:14:29.000Z</time>
      </trkpt>
      <trkpt lat="42.78922" lon="-0.15503">
        <ele>2580</ele>
        <time>2024-12-05T13:14:58.000Z</time>
      </trkpt>
      <trkpt lat="42.78922" lon="-0.1549">
        <ele>2577</ele>
        <time>2024-12-05T13:15:26.000Z</time>
      </trkpt>
      <trkpt lat="42.78924" lon="-0.15486">
        <ele>2575</ele>
        <time>2024-12-05T13:15:54.000Z</time>
      </trkpt>
      <trkpt lat="42.78937" lon="-0.15488">
        <ele>2571</ele>
        <time>2024-12-05T13:16:23.000Z</time>
      </trkpt>
      <trkpt lat="42.78939" lon="-0.15469">
        <ele>2563</ele>
        <time>2024-12-05T13:16:51.000Z</time>
      </trkpt>
      <trkpt lat="42.78947" lon="-0.15458">
        <ele>2559</ele>
        <time>2024-12-05T13:17:19.000Z</time>
      </trkpt>
      <trkpt lat="42.78946" lon="-0.15437">
        <ele>2552</ele>
        <time>2024-12-05T13:17:48.000Z</time>
      </trkpt>
      <trkpt lat="42.78945" lon="-0.15415">
        <ele>2548</ele>
        <time>2024-12-05T13:18:16.000Z</time>
      </trkpt>
      <trkpt lat="42.78952" lon="-0.15405">
        <ele>2541</ele>
        <time>2024-12-05T13:18:45.000Z</time>
      </trkpt>
      <trkpt lat="42.78958" lon="-0.15366">
        <ele>2531</ele>
        <time>2024-12-05T13:19:13.000Z</time>
      </trkpt>
      <trkpt lat="42.78967" lon="-0.15353">
        <ele>2525</ele>
        <time>2024-12-05T13:19:42.000Z</time>
      </trkpt>
      <trkpt lat="42.78982" lon="-0.15323">
        <ele>2516</ele>
        <time>2024-12-05T13:20:11.000Z</time>
      </trkpt>
      <trkpt lat="42.7898" lon="-0.15304">
        <ele>2515</ele>
        <time>2024-12-05T13:20:39.000Z</time>
      </trkpt>
      <trkpt lat="42.78984" lon="-0.15299">
        <ele>2514</ele>
        <time>2024-12-05T13:21:08.000Z</time>
      </trkpt>
      <trkpt lat="42.78984" lon="-0.15293">
        <ele>2511</ele>
        <time>2024-12-05T13:21:36.000Z</time>
      </trkpt>
      <trkpt lat="42.78988" lon="-0.15291">
        <ele>2510</ele>
        <time>2024-12-05T13:22:05.000Z</time>
      </trkpt>
      <trkpt lat="42.78986" lon="-0.15286">
        <ele>2510</ele>
        <time>2024-12-05T13:22:34.000Z</time>
      </trkpt>
      <trkpt lat="42.7899" lon="-0.15284">
        <ele>2508</ele>
        <time>2024-12-05T13:23:02.000Z</time>
      </trkpt>
      <trkpt lat="42.78992" lon="-0.15271">
        <ele>2504</ele>
        <time>2024-12-05T13:23:31.000Z</time>
      </trkpt>
      <trkpt lat="42.79001" lon="-0.15254">
        <ele>2496</ele>
        <time>2024-12-05T13:24:00.000Z</time>
      </trkpt>
      <trkpt lat="42.79023" lon="-0.15224">
        <ele>2483</ele>
        <time>2024-12-05T13:24:28.000Z</time>
      </trkpt>
      <trkpt lat="42.79018" lon="-0.15205">
        <ele>2478</ele>
        <time>2024-12-05T13:24:57.000Z</time>
      </trkpt>
      <trkpt lat="42.79018" lon="-0.15173">
        <ele>2466</ele>
        <time>2024-12-05T13:25:26.000Z</time>
      </trkpt>
      <trkpt lat="42.79027" lon="-0.15175">
        <ele>2466</ele>
        <time>2024-12-05T13:25:54.000Z</time>
      </trkpt>
      <trkpt lat="42.79027" lon="-0.15164">
        <ele>2463</ele>
        <time>2024-12-05T13:26:23.000Z</time>
      </trkpt>
      <trkpt lat="42.79035" lon="-0.15166">
        <ele>2463</ele>
        <time>2024-12-05T13:26:52.000Z</time>
      </trkpt>
      <trkpt lat="42.79044" lon="-0.15156">
        <ele>2459</ele>
        <time>2024-12-05T13:27:21.000Z</time>
      </trkpt>
      <trkpt lat="42.79046" lon="-0.15143">
        <ele>2454</ele>
        <time>2024-12-05T13:27:50.000Z</time>
      </trkpt>
      <trkpt lat="42.79046" lon="-0.15128">
        <ele>2451</ele>
        <time>2024-12-05T13:28:18.000Z</time>
      </trkpt>
      <trkpt lat="42.79053" lon="-0.15119">
        <ele>2448</ele>
        <time>2024-12-05T13:28:47.000Z</time>
      </trkpt>
      <trkpt lat="42.79048" lon="-0.15111">
        <ele>2445</ele>
        <time>2024-12-05T13:29:16.000Z</time>
      </trkpt>
      <trkpt lat="42.79068" lon="-0.15096">
        <ele>2439</ele>
        <time>2024-12-05T13:29:45.000Z</time>
      </trkpt>
      <trkpt lat="42.79074" lon="-0.15081">
        <ele>2435</ele>
        <time>2024-12-05T13:30:14.000Z</time>
      </trkpt>
      <trkpt lat="42.79076" lon="-0.1507">
        <ele>2431</ele>
        <time>2024-12-05T13:30:43.000Z</time>
      </trkpt>
      <trkpt lat="42.79059" lon="-0.1507">
        <ele>2424</ele>
        <time>2024-12-05T13:31:12.000Z</time>
      </trkpt>
      <trkpt lat="42.79064" lon="-0.15042">
        <ele>2416</ele>
        <time>2024-12-05T13:31:41.000Z</time>
      </trkpt>
      <trkpt lat="42.79069" lon="-0.15014">
        <ele>2411</ele>
        <time>2024-12-05T13:32:10.000Z</time>
      </trkpt>
      <trkpt lat="42.79074" lon="-0.14986">
        <ele>2402</ele>
        <time>2024-12-05T13:32:39.000Z</time>
      </trkpt>
      <trkpt lat="42.79075" lon="-0.14962">
        <ele>2399</ele>
        <time>2024-12-05T13:33:08.000Z</time>
      </trkpt>
      <trkpt lat="42.79076" lon="-0.14939">
        <ele>2395</ele>
        <time>2024-12-05T13:33:37.000Z</time>
      </trkpt>
      <trkpt lat="42.79062" lon="-0.1495">
        <ele>2385</ele>
        <time>2024-12-05T13:34:06.000Z</time>
      </trkpt>
      <trkpt lat="42.79048" lon="-0.1496">
        <ele>2380</ele>
        <time>2024-12-05T13:34:35.000Z</time>
      </trkpt>
      <trkpt lat="42.79042" lon="-0.14956">
        <ele>2376</ele>
        <time>2024-12-05T13:35:04.000Z</time>
      </trkpt>
      <trkpt lat="42.79026" lon="-0.14955">
        <ele>2369</ele>
        <time>2024-12-05T13:35:33.000Z</time>
      </trkpt>
      <trkpt lat="42.7901" lon="-0.14954">
        <ele>2364</ele>
        <time>2024-12-05T13:36:02.000Z</time>
      </trkpt>
      <trkpt lat="42.7901" lon="-0.14932">
        <ele>2354</ele>
        <time>2024-12-05T13:36:32.000Z</time>
      </trkpt>
      <trkpt lat="42.78995" lon="-0.14935">
        <ele>2352</ele>
        <time>2024-12-05T13:37:01.000Z</time>
      </trkpt>
      <trkpt lat="42.78988" lon="-0.14932">
        <ele>2351</ele>
        <time>2024-12-05T13:37:30.000Z</time>
      </trkpt>
      <trkpt lat="42.78986" lon="-0.14915">
        <ele>2343</ele>
        <time>2024-12-05T13:37:59.000Z</time>
      </trkpt>
      <trkpt lat="42.78973" lon="-0.14894">
        <ele>2338</ele>
        <time>2024-12-05T13:38:28.000Z</time>
      </trkpt>
      <trkpt lat="42.78969" lon="-0.14881">
        <ele>2334</ele>
        <time>2024-12-05T13:38:58.000Z</time>
      </trkpt>
      <trkpt lat="42.78956" lon="-0.14877">
        <ele>2337</ele>
        <time>2024-12-05T13:39:27.000Z</time>
      </trkpt>
      <trkpt lat="42.78945" lon="-0.14849">
        <ele>2334</ele>
        <time>2024-12-05T13:39:56.000Z</time>
      </trkpt>
      <trkpt lat="42.78945" lon="-0.14838">
        <ele>2332</ele>
        <time>2024-12-05T13:40:26.000Z</time>
      </trkpt>
      <trkpt lat="42.78945" lon="-0.14802">
        <ele>2323</ele>
        <time>2024-12-05T13:40:55.000Z</time>
      </trkpt>
      <trkpt lat="42.78956" lon="-0.14795">
        <ele>2318</ele>
        <time>2024-12-05T13:41:24.000Z</time>
      </trkpt>
      <trkpt lat="42.78941" lon="-0.1478">
        <ele>2313</ele>
        <time>2024-12-05T13:41:54.000Z</time>
      </trkpt>
      <trkpt lat="42.78937" lon="-0.1478">
        <ele>2314</ele>
        <time>2024-12-05T13:42:23.000Z</time>
      </trkpt>
      <trkpt lat="42.78928" lon="-0.14763">
        <ele>2309</ele>
        <time>2024-12-05T13:42:53.000Z</time>
      </trkpt>
      <trkpt lat="42.78917" lon="-0.14754">
        <ele>2305</ele>
        <time>2024-12-05T13:43:22.000Z</time>
      </trkpt>
      <trkpt lat="42.78922" lon="-0.14744">
        <ele>2297</ele>
        <time>2024-12-05T13:43:52.000Z</time>
      </trkpt>
      <trkpt lat="42.78911" lon="-0.14735">
        <ele>2295</ele>
        <time>2024-12-05T13:44:21.000Z</time>
      </trkpt>
      <trkpt lat="42.78902" lon="-0.14716">
        <ele>2287</ele>
        <time>2024-12-05T13:44:51.000Z</time>
      </trkpt>
      <trkpt lat="42.78887" lon="-0.14701">
        <ele>2287</ele>
        <time>2024-12-05T13:45:20.000Z</time>
      </trkpt>
      <trkpt lat="42.78887" lon="-0.14694">
        <ele>2285</ele>
        <time>2024-12-05T13:45:50.000Z</time>
      </trkpt>
      <trkpt lat="42.78894" lon="-0.14684">
        <ele>2279</ele>
        <time>2024-12-05T13:46:19.000Z</time>
      </trkpt>
      <trkpt lat="42.78922" lon="-0.14684">
        <ele>2270</ele>
        <time>2024-12-05T13:46:49.000Z</time>
      </trkpt>
      <trkpt lat="42.78939" lon="-0.1469">
        <ele>2267</ele>
        <time>2024-12-05T13:47:18.000Z</time>
      </trkpt>
      <trkpt lat="42.78956" lon="-0.14679">
        <ele>2257</ele>
        <time>2024-12-05T13:47:48.000Z</time>
      </trkpt>
      <trkpt lat="42.7896" lon="-0.14673">
        <ele>2253</ele>
        <time>2024-12-05T13:48:18.000Z</time>
      </trkpt>
      <trkpt lat="42.78952" lon="-0.14662">
        <ele>2247</ele>
        <time>2024-12-05T13:48:47.000Z</time>
      </trkpt>
      <trkpt lat="42.78971" lon="-0.14649">
        <ele>2238</ele>
        <time>2024-12-05T13:49:17.000Z</time>
      </trkpt>
      <trkpt lat="42.78959" lon="-0.1463">
        <ele>2231</ele>
        <time>2024-12-05T13:49:47.000Z</time>
      </trkpt>
      <trkpt lat="42.78947" lon="-0.14611">
        <ele>2228</ele>
        <time>2024-12-05T13:50:16.000Z</time>
      </trkpt>
      <trkpt lat="42.78954" lon="-0.14604">
        <ele>2223</ele>
        <time>2024-12-05T13:50:46.000Z</time>
      </trkpt>
      <trkpt lat="42.7895" lon="-0.14598">
        <ele>2221</ele>
        <time>2024-12-05T13:51:16.000Z</time>
      </trkpt>
      <trkpt lat="42.78952" lon="-0.14593">
        <ele>2219</ele>
        <time>2024-12-05T13:51:46.000Z</time>
      </trkpt>
      <trkpt lat="42.7895" lon="-0.14587">
        <ele>2218</ele>
        <time>2024-12-05T13:52:15.000Z</time>
      </trkpt>
      <trkpt lat="42.78952" lon="-0.14585">
        <ele>2216</ele>
        <time>2024-12-05T13:52:45.000Z</time>
      </trkpt>
      <trkpt lat="42.78965" lon="-0.14574">
        <ele>2209</ele>
        <time>2024-12-05T13:53:15.000Z</time>
      </trkpt>
      <trkpt lat="42.78962" lon="-0.14568">
        <ele>2208</ele>
        <time>2024-12-05T13:53:45.000Z</time>
      </trkpt>
      <trkpt lat="42.78969" lon="-0.1455">
        <ele>2204</ele>
        <time>2024-12-05T13:54:14.000Z</time>
      </trkpt>
      <trkpt lat="42.78975" lon="-0.1455">
        <ele>2205</ele>
        <time>2024-12-05T13:54:44.000Z</time>
      </trkpt>
      <trkpt lat="42.78982" lon="-0.14538">
        <ele>2203</ele>
        <time>2024-12-05T13:55:14.000Z</time>
      </trkpt>
      <trkpt lat="42.78997" lon="-0.14529">
        <ele>2200</ele>
        <time>2024-12-05T13:55:44.000Z</time>
      </trkpt>
      <trkpt lat="42.79001" lon="-0.1452">
        <ele>2198</ele>
        <time>2024-12-05T13:56:14.000Z</time>
      </trkpt>
      <trkpt lat="42.79016" lon="-0.14516">
        <ele>2193</ele>
        <time>2024-12-05T13:56:44.000Z</time>
      </trkpt>
      <trkpt lat="42.79027" lon="-0.14501">
        <ele>2186</ele>
        <time>2024-12-05T13:57:14.000Z</time>
      </trkpt>
      <trkpt lat="42.7902" lon="-0.14495">
        <ele>2184</ele>
        <time>2024-12-05T13:57:44.000Z</time>
      </trkpt>
      <trkpt lat="42.79023" lon="-0.14478">
        <ele>2176</ele>
        <time>2024-12-05T13:58:13.000Z</time>
      </trkpt>
      <trkpt lat="42.79014" lon="-0.14469">
        <ele>2173</ele>
        <time>2024-12-05T13:58:43.000Z</time>
      </trkpt>
      <trkpt lat="42.79016" lon="-0.14454">
        <ele>2168</ele>
        <time>2024-12-05T13:59:13.000Z</time>
      </trkpt>
      <trkpt lat="42.79016" lon="-0.1445">
        <ele>2167</ele>
        <time>2024-12-05T13:59:43.000Z</time>
      </trkpt>
      <trkpt lat="42.79028" lon="-0.14413">
        <ele>2158</ele>
        <time>2024-12-05T14:00:13.000Z</time>
      </trkpt>
      <trkpt lat="42.7904" lon="-0.14377">
        <ele>2151</ele>
        <time>2024-12-05T14:00:43.000Z</time>
      </trkpt>
      <trkpt lat="42.79068" lon="-0.1437">
        <ele>2150</ele>
        <time>2024-12-05T14:01:13.000Z</time>
      </trkpt>
      <trkpt lat="42.79097" lon="-0.14364">
        <ele>2148</ele>
        <time>2024-12-05T14:01:44.000Z</time>
      </trkpt>
      <trkpt lat="42.79126" lon="-0.14357">
        <ele>2147</ele>
        <time>2024-12-05T14:02:14.000Z</time>
      </trkpt>
      <trkpt lat="42.79142" lon="-0.1435">
        <ele>2147</ele>
        <time>2024-12-05T14:02:44.000Z</time>
      </trkpt>
      <trkpt lat="42.79158" lon="-0.14342">
        <ele>2147</ele>
        <time>2024-12-05T14:03:14.000Z</time>
      </trkpt>
      <trkpt lat="42.79175" lon="-0.14339">
        <ele>2146</ele>
        <time>2024-12-05T14:03:44.000Z</time>
      </trkpt>
      <trkpt lat="42.79192" lon="-0.14336">
        <ele>2145</ele>
        <time>2024-12-05T14:04:15.000Z</time>
      </trkpt>
      <trkpt lat="42.79198" lon="-0.14327">
        <ele>2146</ele>
        <time>2024-12-05T14:04:45.000Z</time>
      </trkpt>
      <trkpt lat="42.79213" lon="-0.14323">
        <ele>2145</ele>
        <time>2024-12-05T14:05:15.000Z</time>
      </trkpt>
      <trkpt lat="42.79222" lon="-0.14306">
        <ele>2145</ele>
        <time>2024-12-05T14:05:45.000Z</time>
      </trkpt>
      <trkpt lat="42.79238" lon="-0.14287">
        <ele>2146</ele>
        <time>2024-12-05T14:06:16.000Z</time>
      </trkpt>
      <trkpt lat="42.79254" lon="-0.14267">
        <ele>2145</ele>
        <time>2024-12-05T14:06:46.000Z</time>
      </trkpt>
      <trkpt lat="42.79269" lon="-0.14269">
        <ele>2145</ele>
        <time>2024-12-05T14:07:17.000Z</time>
      </trkpt>
      <trkpt lat="42.79278" lon="-0.14263">
        <ele>2143</ele>
        <time>2024-12-05T14:07:47.000Z</time>
      </trkpt>
      <trkpt lat="42.79295" lon="-0.14272">
        <ele>2143</ele>
        <time>2024-12-05T14:08:17.000Z</time>
      </trkpt>
      <trkpt lat="42.79318" lon="-0.14244">
        <ele>2143</ele>
        <time>2024-12-05T14:08:48.000Z</time>
      </trkpt>
      <trkpt lat="42.7934" lon="-0.14216">
        <ele>2142</ele>
        <time>2024-12-05T14:09:18.000Z</time>
      </trkpt>
      <trkpt lat="42.79342" lon="-0.14203">
        <ele>2141</ele>
        <time>2024-12-05T14:09:49.000Z</time>
      </trkpt>
      <trkpt lat="42.79336" lon="-0.14192">
        <ele>2141</ele>
        <time>2024-12-05T14:10:19.000Z</time>
      </trkpt>
      <trkpt lat="42.79327" lon="-0.14194">
        <ele>2141</ele>
        <time>2024-12-05T14:10:50.000Z</time>
      </trkpt>
      <trkpt lat="42.79301" lon="-0.14178">
        <ele>2142</ele>
        <time>2024-12-05T14:11:20.000Z</time>
      </trkpt>
      <trkpt lat="42.79276" lon="-0.14162">
        <ele>2145</ele>
        <time>2024-12-05T14:11:51.000Z</time>
      </trkpt>
      <trkpt lat="42.79267" lon="-0.14126">
        <ele>2146</ele>
        <time>2024-12-05T14:12:22.000Z</time>
      </trkpt>
      <trkpt lat="42.79274" lon="-0.14098">
        <ele>2151</ele>
        <time>2024-12-05T14:12:52.000Z</time>
      </trkpt>
      <trkpt lat="42.79265" lon="-0.14083">
        <ele>2150</ele>
        <time>2024-12-05T14:13:23.000Z</time>
      </trkpt>
      <trkpt lat="42.79259" lon="-0.14055">
        <ele>2151</ele>
        <time>2024-12-05T14:13:54.000Z</time>
      </trkpt>
      <trkpt lat="42.79242" lon="-0.14036">
        <ele>2159</ele>
        <time>2024-12-05T14:14:25.000Z</time>
      </trkpt>
      <trkpt lat="42.79226" lon="-0.14016">
        <ele>2163</ele>
        <time>2024-12-05T14:14:55.000Z</time>
      </trkpt>
      <trkpt lat="42.79202" lon="-0.13994">
        <ele>2168</ele>
        <time>2024-12-05T14:15:26.000Z</time>
      </trkpt>
      <trkpt lat="42.79177" lon="-0.13973">
        <ele>2174</ele>
        <time>2024-12-05T14:15:57.000Z</time>
      </trkpt>
      <trkpt lat="42.79152" lon="-0.13951">
        <ele>2180</ele>
        <time>2024-12-05T14:16:28.000Z</time>
      </trkpt>
      <trkpt lat="42.79128" lon="-0.13929">
        <ele>2186</ele>
        <time>2024-12-05T14:16:59.000Z</time>
      </trkpt>
      <trkpt lat="42.79103" lon="-0.13907">
        <ele>2192</ele>
        <time>2024-12-05T14:17:30.000Z</time>
      </trkpt>
      <trkpt lat="42.79078" lon="-0.13885">
        <ele>2197</ele>
        <time>2024-12-05T14:18:01.000Z</time>
      </trkpt>
      <trkpt lat="42.79065" lon="-0.13885">
        <ele>2204</ele>
        <time>2024-12-05T14:18:32.000Z</time>
      </trkpt>
      <trkpt lat="42.79055" lon="-0.13896">
        <ele>2202</ele>
        <time>2024-12-05T14:19:03.000Z</time>
      </trkpt>
      <trkpt lat="42.79046" lon="-0.13898">
        <ele>2202</ele>
        <time>2024-12-05T14:19:34.000Z</time>
      </trkpt>
      <trkpt lat="42.79025" lon="-0.13894">
        <ele>2207</ele>
        <time>2024-12-05T14:20:05.000Z</time>
      </trkpt>
      <trkpt lat="42.7901" lon="-0.13885">
        <ele>2208</ele>
        <time>2024-12-05T14:20:36.000Z</time>
      </trkpt>
      <trkpt lat="42.78992" lon="-0.13881">
        <ele>2209</ele>
        <time>2024-12-05T14:21:07.000Z</time>
      </trkpt>
      <trkpt lat="42.79003" lon="-0.13877">
        <ele>2208</ele>
        <time>2024-12-05T14:21:39.000Z</time>
      </trkpt>
      <trkpt lat="42.78997" lon="-0.1387">
        <ele>2213</ele>
        <time>2024-12-05T14:22:10.000Z</time>
      </trkpt>
      <trkpt lat="42.7898" lon="-0.13862">
        <ele>2218</ele>
        <time>2024-12-05T14:22:41.000Z</time>
      </trkpt>
      <trkpt lat="42.78962" lon="-0.13853">
        <ele>2222</ele>
        <time>2024-12-05T14:23:12.000Z</time>
      </trkpt>
      <trkpt lat="42.78958" lon="-0.13842">
        <ele>2225</ele>
        <time>2024-12-05T14:23:43.000Z</time>
      </trkpt>
      <trkpt lat="42.78967" lon="-0.13845">
        <ele>2225</ele>
        <time>2024-12-05T14:24:15.000Z</time>
      </trkpt>
      <trkpt lat="42.7898" lon="-0.1384">
        <ele>2226</ele>
        <time>2024-12-05T14:24:46.000Z</time>
      </trkpt>
      <trkpt lat="42.78958" lon="-0.13817">
        <ele>2234</ele>
        <time>2024-12-05T14:25:17.000Z</time>
      </trkpt>
      <trkpt lat="42.78937" lon="-0.13809">
        <ele>2237</ele>
        <time>2024-12-05T14:25:49.000Z</time>
      </trkpt>
      <trkpt lat="42.78915" lon="-0.13802">
        <ele>2245</ele>
        <time>2024-12-05T14:26:20.000Z</time>
      </trkpt>
      <trkpt lat="42.78898" lon="-0.13804">
        <ele>2246</ele>
        <time>2024-12-05T14:26:51.000Z</time>
      </trkpt>
      <trkpt lat="42.78887" lon="-0.13799">
        <ele>2251</ele>
        <time>2024-12-05T14:27:23.000Z</time>
      </trkpt>
      <trkpt lat="42.7887" lon="-0.13804">
        <ele>2253</ele>
        <time>2024-12-05T14:27:54.000Z</time>
      </trkpt>
      <trkpt lat="42.78853" lon="-0.13808">
        <ele>2253</ele>
        <time>2024-12-05T14:28:25.000Z</time>
      </trkpt>
      <trkpt lat="42.78827" lon="-0.13797">
        <ele>2255</ele>
        <time>2024-12-05T14:28:57.000Z</time>
      </trkpt>
      <trkpt lat="42.78827" lon="-0.13791">
        <ele>2256</ele>
        <time>2024-12-05T14:29:28.000Z</time>
      </trkpt>
      <trkpt lat="42.78812" lon="-0.13765">
        <ele>2263</ele>
        <time>2024-12-05T14:30:00.000Z</time>
      </trkpt>
      <trkpt lat="42.78825" lon="-0.13744">
        <ele>2269</ele>
        <time>2024-12-05T14:30:31.000Z</time>
      </trkpt>
      <trkpt lat="42.78849" lon="-0.13729">
        <ele>2273</ele>
        <time>2024-12-05T14:31:03.000Z</time>
      </trkpt>
      <trkpt lat="42.78874" lon="-0.13722">
        <ele>2280</ele>
        <time>2024-12-05T14:31:35.000Z</time>
      </trkpt>
      <trkpt lat="42.78899" lon="-0.13716">
        <ele>2284</ele>
        <time>2024-12-05T14:32:06.000Z</time>
      </trkpt>
      <trkpt lat="42.78924" lon="-0.13709">
        <ele>2287</ele>
        <time>2024-12-05T14:32:38.000Z</time>
      </trkpt>
      <trkpt lat="42.78947" lon="-0.13701">
        <ele>2287</ele>
        <time>2024-12-05T14:33:10.000Z</time>
      </trkpt>
      <trkpt lat="42.78956" lon="-0.13684">
        <ele>2292</ele>
        <time>2024-12-05T14:33:41.000Z</time>
      </trkpt>
      <trkpt lat="42.78965" lon="-0.13681">
        <ele>2293</ele>
        <time>2024-12-05T14:34:13.000Z</time>
      </trkpt>
      <trkpt lat="42.78984" lon="-0.13686">
        <ele>2294</ele>
        <time>2024-12-05T14:34:45.000Z</time>
      </trkpt>
      <trkpt lat="42.78999" lon="-0.13677">
        <ele>2298</ele>
        <time>2024-12-05T14:35:17.000Z</time>
      </trkpt>
      <trkpt lat="42.7902" lon="-0.13669">
        <ele>2304</ele>
        <time>2024-12-05T14:35:49.000Z</time>
      </trkpt>
      <trkpt lat="42.79003" lon="-0.13645">
        <ele>2308</ele>
        <time>2024-12-05T14:36:20.000Z</time>
      </trkpt>
      <trkpt lat="42.79031" lon="-0.13639">
        <ele>2319</ele>
        <time>2024-12-05T14:36:52.000Z</time>
      </trkpt>
      <trkpt lat="42.79023" lon="-0.13628">
        <ele>2323</ele>
        <time>2024-12-05T14:37:24.000Z</time>
      </trkpt>
      <trkpt lat="42.79014" lon="-0.13626">
        <ele>2322</ele>
        <time>2024-12-05T14:37:56.000Z</time>
      </trkpt>
      <trkpt lat="42.79003" lon="-0.13615">
        <ele>2325</ele>
        <time>2024-12-05T14:38:28.000Z</time>
      </trkpt>
      <trkpt lat="42.79019" lon="-0.13612">
        <ele>2328</ele>
        <time>2024-12-05T14:39:00.000Z</time>
      </trkpt>
      <trkpt lat="42.79035" lon="-0.13609">
        <ele>2331</ele>
        <time>2024-12-05T14:39:32.000Z</time>
      </trkpt>
      <trkpt lat="42.79033" lon="-0.136">
        <ele>2336</ele>
        <time>2024-12-05T14:40:04.000Z</time>
      </trkpt>
      <trkpt lat="42.7904" lon="-0.13598">
        <ele>2337</ele>
        <time>2024-12-05T14:40:36.000Z</time>
      </trkpt>
      <trkpt lat="42.79033" lon="-0.13589">
        <ele>2342</ele>
        <time>2024-12-05T14:41:08.000Z</time>
      </trkpt>
      <trkpt lat="42.79053" lon="-0.13596">
        <ele>2339</ele>
        <time>2024-12-05T14:41:40.000Z</time>
      </trkpt>
      <trkpt lat="42.79068" lon="-0.13587">
        <ele>2344</ele>
        <time>2024-12-05T14:42:12.000Z</time>
      </trkpt>
      <trkpt lat="42.79057" lon="-0.13585">
        <ele>2345</ele>
        <time>2024-12-05T14:42:44.000Z</time>
      </trkpt>
      <trkpt lat="42.79048" lon="-0.13566">
        <ele>2351</ele>
        <time>2024-12-05T14:43:16.000Z</time>
      </trkpt>
      <trkpt lat="42.79038" lon="-0.13559">
        <ele>2354</ele>
        <time>2024-12-05T14:43:48.000Z</time>
      </trkpt>
      <trkpt lat="42.79063" lon="-0.13546">
        <ele>2365</ele>
        <time>2024-12-05T14:44:20.000Z</time>
      </trkpt>
      <trkpt lat="42.79035" lon="-0.13531">
        <ele>2369</ele>
        <time>2024-12-05T14:44:53.000Z</time>
      </trkpt>
      <trkpt lat="42.79007" lon="-0.13516">
        <ele>2378</ele>
        <time>2024-12-05T14:45:25.000Z</time>
      </trkpt>
      <trkpt lat="42.78992" lon="-0.13521">
        <ele>2377</ele>
        <time>2024-12-05T14:45:57.000Z</time>
      </trkpt>
      <trkpt lat="42.78982" lon="-0.1351">
        <ele>2379</ele>
        <time>2024-12-05T14:46:29.000Z</time>
      </trkpt>
      <trkpt lat="42.78971" lon="-0.13503">
        <ele>2381</ele>
        <time>2024-12-05T14:47:02.000Z</time>
      </trkpt>
      <trkpt lat="42.78984" lon="-0.13497">
        <ele>2384</ele>
        <time>2024-12-05T14:47:34.000Z</time>
      </trkpt>
      <trkpt lat="42.79012" lon="-0.13478">
        <ele>2392</ele>
        <time>2024-12-05T14:48:06.000Z</time>
      </trkpt>
      <trkpt lat="42.79027" lon="-0.13471">
        <ele>2395</ele>
        <time>2024-12-05T14:48:39.000Z</time>
      </trkpt>
      <trkpt lat="42.79055" lon="-0.13469">
        <ele>2395</ele>
        <time>2024-12-05T14:49:11.000Z</time>
      </trkpt>
      <trkpt lat="42.79059" lon="-0.13465">
        <ele>2397</ele>
        <time>2024-12-05T14:49:43.000Z</time>
      </trkpt>
      <trkpt lat="42.79059" lon="-0.13456">
        <ele>2398</ele>
        <time>2024-12-05T14:50:16.000Z</time>
      </trkpt>
      <trkpt lat="42.7904" lon="-0.13445">
        <ele>2400</ele>
        <time>2024-12-05T14:50:48.000Z</time>
      </trkpt>
      <trkpt lat="42.79018" lon="-0.13441">
        <ele>2403</ele>
        <time>2024-12-05T14:51:21.000Z</time>
      </trkpt>
      <trkpt lat="42.79025" lon="-0.13422">
        <ele>2406</ele>
        <time>2024-12-05T14:51:53.000Z</time>
      </trkpt>
      <trkpt lat="42.79047" lon="-0.13399">
        <ele>2410</ele>
        <time>2024-12-05T14:52:26.000Z</time>
      </trkpt>
      <trkpt lat="42.7907" lon="-0.13377">
        <ele>2416</ele>
        <time>2024-12-05T14:52:58.000Z</time>
      </trkpt>
      <trkpt lat="42.79055" lon="-0.13369">
        <ele>2420</ele>
        <time>2024-12-05T14:53:31.000Z</time>
      </trkpt>
      <trkpt lat="42.7904" lon="-0.13362">
        <ele>2426</ele>
        <time>2024-12-05T14:54:04.000Z</time>
      </trkpt>
      <trkpt lat="42.79025" lon="-0.1336">
        <ele>2427</ele>
        <time>2024-12-05T14:54:36.000Z</time>
      </trkpt>
      <trkpt lat="42.79027" lon="-0.13355">
        <ele>2428</ele>
        <time>2024-12-05T14:55:09.000Z</time>
      </trkpt>
      <trkpt lat="42.79042" lon="-0.13342">
        <ele>2432</ele>
        <time>2024-12-05T14:55:41.000Z</time>
      </trkpt>
      <trkpt lat="42.79057" lon="-0.1333">
        <ele>2434</ele>
        <time>2024-12-05T14:56:14.000Z</time>
      </trkpt>
      <trkpt lat="42.79068" lon="-0.1331">
        <ele>2440</ele>
        <time>2024-12-05T14:56:47.000Z</time>
      </trkpt>
      <trkpt lat="42.7905" lon="-0.13306">
        <ele>2447</ele>
        <time>2024-12-05T14:57:20.000Z</time>
      </trkpt>
      <trkpt lat="42.79044" lon="-0.13304">
        <ele>2450</ele>
        <time>2024-12-05T14:57:52.000Z</time>
      </trkpt>
      <trkpt lat="42.79038" lon="-0.13308">
        <ele>2449</ele>
        <time>2024-12-05T14:58:25.000Z</time>
      </trkpt>
      <trkpt lat="42.79013" lon="-0.13308">
        <ele>2456</ele>
        <time>2024-12-05T14:58:58.000Z</time>
      </trkpt>
      <trkpt lat="42.78988" lon="-0.13308">
        <ele>2464</ele>
        <time>2024-12-05T14:59:31.000Z</time>
      </trkpt>
      <trkpt lat="42.78999" lon="-0.13288">
        <ele>2466</ele>
        <time>2024-12-05T15:00:03.000Z</time>
      </trkpt>
      <trkpt lat="42.7901" lon="-0.13267">
        <ele>2467</ele>
        <time>2024-12-05T15:00:36.000Z</time>
      </trkpt>
      <trkpt lat="42.79007" lon="-0.13259">
        <ele>2469</ele>
        <time>2024-12-05T15:01:09.000Z</time>
      </trkpt>
      <trkpt lat="42.78999" lon="-0.13265">
        <ele>2470</ele>
        <time>2024-12-05T15:01:42.000Z</time>
      </trkpt>
      <trkpt lat="42.78992" lon="-0.13261">
        <ele>2472</ele>
        <time>2024-12-05T15:02:15.000Z</time>
      </trkpt>
      <trkpt lat="42.78995" lon="-0.13254">
        <ele>2472</ele>
        <time>2024-12-05T15:02:48.000Z</time>
      </trkpt>
      <trkpt lat="42.7899" lon="-0.13252">
        <ele>2474</ele>
        <time>2024-12-05T15:03:21.000Z</time>
      </trkpt>
      <trkpt lat="42.78977" lon="-0.13263">
        <ele>2475</ele>
        <time>2024-12-05T15:03:54.000Z</time>
      </trkpt>
      <trkpt lat="42.78965" lon="-0.13254">
        <ele>2481</ele>
        <time>2024-12-05T15:04:27.000Z</time>
      </trkpt>
      <trkpt lat="42.78954" lon="-0.13254">
        <ele>2483</ele>
        <time>2024-12-05T15:05:00.000Z</time>
      </trkpt>
      <trkpt lat="42.7895" lon="-0.13248">
        <ele>2485</ele>
        <time>2024-12-05T15:05:33.000Z</time>
      </trkpt>
      <trkpt lat="42.78928" lon="-0.13248">
        <ele>2491</ele>
        <time>2024-12-05T15:06:06.000Z</time>
      </trkpt>
      <trkpt lat="42.7892" lon="-0.13261">
        <ele>2492</ele>
        <time>2024-12-05T15:06:39.000Z</time>
      </trkpt>
      <trkpt lat="42.78911" lon="-0.13259">
        <ele>2495</ele>
        <time>2024-12-05T15:07:12.000Z</time>
      </trkpt>
      <trkpt lat="42.78898" lon="-0.13272">
        <ele>2496</ele>
        <time>2024-12-05T15:07:45.000Z</time>
      </trkpt>
      <trkpt lat="42.78881" lon="-0.13306">
        <ele>2496</ele>
        <time>2024-12-05T15:08:18.000Z</time>
      </trkpt>
      <trkpt lat="42.78877" lon="-0.1331">
        <ele>2497</ele>
        <time>2024-12-05T15:08:51.000Z</time>
      </trkpt>
      <trkpt lat="42.78874" lon="-0.13304">
        <ele>2498</ele>
        <time>2024-12-05T15:09:24.000Z</time>
      </trkpt>
      <trkpt lat="42.7887" lon="-0.13312">
        <ele>2498</ele>
        <time>2024-12-05T15:09:57.000Z</time>
      </trkpt>
      <trkpt lat="42.78864" lon="-0.13308">
        <ele>2500</ele>
        <time>2024-12-05T15:10:30.000Z</time>
      </trkpt>
      <trkpt lat="42.78859" lon="-0.13297">
        <ele>2503</ele>
        <time>2024-12-05T15:11:03.000Z</time>
      </trkpt>
      <trkpt lat="42.78849" lon="-0.13302">
        <ele>2505</ele>
        <time>2024-12-05T15:11:36.000Z</time>
      </trkpt>
      <trkpt lat="42.78836" lon="-0.13291">
        <ele>2509</ele>
        <time>2024-12-05T15:12:10.000Z</time>
      </trkpt>
      <trkpt lat="42.78819" lon="-0.13295">
        <ele>2509</ele>
        <time>2024-12-05T15:12:43.000Z</time>
      </trkpt>
      <trkpt lat="42.78801" lon="-0.133">
        <ele>2511</ele>
        <time>2024-12-05T15:13:16.000Z</time>
      </trkpt>
      <trkpt lat="42.78795" lon="-0.13306">
        <ele>2514</ele>
        <time>2024-12-05T15:13:49.000Z</time>
      </trkpt>
      <trkpt lat="42.78786" lon="-0.13325">
        <ele>2516</ele>
        <time>2024-12-05T15:14:22.000Z</time>
      </trkpt>
      <trkpt lat="42.78778" lon="-0.13308">
        <ele>2518</ele>
        <time>2024-12-05T15:14:56.000Z</time>
      </trkpt>
      <trkpt lat="42.78765" lon="-0.1331">
        <ele>2521</ele>
        <time>2024-12-05T15:15:29.000Z</time>
      </trkpt>
      <trkpt lat="42.78761" lon="-0.13317">
        <ele>2523</ele>
        <time>2024-12-05T15:16:02.000Z</time>
      </trkpt>
      <trkpt lat="42.78754" lon="-0.1331">
        <ele>2524</ele>
        <time>2024-12-05T15:16:36.000Z</time>
      </trkpt>
      <trkpt lat="42.78741" lon="-0.13315">
        <ele>2526</ele>
        <time>2024-12-05T15:17:09.000Z</time>
      </trkpt>
      <trkpt lat="42.78729" lon="-0.13315">
        <ele>2528</ele>
        <time>2024-12-05T15:17:42.000Z</time>
      </trkpt>
      <trkpt lat="42.7872" lon="-0.13327">
        <ele>2528</ele>
        <time>2024-12-05T15:18:16.000Z</time>
      </trkpt>
      <trkpt lat="42.78693" lon="-0.13327">
        <ele>2533</ele>
        <time>2024-12-05T15:18:49.000Z</time>
      </trkpt>
      <trkpt lat="42.78666" lon="-0.13327">
        <ele>2538</ele>
        <time>2024-12-05T15:19:22.000Z</time>
      </trkpt>
      <trkpt lat="42.78638" lon="-0.13336">
        <ele>2541</ele>
        <time>2024-12-05T15:19:56.000Z</time>
      </trkpt>
      <trkpt lat="42.78623" lon="-0.13345">
        <ele>2542</ele>
        <time>2024-12-05T15:20:29.000Z</time>
      </trkpt>
      <trkpt lat="42.78608" lon="-0.13353">
        <ele>2544</ele>
        <time>2024-12-05T15:21:03.000Z</time>
      </trkpt>
      <trkpt lat="42.78587" lon="-0.13362">
        <ele>2548</ele>
        <time>2024-12-05T15:21:36.000Z</time>
      </trkpt>
      <trkpt lat="42.78587" lon="-0.13362">
        <ele>2548</ele>
        <time>2024-12-05T15:22:10.000Z</time>
      </trkpt>
      <trkpt lat="42.7858" lon="-0.13372">
        <ele>2549</ele>
        <time>2024-12-05T15:22:43.000Z</time>
      </trkpt>
      <trkpt lat="42.78561" lon="-0.13396">
        <ele>2549</ele>
        <time>2024-12-05T15:23:17.000Z</time>
      </trkpt>
      <trkpt lat="42.78546" lon="-0.13406">
        <ele>2552</ele>
        <time>2024-12-05T15:23:51.000Z</time>
      </trkpt>
      <trkpt lat="42.78531" lon="-0.13415">
        <ele>2553</ele>
        <time>2024-12-05T15:24:24.000Z</time>
      </trkpt>
      <trkpt lat="42.78523" lon="-0.13418">
        <ele>2556</ele>
        <time>2024-12-05T15:24:58.000Z</time>
      </trkpt>
      <trkpt lat="42.7851" lon="-0.13437">
        <ele>2557</ele>
        <time>2024-12-05T15:25:32.000Z</time>
      </trkpt>
      <trkpt lat="42.78495" lon="-0.13445">
        <ele>2564</ele>
        <time>2024-12-05T15:26:05.000Z</time>
      </trkpt>
      <trkpt lat="42.78497" lon="-0.13428">
        <ele>2566</ele>
        <time>2024-12-05T15:26:39.000Z</time>
      </trkpt>
      <trkpt lat="42.78484" lon="-0.13435">
        <ele>2573</ele>
        <time>2024-12-05T15:27:13.000Z</time>
      </trkpt>
      <trkpt lat="42.78482" lon="-0.1342">
        <ele>2576</ele>
        <time>2024-12-05T15:27:46.000Z</time>
      </trkpt>
      <trkpt lat="42.78471" lon="-0.13443">
        <ele>2575</ele>
        <time>2024-12-05T15:28:20.000Z</time>
      </trkpt>
      <trkpt lat="42.78454" lon="-0.13452">
        <ele>2576</ele>
        <time>2024-12-05T15:28:54.000Z</time>
      </trkpt>
      <trkpt lat="42.78437" lon="-0.13452">
        <ele>2580</ele>
        <time>2024-12-05T15:29:28.000Z</time>
      </trkpt>
      <trkpt lat="42.7842" lon="-0.13452">
        <ele>2580</ele>
        <time>2024-12-05T15:30:02.000Z</time>
      </trkpt>
      <trkpt lat="42.784" lon="-0.13448">
        <ele>2583</ele>
        <time>2024-12-05T15:30:36.000Z</time>
      </trkpt>
      <trkpt lat="42.78372" lon="-0.13454">
        <ele>2588</ele>
        <time>2024-12-05T15:31:09.000Z</time>
      </trkpt>
      <trkpt lat="42.78364" lon="-0.13452">
        <ele>2590</ele>
        <time>2024-12-05T15:31:43.000Z</time>
      </trkpt>
      <trkpt lat="42.78359" lon="-0.1343">
        <ele>2596</ele>
        <time>2024-12-05T15:32:17.000Z</time>
      </trkpt>
      <trkpt lat="42.7834" lon="-0.13426">
        <ele>2597</ele>
        <time>2024-12-05T15:32:51.000Z</time>
      </trkpt>
      <trkpt lat="42.78319" lon="-0.1345">
        <ele>2600</ele>
        <time>2024-12-05T15:33:25.000Z</time>
      </trkpt>
      <trkpt lat="42.7831" lon="-0.13443">
        <ele>2602</ele>
        <time>2024-12-05T15:33:59.000Z</time>
      </trkpt>
      <trkpt lat="42.78297" lon="-0.13441">
        <ele>2604</ele>
        <time>2024-12-05T15:34:33.000Z</time>
      </trkpt>
      <trkpt lat="42.78291" lon="-0.13435">
        <ele>2605</ele>
        <time>2024-12-05T15:35:07.000Z</time>
      </trkpt>
      <trkpt lat="42.7828" lon="-0.13433">
        <ele>2607</ele>
        <time>2024-12-05T15:35:41.000Z</time>
      </trkpt>
      <trkpt lat="42.78271" lon="-0.13437">
        <ele>2607</ele>
        <time>2024-12-05T15:36:15.000Z</time>
      </trkpt>
      <trkpt lat="42.78265" lon="-0.13437">
        <ele>2607</ele>
        <time>2024-12-05T15:36:50.000Z</time>
      </trkpt>
      <trkpt lat="42.78256" lon="-0.13445">
        <ele>2607</ele>
        <time>2024-12-05T15:37:24.000Z</time>
      </trkpt>
      <trkpt lat="42.78241" lon="-0.13441">
        <ele>2612</ele>
        <time>2024-12-05T15:37:58.000Z</time>
      </trkpt>
      <trkpt lat="42.78231" lon="-0.13445">
        <ele>2612</ele>
        <time>2024-12-05T15:38:32.000Z</time>
      </trkpt>
      <trkpt lat="42.78211" lon="-0.13443">
        <ele>2618</ele>
        <time>2024-12-05T15:39:06.000Z</time>
      </trkpt>
      <trkpt lat="42.78199" lon="-0.13445">
        <ele>2617</ele>
        <time>2024-12-05T15:39:40.000Z</time>
      </trkpt>
      <trkpt lat="42.7818" lon="-0.13431">
        <ele>2620</ele>
        <time>2024-12-05T15:40:14.000Z</time>
      </trkpt>
      <trkpt lat="42.78162" lon="-0.13418">
        <ele>2620</ele>
        <time>2024-12-05T15:40:49.000Z</time>
      </trkpt>
      <trkpt lat="42.78145" lon="-0.13393">
        <ele>2631</ele>
        <time>2024-12-05T15:41:23.000Z</time>
      </trkpt>
      <trkpt lat="42.78128" lon="-0.13368">
        <ele>2640</ele>
        <time>2024-12-05T15:41:57.000Z</time>
      </trkpt>
      <trkpt lat="42.78138" lon="-0.1336">
        <ele>2644</ele>
        <time>2024-12-05T15:42:31.000Z</time>
      </trkpt>
      <trkpt lat="42.78119" lon="-0.1334">
        <ele>2649</ele>
        <time>2024-12-05T15:43:06.000Z</time>
      </trkpt>
      <trkpt lat="42.78111" lon="-0.13338">
        <ele>2650</ele>
        <time>2024-12-05T15:43:40.000Z</time>
      </trkpt>
      <trkpt lat="42.78106" lon="-0.13336">
        <ele>2651</ele>
        <time>2024-12-05T15:44:14.000Z</time>
      </trkpt>
      <trkpt lat="42.78134" lon="-0.13325">
        <ele>2657</ele>
        <time>2024-12-05T15:44:49.000Z</time>
      </trkpt>
      <trkpt lat="42.78111" lon="-0.13308">
        <ele>2661</ele>
        <time>2024-12-05T15:45:23.000Z</time>
      </trkpt>
      <trkpt lat="42.78087" lon="-0.13291">
        <ele>2668</ele>
        <time>2024-12-05T15:45:58.000Z</time>
      </trkpt>
      <trkpt lat="42.78064" lon="-0.13281">
        <ele>2672</ele>
        <time>2024-12-05T15:46:32.000Z</time>
      </trkpt>
      <trkpt lat="42.78041" lon="-0.13271">
        <ele>2674</ele>
        <time>2024-12-05T15:47:07.000Z</time>
      </trkpt>
      <trkpt lat="42.78018" lon="-0.1326">
        <ele>2678</ele>
        <time>2024-12-05T15:47:41.000Z</time>
      </trkpt>
      <trkpt lat="42.77995" lon="-0.1325">
        <ele>2682</ele>
        <time>2024-12-05T15:48:16.000Z</time>
      </trkpt>
      <trkpt lat="42.77978" lon="-0.13234">
        <ele>2690</ele>
        <time>2024-12-05T15:48:51.000Z</time>
      </trkpt>
      <trkpt lat="42.7796" lon="-0.13218">
        <ele>2695</ele>
        <time>2024-12-05T15:49:25.000Z</time>
      </trkpt>
      <trkpt lat="42.77956" lon="-0.13209">
        <ele>2700</ele>
        <time>2024-12-05T15:50:00.000Z</time>
      </trkpt>
      <trkpt lat="42.77954" lon="-0.13201">
        <ele>2705</ele>
        <time>2024-12-05T15:50:35.000Z</time>
      </trkpt>
      <trkpt lat="42.77973" lon="-0.13201">
        <ele>2708</ele>
        <time>2024-12-05T15:51:09.000Z</time>
      </trkpt>
      <trkpt lat="42.7798" lon="-0.13199">
        <ele>2710</ele>
        <time>2024-12-05T15:51:44.000Z</time>
      </trkpt>
      <trkpt lat="42.7798" lon="-0.13194">
        <ele>2713</ele>
        <time>2024-12-05T15:52:19.000Z</time>
      </trkpt>
      <trkpt lat="42.77965" lon="-0.13175">
        <ele>2720</ele>
        <time>2024-12-05T15:52:53.000Z</time>
      </trkpt>
      <trkpt lat="42.77958" lon="-0.13162">
        <ele>2725</ele>
        <time>2024-12-05T15:53:28.000Z</time>
      </trkpt>
      <trkpt lat="42.77943" lon="-0.13148">
        <ele>2728</ele>
        <time>2024-12-05T15:54:03.000Z</time>
      </trkpt>
      <trkpt lat="42.77928" lon="-0.13134">
        <ele>2731</ele>
        <time>2024-12-05T15:54:38.000Z</time>
      </trkpt>
      <trkpt lat="42.77932" lon="-0.13123">
        <ele>2732</ele>
        <time>2024-12-05T15:55:12.000Z</time>
      </trkpt>
      <trkpt lat="42.77943" lon="-0.13089">
        <ele>2730</ele>
        <time>2024-12-05T15:55:47.000Z</time>
      </trkpt>
      <trkpt lat="42.77958" lon="-0.13063">
        <ele>2729</ele>
        <time>2024-12-05T15:56:22.000Z</time>
      </trkpt>
      <trkpt lat="42.77973" lon="-0.13038">
        <ele>2726</ele>
        <time>2024-12-05T15:56:57.000Z</time>
      </trkpt>
      <trkpt lat="42.77988" lon="-0.13012">
        <ele>2727</ele>
        <time>2024-12-05T15:57:32.000Z</time>
      </trkpt>
      <trkpt lat="42.77997" lon="-0.12982">
        <ele>2729</ele>
        <time>2024-12-05T15:58:07.000Z</time>
      </trkpt>
      <trkpt lat="42.78" lon="-0.12952">
        <ele>2723</ele>
        <time>2024-12-05T15:58:42.000Z</time>
      </trkpt>
      <trkpt lat="42.78003" lon="-0.12922">
        <ele>2720</ele>
        <time>2024-12-05T15:59:17.000Z</time>
      </trkpt>
      <trkpt lat="42.78005" lon="-0.12892">
        <ele>2717</ele>
        <time>2024-12-05T15:59:52.000Z</time>
      </trkpt>
      <trkpt lat="42.78003" lon="-0.12888">
        <ele>2716</ele>
        <time>2024-12-05T16:00:27.000Z</time>
      </trkpt>
      <trkpt lat="42.77995" lon="-0.1289">
        <ele>2710</ele>
        <time>2024-12-05T16:01:02.000Z</time>
      </trkpt>
      <trkpt lat="42.77993" lon="-0.12853">
        <ele>2702</ele>
        <time>2024-12-05T16:01:37.000Z</time>
      </trkpt>
      <trkpt lat="42.77998" lon="-0.12817">
        <ele>2698</ele>
        <time>2024-12-05T16:02:13.000Z</time>
      </trkpt>
      <trkpt lat="42.78003" lon="-0.1278">
        <ele>2691</ele>
        <time>2024-12-05T16:02:48.000Z</time>
      </trkpt>
      <trkpt lat="42.7801" lon="-0.12767">
        <ele>2690</ele>
        <time>2024-12-05T16:03:23.000Z</time>
      </trkpt>
      <trkpt lat="42.77994" lon="-0.12779">
        <ele>2689</ele>
        <time>2024-12-05T16:03:58.000Z</time>
      </trkpt>
      <trkpt lat="42.77978" lon="-0.12791">
        <ele>2681</ele>
        <time>2024-12-05T16:04:33.000Z</time>
      </trkpt>
      <trkpt lat="42.77975" lon="-0.12791">
        <ele>2680</ele>
        <time>2024-12-05T16:05:09.000Z</time>
      </trkpt>
      <trkpt lat="42.77973" lon="-0.12789">
        <ele>2679</ele>
        <time>2024-12-05T16:05:44.000Z</time>
      </trkpt>
      <trkpt lat="42.77978" lon="-0.12766">
        <ele>2677</ele>
        <time>2024-12-05T16:06:19.000Z</time>
      </trkpt>
      <trkpt lat="42.77982" lon="-0.12744">
        <ele>2673</ele>
        <time>2024-12-05T16:06:55.000Z</time>
      </trkpt>
      <trkpt lat="42.77999" lon="-0.12713">
        <ele>2671</ele>
        <time>2024-12-05T16:07:30.000Z</time>
      </trkpt>
      <trkpt lat="42.78016" lon="-0.12682">
        <ele>2665</ele>
        <time>2024-12-05T16:08:05.000Z</time>
      </trkpt>
      <trkpt lat="42.78014" lon="-0.12677">
        <ele>2664</ele>
        <time>2024-12-05T16:08:41.000Z</time>
      </trkpt>
      <trkpt lat="42.77999" lon="-0.12675">
        <ele>2660</ele>
        <time>2024-12-05T16:09:16.000Z</time>
      </trkpt>
      <trkpt lat="42.77983" lon="-0.1268">
        <ele>2655</ele>
        <time>2024-12-05T16:09:52.000Z</time>
      </trkpt>
      <trkpt lat="42.77967" lon="-0.12686">
        <ele>2652</ele>
        <time>2024-12-05T16:10:27.000Z</time>
      </trkpt>
      <trkpt lat="42.77956" lon="-0.12675">
        <ele>2650</ele>
        <time>2024-12-05T16:11:02.000Z</time>
      </trkpt>
      <trkpt lat="42.77954" lon="-0.12648">
        <ele>2646</ele>
        <time>2024-12-05T16:11:38.000Z</time>
      </trkpt>
      <trkpt lat="42.77952" lon="-0.12621">
        <ele>2644</ele>
        <time>2024-12-05T16:12:13.000Z</time>
      </trkpt>
      <trkpt lat="42.77955" lon="-0.12592">
        <ele>2643</ele>
        <time>2024-12-05T16:12:49.000Z</time>
      </trkpt>
      <trkpt lat="42.77958" lon="-0.12564">
        <ele>2644</ele>
        <time>2024-12-05T16:13:25.000Z</time>
      </trkpt>
      <trkpt lat="42.77937" lon="-0.12553">
        <ele>2642</ele>
        <time>2024-12-05T16:14:00.000Z</time>
      </trkpt>
      <trkpt lat="42.77927" lon="-0.12527">
        <ele>2643</ele>
        <time>2024-12-05T16:14:36.000Z</time>
      </trkpt>
      <trkpt lat="42.77917" lon="-0.12501">
        <ele>2643</ele>
        <time>2024-12-05T16:15:11.000Z</time>
      </trkpt>
      <trkpt lat="42.77905" lon="-0.12471">
        <ele>2637</ele>
        <time>2024-12-05T16:15:47.000Z</time>
      </trkpt>
      <trkpt lat="42.77892" lon="-0.12441">
        <ele>2633</ele>
        <time>2024-12-05T16:16:23.000Z</time>
      </trkpt>
      <trkpt lat="42.77879" lon="-0.12428">
        <ele>2627</ele>
        <time>2024-12-05T16:16:59.000Z</time>
      </trkpt>
      <trkpt lat="42.77875" lon="-0.12407">
        <ele>2626</ele>
        <time>2024-12-05T16:17:34.000Z</time>
      </trkpt>
      <trkpt lat="42.77868" lon="-0.12383">
        <ele>2622</ele>
        <time>2024-12-05T16:18:10.000Z</time>
      </trkpt>
      <trkpt lat="42.77866" lon="-0.12366">
        <ele>2619</ele>
        <time>2024-12-05T16:18:46.000Z</time>
      </trkpt>
      <trkpt lat="42.77862" lon="-0.12351">
        <ele>2616</ele>
        <time>2024-12-05T16:19:22.000Z</time>
      </trkpt>
      <trkpt lat="42.77857" lon="-0.12349">
        <ele>2614</ele>
        <time>2024-12-05T16:19:58.000Z</time>
      </trkpt>
      <trkpt lat="42.77849" lon="-0.12315">
        <ele>2607</ele>
        <time>2024-12-05T16:20:34.000Z</time>
      </trkpt>
      <trkpt lat="42.77851" lon="-0.12282">
        <ele>2604</ele>
        <time>2024-12-05T16:21:10.000Z</time>
      </trkpt>
      <trkpt lat="42.77838" lon="-0.12278">
        <ele>2600</ele>
        <time>2024-12-05T16:21:45.000Z</time>
      </trkpt>
      <trkpt lat="42.77844" lon="-0.12252">
        <ele>2594</ele>
        <time>2024-12-05T16:22:21.000Z</time>
      </trkpt>
      <trkpt lat="42.77838" lon="-0.12252">
        <ele>2593</ele>
        <time>2024-12-05T16:22:57.000Z</time>
      </trkpt>
      <trkpt lat="42.77819" lon="-0.1224">
        <ele>2588</ele>
        <time>2024-12-05T16:23:33.000Z</time>
      </trkpt>
      <trkpt lat="42.77812" lon="-0.12229">
        <ele>2586</ele>
        <time>2024-12-05T16:24:09.000Z</time>
      </trkpt>
      <trkpt lat="42.77808" lon="-0.12216">
        <ele>2584</ele>
        <time>2024-12-05T16:24:45.000Z</time>
      </trkpt>
      <trkpt lat="42.77793" lon="-0.12199">
        <ele>2581</ele>
        <time>2024-12-05T16:25:21.000Z</time>
      </trkpt>
      <trkpt lat="42.77789" lon="-0.12179">
        <ele>2579</ele>
        <time>2024-12-05T16:25:58.000Z</time>
      </trkpt>
      <trkpt lat="42.77784" lon="-0.12177">
        <ele>2580</ele>
        <time>2024-12-05T16:26:34.000Z</time>
      </trkpt>
      <trkpt lat="42.77772" lon="-0.12158">
        <ele>2576</ele>
        <time>2024-12-05T16:27:10.000Z</time>
      </trkpt>
      <trkpt lat="42.77772" lon="-0.12158">
        <ele>2576</ele>
        <time>2024-12-05T16:27:46.000Z</time>
      </trkpt>
      <trkpt lat="42.7776" lon="-0.1214">
        <ele>2571</ele>
        <time>2024-12-05T16:28:22.000Z</time>
      </trkpt>
      <trkpt lat="42.77748" lon="-0.12121">
        <ele>2565</ele>
        <time>2024-12-05T16:28:58.000Z</time>
      </trkpt>
      <trkpt lat="42.77739" lon="-0.12096">
        <ele>2556</ele>
        <time>2024-12-05T16:29:34.000Z</time>
      </trkpt>
      <trkpt lat="42.77744" lon="-0.12094">
        <ele>2556</ele>
        <time>2024-12-05T16:30:10.000Z</time>
      </trkpt>
      <trkpt lat="42.77737" lon="-0.12081">
        <ele>2551</ele>
        <time>2024-12-05T16:30:47.000Z</time>
      </trkpt>
      <trkpt lat="42.77744" lon="-0.12076">
        <ele>2550</ele>
        <time>2024-12-05T16:31:23.000Z</time>
      </trkpt>
      <trkpt lat="42.77741" lon="-0.1207">
        <ele>2546</ele>
        <time>2024-12-05T16:31:59.000Z</time>
      </trkpt>
      <trkpt lat="42.77733" lon="-0.12068">
        <ele>2543</ele>
        <time>2024-12-05T16:32:35.000Z</time>
      </trkpt>
      <trkpt lat="42.77741" lon="-0.12051">
        <ele>2541</ele>
        <time>2024-12-05T16:33:11.000Z</time>
      </trkpt>
      <trkpt lat="42.77729" lon="-0.12049">
        <ele>2537</ele>
        <time>2024-12-05T16:33:48.000Z</time>
      </trkpt>
      <trkpt lat="42.77705" lon="-0.12066">
        <ele>2526</ele>
        <time>2024-12-05T16:34:24.000Z</time>
      </trkpt>
      <trkpt lat="42.77693" lon="-0.12085">
        <ele>2523</ele>
        <time>2024-12-05T16:35:00.000Z</time>
      </trkpt>
      <trkpt lat="42.77681" lon="-0.12104">
        <ele>2520</ele>
        <time>2024-12-05T16:35:37.000Z</time>
      </trkpt>
      <trkpt lat="42.77684" lon="-0.12072">
        <ele>2514</ele>
        <time>2024-12-05T16:36:13.000Z</time>
      </trkpt>
      <trkpt lat="42.77669" lon="-0.12091">
        <ele>2503</ele>
        <time>2024-12-05T16:36:49.000Z</time>
      </trkpt>
      <trkpt lat="42.77662" lon="-0.12112">
        <ele>2502</ele>
        <time>2024-12-05T16:37:26.000Z</time>
      </trkpt>
      <trkpt lat="42.77656" lon="-0.12132">
        <ele>2499</ele>
        <time>2024-12-05T16:38:02.000Z</time>
      </trkpt>
      <trkpt lat="42.77638" lon="-0.12167">
        <ele>2491</ele>
        <time>2024-12-05T16:38:39.000Z</time>
      </trkpt>
      <trkpt lat="42.77638" lon="-0.12167">
        <ele>2491</ele>
        <time>2024-12-05T16:39:15.000Z</time>
      </trkpt>
      <trkpt lat="42.77621" lon="-0.12192">
        <ele>2487</ele>
        <time>2024-12-05T16:39:52.000Z</time>
      </trkpt>
      <trkpt lat="42.77602" lon="-0.12211">
        <ele>2476</ele>
        <time>2024-12-05T16:40:28.000Z</time>
      </trkpt>
      <trkpt lat="42.77583" lon="-0.12229">
        <ele>2470</ele>
        <time>2024-12-05T16:41:05.000Z</time>
      </trkpt>
      <trkpt lat="42.77563" lon="-0.12248">
        <ele>2458</ele>
        <time>2024-12-05T16:41:42.000Z</time>
      </trkpt>
      <trkpt lat="42.77557" lon="-0.12263">
        <ele>2459</ele>
        <time>2024-12-05T16:42:18.000Z</time>
      </trkpt>
      <trkpt lat="42.77546" lon="-0.12274">
        <ele>2457</ele>
        <time>2024-12-05T16:42:55.000Z</time>
      </trkpt>
      <trkpt lat="42.77546" lon="-0.12257">
        <ele>2453</ele>
        <time>2024-12-05T16:43:32.000Z</time>
      </trkpt>
      <trkpt lat="42.77538" lon="-0.12259">
        <ele>2450</ele>
        <time>2024-12-05T16:44:08.000Z</time>
      </trkpt>
      <trkpt lat="42.77538" lon="-0.12252">
        <ele>2447</ele>
        <time>2024-12-05T16:44:45.000Z</time>
      </trkpt>
      <trkpt lat="42.77542" lon="-0.12242">
        <ele>2445</ele>
        <time>2024-12-05T16:45:22.000Z</time>
      </trkpt>
      <trkpt lat="42.77529" lon="-0.12237">
        <ele>2440</ele>
        <time>2024-12-05T16:45:58.000Z</time>
      </trkpt>
      <trkpt lat="42.77538" lon="-0.12218">
        <ele>2437</ele>
        <time>2024-12-05T16:46:35.000Z</time>
      </trkpt>
      <trkpt lat="42.77543" lon="-0.12198">
        <ele>2433</ele>
        <time>2024-12-05T16:47:12.000Z</time>
      </trkpt>
      <trkpt lat="42.77548" lon="-0.12177">
        <ele>2429</ele>
        <time>2024-12-05T16:47:49.000Z</time>
      </trkpt>
      <trkpt lat="42.77551" lon="-0.12156">
        <ele>2425</ele>
        <time>2024-12-05T16:48:25.000Z</time>
      </trkpt>
      <trkpt lat="42.77548" lon="-0.12143">
        <ele>2420</ele>
        <time>2024-12-05T16:49:02.000Z</time>
      </trkpt>
      <trkpt lat="42.77555" lon="-0.12102">
        <ele>2413</ele>
        <time>2024-12-05T16:49:39.000Z</time>
      </trkpt>
      <trkpt lat="42.77553" lon="-0.12074">
        <ele>2404</ele>
        <time>2024-12-05T16:50:16.000Z</time>
      </trkpt>
      <trkpt lat="42.77559" lon="-0.12044">
        <ele>2403</ele>
        <time>2024-12-05T16:50:53.000Z</time>
      </trkpt>
      <trkpt lat="42.77557" lon="-0.12022">
        <ele>2396</ele>
        <time>2024-12-05T16:51:30.000Z</time>
      </trkpt>
      <trkpt lat="42.77555" lon="-0.11999">
        <ele>2390</ele>
        <time>2024-12-05T16:52:07.000Z</time>
      </trkpt>
      <trkpt lat="42.77559" lon="-0.11976">
        <ele>2390</ele>
        <time>2024-12-05T16:52:44.000Z</time>
      </trkpt>
      <trkpt lat="42.77555" lon="-0.11958">
        <ele>2385</ele>
        <time>2024-12-05T16:53:21.000Z</time>
      </trkpt>
      <trkpt lat="42.77555" lon="-0.11946">
        <ele>2383</ele>
        <time>2024-12-05T16:53:58.000Z</time>
      </trkpt>
      <trkpt lat="42.77559" lon="-0.11922">
        <ele>2379</ele>
        <time>2024-12-05T16:54:35.000Z</time>
      </trkpt>
      <trkpt lat="42.77561" lon="-0.11896">
        <ele>2376</ele>
        <time>2024-12-05T16:55:12.000Z</time>
      </trkpt>
      <trkpt lat="42.77557" lon="-0.11879">
        <ele>2369</ele>
        <time>2024-12-05T16:55:49.000Z</time>
      </trkpt>
      <trkpt lat="42.77561" lon="-0.11862">
        <ele>2367</ele>
        <time>2024-12-05T16:56:26.000Z</time>
      </trkpt>
      <trkpt lat="42.77557" lon="-0.11832">
        <ele>2357</ele>
        <time>2024-12-05T16:57:03.000Z</time>
      </trkpt>
      <trkpt lat="42.77559" lon="-0.11825">
        <ele>2357</ele>
        <time>2024-12-05T16:57:40.000Z</time>
      </trkpt>
      <trkpt lat="42.7757" lon="-0.11819">
        <ele>2358</ele>
        <time>2024-12-05T16:58:17.000Z</time>
      </trkpt>
      <trkpt lat="42.77572" lon="-0.11812">
        <ele>2357</ele>
        <time>2024-12-05T16:58:55.000Z</time>
      </trkpt>
      <trkpt lat="42.7757" lon="-0.11802">
        <ele>2353</ele>
        <time>2024-12-05T16:59:32.000Z</time>
      </trkpt>
      <trkpt lat="42.77555" lon="-0.1177">
        <ele>2344</ele>
        <time>2024-12-05T17:00:09.000Z</time>
      </trkpt>
      <trkpt lat="42.77568" lon="-0.1177">
        <ele>2345</ele>
        <time>2024-12-05T17:00:46.000Z</time>
      </trkpt>
      <trkpt lat="42.77587" lon="-0.11752">
        <ele>2340</ele>
        <time>2024-12-05T17:01:24.000Z</time>
      </trkpt>
      <trkpt lat="42.7757" lon="-0.11735">
        <ele>2335</ele>
        <time>2024-12-05T17:02:01.000Z</time>
      </trkpt>
      <trkpt lat="42.77553" lon="-0.11718">
        <ele>2329</ele>
        <time>2024-12-05T17:02:38.000Z</time>
      </trkpt>
      <trkpt lat="42.77535" lon="-0.11701">
        <ele>2325</ele>
        <time>2024-12-05T17:03:15.000Z</time>
      </trkpt>
      <trkpt lat="42.77522" lon="-0.11677">
        <ele>2316</ele>
        <time>2024-12-05T17:03:53.000Z</time>
      </trkpt>
      <trkpt lat="42.77508" lon="-0.11654">
        <ele>2306</ele>
        <time>2024-12-05T17:04:30.000Z</time>
      </trkpt>
      <trkpt lat="42.77525" lon="-0.11658">
        <ele>2308</ele>
        <time>2024-12-05T17:05:08.000Z</time>
      </trkpt>
      <trkpt lat="42.77535" lon="-0.11667">
        <ele>2312</ele>
        <time>2024-12-05T17:05:45.000Z</time>
      </trkpt>
      <trkpt lat="42.77552" lon="-0.11669">
        <ele>2313</ele>
        <time>2024-12-05T17:06:23.000Z</time>
      </trkpt>
      <trkpt lat="42.77568" lon="-0.11671">
        <ele>2312</ele>
        <time>2024-12-05T17:07:00.000Z</time>
      </trkpt>
      <trkpt lat="42.77572" lon="-0.11639">
        <ele>2304</ele>
        <time>2024-12-05T17:07:38.000Z</time>
      </trkpt>
      <trkpt lat="42.77568" lon="-0.116">
        <ele>2297</ele>
        <time>2024-12-05T17:08:15.000Z</time>
      </trkpt>
      <trkpt lat="42.77563" lon="-0.11561">
        <ele>2288</ele>
        <time>2024-12-05T17:08:53.000Z</time>
      </trkpt>
      <trkpt lat="42.77566" lon="-0.11539">
        <ele>2289</ele>
        <time>2024-12-05T17:09:30.000Z</time>
      </trkpt>
      <trkpt lat="42.77568" lon="-0.11516">
        <ele>2291</ele>
        <time>2024-12-05T17:10:08.000Z</time>
      </trkpt>
      <trkpt lat="42.77567" lon="-0.11485">
        <ele>2296</ele>
        <time>2024-12-05T17:10:46.000Z</time>
      </trkpt>
      <trkpt lat="42.77566" lon="-0.11454">
        <ele>2304</ele>
        <time>2024-12-05T17:11:23.000Z</time>
      </trkpt>
      <trkpt lat="42.77553" lon="-0.11436">
        <ele>2304</ele>
        <time>2024-12-05T17:12:01.000Z</time>
      </trkpt>
      <trkpt lat="42.7754" lon="-0.11418">
        <ele>2305</ele>
        <time>2024-12-05T17:12:39.000Z</time>
      </trkpt>
      <trkpt lat="42.77533" lon="-0.11405">
        <ele>2307</ele>
        <time>2024-12-05T17:13:17.000Z</time>
      </trkpt>
      <trkpt lat="42.77533" lon="-0.11405">
        <ele>2307</ele>
        <time>2024-12-05T17:13:54.000Z</time>
      </trkpt>
      <trkpt lat="42.77533" lon="-0.11394">
        <ele>2310</ele>
        <time>2024-12-05T17:14:32.000Z</time>
      </trkpt>
      <trkpt lat="42.77531" lon="-0.1139">
        <ele>2310</ele>
        <time>2024-12-05T17:15:10.000Z</time>
      </trkpt>
      <trkpt lat="42.77533" lon="-0.11379">
        <ele>2315</ele>
        <time>2024-12-05T17:15:48.000Z</time>
      </trkpt>
      <trkpt lat="42.77548" lon="-0.11345">
        <ele>2332</ele>
        <time>2024-12-05T17:16:25.000Z</time>
      </trkpt>
      <trkpt lat="42.77548" lon="-0.11345">
        <ele>2332</ele>
        <time>2024-12-05T17:17:03.000Z</time>
      </trkpt>
      <trkpt lat="42.77548" lon="-0.11338">
        <ele>2334</ele>
        <time>2024-12-05T17:17:41.000Z</time>
      </trkpt>
      <trkpt lat="42.7754" lon="-0.1133">
        <ele>2342</ele>
        <time>2024-12-05T17:18:19.000Z</time>
      </trkpt>
      <trkpt lat="42.77527" lon="-0.11332">
        <ele>2344</ele>
        <time>2024-12-05T17:18:57.000Z</time>
      </trkpt>
      <trkpt lat="42.77512" lon="-0.11345">
        <ele>2343</ele>
        <time>2024-12-05T17:19:35.000Z</time>
      </trkpt>
      <trkpt lat="42.77513" lon="-0.11321">
        <ele>2353</ele>
        <time>2024-12-05T17:20:13.000Z</time>
      </trkpt>
      <trkpt lat="42.77514" lon="-0.11298">
        <ele>2359</ele>
        <time>2024-12-05T17:20:51.000Z</time>
      </trkpt>
      <trkpt lat="42.7751" lon="-0.11293">
        <ele>2361</ele>
        <time>2024-12-05T17:21:28.000Z</time>
      </trkpt>
      <trkpt lat="42.77516" lon="-0.11287">
        <ele>2359</ele>
        <time>2024-12-05T17:22:06.000Z</time>
      </trkpt>
      <trkpt lat="42.77514" lon="-0.1128">
        <ele>2361</ele>
        <time>2024-12-05T17:22:44.000Z</time>
      </trkpt>
      <trkpt lat="42.77503" lon="-0.11264">
        <ele>2367</ele>
        <time>2024-12-05T17:23:22.000Z</time>
      </trkpt>
      <trkpt lat="42.77493" lon="-0.11248">
        <ele>2373</ele>
        <time>2024-12-05T17:24:00.000Z</time>
      </trkpt>
      <trkpt lat="42.7748" lon="-0.11233">
        <ele>2381</ele>
        <time>2024-12-05T17:24:38.000Z</time>
      </trkpt>
      <trkpt lat="42.77465" lon="-0.11229">
        <ele>2386</ele>
        <time>2024-12-05T17:25:16.000Z</time>
      </trkpt>
      <trkpt lat="42.77458" lon="-0.11203">
        <ele>2393</ele>
        <time>2024-12-05T17:25:55.000Z</time>
      </trkpt>
      <trkpt lat="42.77452" lon="-0.11192">
        <ele>2394</ele>
        <time>2024-12-05T17:26:33.000Z</time>
      </trkpt>
      <trkpt lat="42.77441" lon="-0.11188">
        <ele>2398</ele>
        <time>2024-12-05T17:27:11.000Z</time>
      </trkpt>
      <trkpt lat="42.77426" lon="-0.11169">
        <ele>2402</ele>
        <time>2024-12-05T17:27:49.000Z</time>
      </trkpt>
      <trkpt lat="42.77413" lon="-0.1116">
        <ele>2409</ele>
        <time>2024-12-05T17:28:27.000Z</time>
      </trkpt>
      <trkpt lat="42.77411" lon="-0.11139">
        <ele>2411</ele>
        <time>2024-12-05T17:29:05.000Z</time>
      </trkpt>
      <trkpt lat="42.77409" lon="-0.11117">
        <ele>2415</ele>
        <time>2024-12-05T17:29:43.000Z</time>
      </trkpt>
      <trkpt lat="42.77402" lon="-0.11102">
        <ele>2418</ele>
        <time>2024-12-05T17:30:22.000Z</time>
      </trkpt>
      <trkpt lat="42.77402" lon="-0.11077">
        <ele>2425</ele>
        <time>2024-12-05T17:31:00.000Z</time>
      </trkpt>
      <trkpt lat="42.77411" lon="-0.11038">
        <ele>2435</ele>
        <time>2024-12-05T17:31:38.000Z</time>
      </trkpt>
      <trkpt lat="42.7743" lon="-0.11014">
        <ele>2439</ele>
        <time>2024-12-05T17:32:16.000Z</time>
      </trkpt>
      <trkpt lat="42.7745" lon="-0.10991">
        <ele>2446</ele>
        <time>2024-12-05T17:32:55.000Z</time>
      </trkpt>
      <trkpt lat="42.77456" lon="-0.10971">
        <ele>2448</ele>
        <time>2024-12-05T17:33:33.000Z</time>
      </trkpt>
      <trkpt lat="42.77478" lon="-0.10948">
        <ele>2448</ele>
        <time>2024-12-05T17:34:11.000Z</time>
      </trkpt>
      <trkpt lat="42.7749" lon="-0.10916">
        <ele>2449</ele>
        <time>2024-12-05T17:34:50.000Z</time>
      </trkpt>
      <trkpt lat="42.77496" lon="-0.10885">
        <ele>2450</ele>
        <time>2024-12-05T17:35:28.000Z</time>
      </trkpt>
      <trkpt lat="42.77501" lon="-0.10855">
        <ele>2451</ele>
        <time>2024-12-05T17:36:07.000Z</time>
      </trkpt>
      <trkpt lat="42.775" lon="-0.10834">
        <ele>2452</ele>
        <time>2024-12-05T17:36:45.000Z</time>
      </trkpt>
      <trkpt lat="42.77499" lon="-0.10813">
        <ele>2452</ele>
        <time>2024-12-05T17:37:24.000Z</time>
      </trkpt>
      <trkpt lat="42.77495" lon="-0.10781">
        <ele>2457</ele>
        <time>2024-12-05T17:38:02.000Z</time>
      </trkpt>
      <trkpt lat="42.7749" lon="-0.1075">
        <ele>2465</ele>
        <time>2024-12-05T17:38:41.000Z</time>
      </trkpt>
      <trkpt lat="42.77486" lon="-0.10742">
        <ele>2467</ele>
        <time>2024-12-05T17:39:20.000Z</time>
      </trkpt>
      <trkpt lat="42.77482" lon="-0.1072">
        <ele>2477</ele>
        <time>2024-12-05T17:39:58.000Z</time>
      </trkpt>
      <trkpt lat="42.77475" lon="-0.10712">
        <ele>2482</ele>
        <time>2024-12-05T17:40:37.000Z</time>
      </trkpt>
      <trkpt lat="42.77475" lon="-0.10684">
        <ele>2492</ele>
        <time>2024-12-05T17:41:16.000Z</time>
      </trkpt>
      <trkpt lat="42.77482" lon="-0.10675">
        <ele>2491</ele>
        <time>2024-12-05T17:41:54.000Z</time>
      </trkpt>
      <trkpt lat="42.77482" lon="-0.1066">
        <ele>2496</ele>
        <time>2024-12-05T17:42:33.000Z</time>
      </trkpt>
      <trkpt lat="42.77493" lon="-0.10649">
        <ele>2505</ele>
        <time>2024-12-05T17:43:12.000Z</time>
      </trkpt>
      <trkpt lat="42.77497" lon="-0.10637">
        <ele>2507</ele>
        <time>2024-12-05T17:43:50.000Z</time>
      </trkpt>
      <trkpt lat="42.77499" lon="-0.10612">
        <ele>2515</ele>
        <time>2024-12-05T17:44:29.000Z</time>
      </trkpt>
      <trkpt lat="42.77501" lon="-0.10587">
        <ele>2520</ele>
        <time>2024-12-05T17:45:08.000Z</time>
      </trkpt>
      <trkpt lat="42.77518" lon="-0.10583">
        <ele>2526</ele>
        <time>2024-12-05T17:45:47.000Z</time>
      </trkpt>
      <trkpt lat="42.77548" lon="-0.10592">
        <ele>2535</ele>
        <time>2024-12-05T17:46:26.000Z</time>
      </trkpt>
      <trkpt lat="42.77568" lon="-0.10581">
        <ele>2541</ele>
        <time>2024-12-05T17:47:05.000Z</time>
      </trkpt>
      <trkpt lat="42.77561" lon="-0.10542">
        <ele>2550</ele>
        <time>2024-12-05T17:47:43.000Z</time>
      </trkpt>
      <trkpt lat="42.77555" lon="-0.10504">
        <ele>2556</ele>
        <time>2024-12-05T17:48:22.000Z</time>
      </trkpt>
      <trkpt lat="42.77559" lon="-0.10508">
        <ele>2559</ele>
        <time>2024-12-05T17:49:01.000Z</time>
      </trkpt>
      <trkpt lat="42.77568" lon="-0.10501">
        <ele>2565</ele>
        <time>2024-12-05T17:49:40.000Z</time>
      </trkpt>
      <trkpt lat="42.77576" lon="-0.10476">
        <ele>2580</ele>
        <time>2024-12-05T17:50:19.000Z</time>
      </trkpt>
      <trkpt lat="42.77589" lon="-0.10476">
        <ele>2583</ele>
        <time>2024-12-05T17:50:58.000Z</time>
      </trkpt>
      <trkpt lat="42.77591" lon="-0.10463">
        <ele>2585</ele>
        <time>2024-12-05T17:51:37.000Z</time>
      </trkpt>
      <trkpt lat="42.77588" lon="-0.10438">
        <ele>2588</ele>
        <time>2024-12-05T17:52:16.000Z</time>
      </trkpt>
      <trkpt lat="42.77585" lon="-0.10413">
        <ele>2591</ele>
        <time>2024-12-05T17:52:55.000Z</time>
      </trkpt>
      <trkpt lat="42.77587" lon="-0.10401">
        <ele>2594</ele>
        <time>2024-12-05T17:53:35.000Z</time>
      </trkpt>
      <trkpt lat="42.77576" lon="-0.10364">
        <ele>2604</ele>
        <time>2024-12-05T17:54:14.000Z</time>
      </trkpt>
      <trkpt lat="42.77576" lon="-0.1033">
        <ele>2609</ele>
        <time>2024-12-05T17:54:53.000Z</time>
      </trkpt>
      <trkpt lat="42.77566" lon="-0.10313">
        <ele>2615</ele>
        <time>2024-12-05T17:55:32.000Z</time>
      </trkpt>
      <trkpt lat="42.77566" lon="-0.10295">
        <ele>2622</ele>
        <time>2024-12-05T17:56:11.000Z</time>
      </trkpt>
      <trkpt lat="42.77572" lon="-0.1028">
        <ele>2618</ele>
        <time>2024-12-05T17:56:50.000Z</time>
      </trkpt>
      <trkpt lat="42.77559" lon="-0.10256">
        <ele>2628</ele>
        <time>2024-12-05T17:57:30.000Z</time>
      </trkpt>
      <trkpt lat="42.77546" lon="-0.10231">
        <ele>2633</ele>
        <time>2024-12-05T17:58:09.000Z</time>
      </trkpt>
      <trkpt lat="42.77546" lon="-0.10207">
        <ele>2637</ele>
        <time>2024-12-05T17:58:48.000Z</time>
      </trkpt>
      <trkpt lat="42.77542" lon="-0.10182">
        <ele>2640</ele>
        <time>2024-12-05T17:59:28.000Z</time>
      </trkpt>
      <trkpt lat="42.77546" lon="-0.10169">
        <ele>2641</ele>
        <time>2024-12-05T18:00:07.000Z</time>
      </trkpt>
      <trkpt lat="42.77546" lon="-0.10135">
        <ele>2643</ele>
        <time>2024-12-05T18:00:46.000Z</time>
      </trkpt>
      <trkpt lat="42.77561" lon="-0.101">
        <ele>2648</ele>
        <time>2024-12-05T18:01:26.000Z</time>
      </trkpt>
      <trkpt lat="42.77563" lon="-0.10079">
        <ele>2652</ele>
        <time>2024-12-05T18:02:05.000Z</time>
      </trkpt>
      <trkpt lat="42.77566" lon="-0.10057">
        <ele>2656</ele>
        <time>2024-12-05T18:02:45.000Z</time>
      </trkpt>
      <trkpt lat="42.77562" lon="-0.10036">
        <ele>2664</ele>
        <time>2024-12-05T18:03:24.000Z</time>
      </trkpt>
      <trkpt lat="42.77559" lon="-0.10014">
        <ele>2670</ele>
        <time>2024-12-05T18:04:04.000Z</time>
      </trkpt>
      <trkpt lat="42.77551" lon="-0.09993">
        <ele>2675</ele>
        <time>2024-12-05T18:04:43.000Z</time>
      </trkpt>
      <trkpt lat="42.77553" lon="-0.09965">
        <ele>2684</ele>
        <time>2024-12-05T18:05:23.000Z</time>
      </trkpt>
      <trkpt lat="42.77537" lon="-0.09938">
        <ele>2692</ele>
        <time>2024-12-05T18:06:02.000Z</time>
      </trkpt>
      <trkpt lat="42.7752" lon="-0.09911">
        <ele>2699</ele>
        <time>2024-12-05T18:06:42.000Z</time>
      </trkpt>
      <trkpt lat="42.77504" lon="-0.09884">
        <ele>2706</ele>
        <time>2024-12-05T18:07:21.000Z</time>
      </trkpt>
      <trkpt lat="42.77488" lon="-0.09858">
        <ele>2715</ele>
        <time>2024-12-05T18:08:01.000Z</time>
      </trkpt>
      <trkpt lat="42.7748" lon="-0.09836">
        <ele>2719</ele>
        <time>2024-12-05T18:08:41.000Z</time>
      </trkpt>
      <trkpt lat="42.77475" lon="-0.09795">
        <ele>2727</ele>
        <time>2024-12-05T18:09:21.000Z</time>
      </trkpt>
      <trkpt lat="42.77482" lon="-0.0977">
        <ele>2730</ele>
        <time>2024-12-05T18:10:00.000Z</time>
      </trkpt>
      <trkpt lat="42.77481" lon="-0.09765">
        <ele>2730</ele>
        <time>2024-12-05T18:10:40.000Z</time>
      </trkpt>
      <trkpt lat="42.7748" lon="-0.09755">
        <ele>2730</ele>
        <time>2024-12-05T18:11:20.000Z</time>
      </trkpt>
      <trkpt lat="42.77482" lon="-0.09733">
        <ele>2728</ele>
        <time>2024-12-05T18:12:00.000Z</time>
      </trkpt>
      <trkpt lat="42.77497" lon="-0.0971">
        <ele>2723</ele>
        <time>2024-12-05T18:12:40.000Z</time>
      </trkpt>
      <trkpt lat="42.77508" lon="-0.09703">
        <ele>2720</ele>
        <time>2024-12-05T18:13:20.000Z</time>
      </trkpt>
      <trkpt lat="42.77525" lon="-0.09701">
        <ele>2719</ele>
        <time>2024-12-05T18:13:59.000Z</time>
      </trkpt>
      <trkpt lat="42.77548" lon="-0.0968">
        <ele>2711</ele>
        <time>2024-12-05T18:14:39.000Z</time>
      </trkpt>
      <trkpt lat="42.7757" lon="-0.09675">
        <ele>2714</ele>
        <time>2024-12-05T18:15:19.000Z</time>
      </trkpt>
      <trkpt lat="42.77589" lon="-0.09662">
        <ele>2713</ele>
        <time>2024-12-05T18:15:59.000Z</time>
      </trkpt>
      <trkpt lat="42.77608" lon="-0.0965">
        <ele>2712</ele>
        <time>2024-12-05T18:16:39.000Z</time>
      </trkpt>
      <trkpt lat="42.77619" lon="-0.09647">
        <ele>2710</ele>
        <time>2024-12-05T18:17:19.000Z</time>
      </trkpt>
      <trkpt lat="42.77636" lon="-0.09639">
        <ele>2704</ele>
        <time>2024-12-05T18:17:59.000Z</time>
      </trkpt>
      <trkpt lat="42.77638" lon="-0.09626">
        <ele>2697</ele>
        <time>2024-12-05T18:18:39.000Z</time>
      </trkpt>
      <trkpt lat="42.77666" lon="-0.0962">
        <ele>2690</ele>
        <time>2024-12-05T18:19:19.000Z</time>
      </trkpt>
      <trkpt lat="42.77692" lon="-0.09599">
        <ele>2684</ele>
        <time>2024-12-05T18:20:00.000Z</time>
      </trkpt>
      <trkpt lat="42.77718" lon="-0.09579">
        <ele>2686</ele>
        <time>2024-12-05T18:20:40.000Z</time>
      </trkpt>
      <trkpt lat="42.7773" lon="-0.09556">
        <ele>2678</ele>
        <time>2024-12-05T18:21:20.000Z</time>
      </trkpt>
      <trkpt lat="42.77741" lon="-0.09534">
        <ele>2675</ele>
        <time>2024-12-05T18:22:00.000Z</time>
      </trkpt>
      <trkpt lat="42.77754" lon="-0.09502">
        <ele>2670</ele>
        <time>2024-12-05T18:22:40.000Z</time>
      </trkpt>
      <trkpt lat="42.7776" lon="-0.0948">
        <ele>2667</ele>
        <time>2024-12-05T18:23:21.000Z</time>
      </trkpt>
      <trkpt lat="42.77765" lon="-0.09459">
        <ele>2663</ele>
        <time>2024-12-05T18:24:01.000Z</time>
      </trkpt>
      <trkpt lat="42.77776" lon="-0.09441">
        <ele>2660</ele>
        <time>2024-12-05T18:24:41.000Z</time>
      </trkpt>
      <trkpt lat="42.77787" lon="-0.09424">
        <ele>2657</ele>
        <time>2024-12-05T18:25:22.000Z</time>
      </trkpt>
      <trkpt lat="42.77795" lon="-0.09394">
        <ele>2655</ele>
        <time>2024-12-05T18:26:02.000Z</time>
      </trkpt>
      <trkpt lat="42.77819" lon="-0.09375">
        <ele>2649</ele>
        <time>2024-12-05T18:26:43.000Z</time>
      </trkpt>
      <trkpt lat="42.77827" lon="-0.09347">
        <ele>2643</ele>
        <time>2024-12-05T18:27:23.000Z</time>
      </trkpt>
      <trkpt lat="42.77834" lon="-0.09319">
        <ele>2642</ele>
        <time>2024-12-05T18:28:03.000Z</time>
      </trkpt>
      <trkpt lat="42.77842" lon="-0.09291">
        <ele>2644</ele>
        <time>2024-12-05T18:28:44.000Z</time>
      </trkpt>
      <trkpt lat="42.7786" lon="-0.09268">
        <ele>2648</ele>
        <time>2024-12-05T18:29:25.000Z</time>
      </trkpt>
      <trkpt lat="42.77877" lon="-0.09244">
        <ele>2648</ele>
        <time>2024-12-05T18:30:05.000Z</time>
      </trkpt>
      <trkpt lat="42.77897" lon="-0.09227">
        <ele>2645</ele>
        <time>2024-12-05T18:30:46.000Z</time>
      </trkpt>
      <trkpt lat="42.77917" lon="-0.0921">
        <ele>2642</ele>
        <time>2024-12-05T18:31:26.000Z</time>
      </trkpt>
      <trkpt lat="42.77937" lon="-0.09193">
        <ele>2636</ele>
        <time>2024-12-05T18:32:07.000Z</time>
      </trkpt>
      <trkpt lat="42.77947" lon="-0.09167">
        <ele>2630</ele>
        <time>2024-12-05T18:32:48.000Z</time>
      </trkpt>
      <trkpt lat="42.77954" lon="-0.09158">
        <ele>2628</ele>
        <time>2024-12-05T18:33:28.000Z</time>
      </trkpt>
      <trkpt lat="42.77958" lon="-0.09143">
        <ele>2625</ele>
        <time>2024-12-05T18:34:09.000Z</time>
      </trkpt>
      <trkpt lat="42.7798" lon="-0.09139">
        <ele>2625</ele>
        <time>2024-12-05T18:34:50.000Z</time>
      </trkpt>
      <trkpt lat="42.77987" lon="-0.0912">
        <ele>2623</ele>
        <time>2024-12-05T18:35:31.000Z</time>
      </trkpt>
      <trkpt lat="42.77995" lon="-0.091">
        <ele>2618</ele>
        <time>2024-12-05T18:36:12.000Z</time>
      </trkpt>
      <trkpt lat="42.7798" lon="-0.09079">
        <ele>2616</ele>
        <time>2024-12-05T18:36:52.000Z</time>
      </trkpt>
      <trkpt lat="42.77967" lon="-0.09052">
        <ele>2613</ele>
        <time>2024-12-05T18:37:33.000Z</time>
      </trkpt>
      <trkpt lat="42.77954" lon="-0.09025">
        <ele>2610</ele>
        <time>2024-12-05T18:38:14.000Z</time>
      </trkpt>
      <trkpt lat="42.77941" lon="-0.09036">
        <ele>2608</ele>
        <time>2024-12-05T18:38:55.000Z</time>
      </trkpt>
      <trkpt lat="42.77915" lon="-0.09036">
        <ele>2598</ele>
        <time>2024-12-05T18:39:36.000Z</time>
      </trkpt>
      <trkpt lat="42.77909" lon="-0.09014">
        <ele>2593</ele>
        <time>2024-12-05T18:40:17.000Z</time>
      </trkpt>
      <trkpt lat="42.77902" lon="-0.08993">
        <ele>2586</ele>
        <time>2024-12-05T18:40:58.000Z</time>
      </trkpt>
      <trkpt lat="42.77893" lon="-0.08974">
        <ele>2587</ele>
        <time>2024-12-05T18:41:39.000Z</time>
      </trkpt>
      <trkpt lat="42.77883" lon="-0.08954">
        <ele>2588</ele>
        <time>2024-12-05T18:42:20.000Z</time>
      </trkpt>
      <trkpt lat="42.77867" lon="-0.0893">
        <ele>2585</ele>
        <time>2024-12-05T18:43:01.000Z</time>
      </trkpt>
      <trkpt lat="42.77851" lon="-0.08905">
        <ele>2577</ele>
        <time>2024-12-05T18:43:42.000Z</time>
      </trkpt>
      <trkpt lat="42.77858" lon="-0.08885">
        <ele>2575</ele>
        <time>2024-12-05T18:44:23.000Z</time>
      </trkpt>
      <trkpt lat="42.77866" lon="-0.08864">
        <ele>2572</ele>
        <time>2024-12-05T18:45:04.000Z</time>
      </trkpt>
      <trkpt lat="42.77892" lon="-0.08859">
        <ele>2571</ele>
        <time>2024-12-05T18:45:46.000Z</time>
      </trkpt>
      <trkpt lat="42.77917" lon="-0.08853">
        <ele>2559</ele>
        <time>2024-12-05T18:46:27.000Z</time>
      </trkpt>
      <trkpt lat="42.77945" lon="-0.08858">
        <ele>2549</ele>
        <time>2024-12-05T18:47:08.000Z</time>
      </trkpt>
      <trkpt lat="42.77947" lon="-0.08853">
        <ele>2547</ele>
        <time>2024-12-05T18:47:49.000Z</time>
      </trkpt>
      <trkpt lat="42.77952" lon="-0.08856">
        <ele>2546</ele>
        <time>2024-12-05T18:48:31.000Z</time>
      </trkpt>
      <trkpt lat="42.77965" lon="-0.08847">
        <ele>2538</ele>
        <time>2024-12-05T18:49:12.000Z</time>
      </trkpt>
      <trkpt lat="42.77971" lon="-0.08838">
        <ele>2533</ele>
        <time>2024-12-05T18:49:53.000Z</time>
      </trkpt>
      <trkpt lat="42.77975" lon="-0.08841">
        <ele>2533</ele>
        <time>2024-12-05T18:50:34.000Z</time>
      </trkpt>
      <trkpt lat="42.77986" lon="-0.08856">
        <ele>2534</ele>
        <time>2024-12-05T18:51:16.000Z</time>
      </trkpt>
      <trkpt lat="42.78006" lon="-0.08856">
        <ele>2523</ele>
        <time>2024-12-05T18:51:57.000Z</time>
      </trkpt>
      <trkpt lat="42.78027" lon="-0.08856">
        <ele>2516</ele>
        <time>2024-12-05T18:52:38.000Z</time>
      </trkpt>
      <trkpt lat="42.78046" lon="-0.08845">
        <ele>2510</ele>
        <time>2024-12-05T18:53:20.000Z</time>
      </trkpt>
      <trkpt lat="42.78072" lon="-0.08849">
        <ele>2507</ele>
        <time>2024-12-05T18:54:01.000Z</time>
      </trkpt>
      <trkpt lat="42.78098" lon="-0.08853">
        <ele>2500</ele>
        <time>2024-12-05T18:54:43.000Z</time>
      </trkpt>
      <trkpt lat="42.78123" lon="-0.08853">
        <ele>2495</ele>
        <time>2024-12-05T18:55:24.000Z</time>
      </trkpt>
      <trkpt lat="42.78149" lon="-0.08853">
        <ele>2491</ele>
        <time>2024-12-05T18:56:06.000Z</time>
      </trkpt>
      <trkpt lat="42.78168" lon="-0.08873">
        <ele>2488</ele>
        <time>2024-12-05T18:56:47.000Z</time>
      </trkpt>
      <trkpt lat="42.78188" lon="-0.08892">
        <ele>2485</ele>
        <time>2024-12-05T18:57:29.000Z</time>
      </trkpt>
      <trkpt lat="42.78207" lon="-0.08899">
        <ele>2484</ele>
        <time>2024-12-05T18:58:11.000Z</time>
      </trkpt>
      <trkpt lat="42.78233" lon="-0.08916">
        <ele>2484</ele>
        <time>2024-12-05T18:58:52.000Z</time>
      </trkpt>
      <trkpt lat="42.78259" lon="-0.08933">
        <ele>2483</ele>
        <time>2024-12-05T18:59:34.000Z</time>
      </trkpt>
      <trkpt lat="42.78269" lon="-0.08935">
        <ele>2484</ele>
        <time>2024-12-05T19:00:16.000Z</time>
      </trkpt>
      <trkpt lat="42.78297" lon="-0.08929">
        <ele>2485</ele>
        <time>2024-12-05T19:00:58.000Z</time>
      </trkpt>
      <trkpt lat="42.78304" lon="-0.08933">
        <ele>2486</ele>
        <time>2024-12-05T19:01:39.000Z</time>
      </trkpt>
      <trkpt lat="42.78319" lon="-0.08933">
        <ele>2485</ele>
        <time>2024-12-05T19:02:21.000Z</time>
      </trkpt>
      <trkpt lat="42.78329" lon="-0.08952">
        <ele>2486</ele>
        <time>2024-12-05T19:03:03.000Z</time>
      </trkpt>
      <trkpt lat="42.78338" lon="-0.08952">
        <ele>2484</ele>
        <time>2024-12-05T19:03:45.000Z</time>
      </trkpt>
      <trkpt lat="42.78338" lon="-0.08952">
        <ele>2484</ele>
        <time>2024-12-05T19:04:27.000Z</time>
      </trkpt>
      <trkpt lat="42.78344" lon="-0.08984">
        <ele>2483</ele>
        <time>2024-12-05T19:05:08.000Z</time>
      </trkpt>
      <trkpt lat="42.78343" lon="-0.09008">
        <ele>2481</ele>
        <time>2024-12-05T19:05:50.000Z</time>
      </trkpt>
      <trkpt lat="42.78342" lon="-0.09032">
        <ele>2477</ele>
        <time>2024-12-05T19:06:32.000Z</time>
      </trkpt>
      <trkpt lat="42.78344" lon="-0.09044">
        <ele>2476</ele>
        <time>2024-12-05T19:07:14.000Z</time>
      </trkpt>
      <trkpt lat="42.78359" lon="-0.09077">
        <ele>2471</ele>
        <time>2024-12-05T19:07:56.000Z</time>
      </trkpt>
      <trkpt lat="42.78362" lon="-0.09102">
        <ele>2468</ele>
        <time>2024-12-05T19:08:38.000Z</time>
      </trkpt>
      <trkpt lat="42.78364" lon="-0.09128">
        <ele>2468</ele>
        <time>2024-12-05T19:09:20.000Z</time>
      </trkpt>
      <trkpt lat="42.7837" lon="-0.09145">
        <ele>2466</ele>
        <time>2024-12-05T19:10:02.000Z</time>
      </trkpt>
      <trkpt lat="42.78391" lon="-0.09175">
        <ele>2457</ele>
        <time>2024-12-05T19:10:44.000Z</time>
      </trkpt>
      <trkpt lat="42.78411" lon="-0.09205">
        <ele>2454</ele>
        <time>2024-12-05T19:11:26.000Z</time>
      </trkpt>
      <trkpt lat="42.78413" lon="-0.0922">
        <ele>2454</ele>
        <time>2024-12-05T19:12:08.000Z</time>
      </trkpt>
      <trkpt lat="42.78426" lon="-0.09255">
        <ele>2452</ele>
        <time>2024-12-05T19:12:51.000Z</time>
      </trkpt>
      <trkpt lat="42.78424" lon="-0.09272">
        <ele>2452</ele>
        <time>2024-12-05T19:13:33.000Z</time>
      </trkpt>
      <trkpt lat="42.78451" lon="-0.09269">
        <ele>2446</ele>
        <time>2024-12-05T19:14:15.000Z</time>
      </trkpt>
      <trkpt lat="42.78477" lon="-0.09265">
        <ele>2449</ele>
        <time>2024-12-05T19:14:57.000Z</time>
      </trkpt>
      <trkpt lat="42.7849" lon="-0.09253">
        <ele>2450</ele>
        <time>2024-12-05T19:15:39.000Z</time>
      </trkpt>
      <trkpt lat="42.78503" lon="-0.0924">
        <ele>2450</ele>
        <time>2024-12-05T19:16:22.000Z</time>
      </trkpt>
      <trkpt lat="42.78531" lon="-0.09227">
        <ele>2449</ele>
        <time>2024-12-05T19:17:04.000Z</time>
      </trkpt>
      <trkpt lat="42.78546" lon="-0.09203">
        <ele>2444</ele>
        <time>2024-12-05T19:17:46.000Z</time>
      </trkpt>
      <trkpt lat="42.7855" lon="-0.09203">
        <ele>2444</ele>
        <time>2024-12-05T19:18:29.000Z</time>
      </trkpt>
      <trkpt lat="42.78561" lon="-0.09212">
        <ele>2443</ele>
        <time>2024-12-05T19:19:11.000Z</time>
      </trkpt>
      <trkpt lat="42.78578" lon="-0.0924">
        <ele>2441</ele>
        <time>2024-12-05T19:19:54.000Z</time>
      </trkpt>
      <trkpt lat="42.78578" lon="-0.09261">
        <ele>2449</ele>
        <time>2024-12-05T19:20:36.000Z</time>
      </trkpt>
      <trkpt lat="42.78585" lon="-0.0928">
        <ele>2451</ele>
        <time>2024-12-05T19:21:18.000Z</time>
      </trkpt>
      <trkpt lat="42.78606" lon="-0.09303">
        <ele>2449</ele>
        <time>2024-12-05T19:22:01.000Z</time>
      </trkpt>
      <trkpt lat="42.78626" lon="-0.09325">
        <ele>2447</ele>
        <time>2024-12-05T19:22:44.000Z</time>
      </trkpt>
      <trkpt lat="42.78647" lon="-0.09347">
        <ele>2440</ele>
        <time>2024-12-05T19:23:26.000Z</time>
      </trkpt>
      <trkpt lat="42.7866" lon="-0.09373">
        <ele>2434</ele>
        <time>2024-12-05T19:24:09.000Z</time>
      </trkpt>
      <trkpt lat="42.78668" lon="-0.09386">
        <ele>2429</ele>
        <time>2024-12-05T19:24:51.000Z</time>
      </trkpt>
      <trkpt lat="42.78675" lon="-0.0939">
        <ele>2426</ele>
        <time>2024-12-05T19:25:34.000Z</time>
      </trkpt>
      <trkpt lat="42.78681" lon="-0.09388">
        <ele>2418</ele>
        <time>2024-12-05T19:26:17.000Z</time>
      </trkpt>
      <trkpt lat="42.78683" lon="-0.09396">
        <ele>2416</ele>
        <time>2024-12-05T19:26:59.000Z</time>
      </trkpt>
      <trkpt lat="42.7869" lon="-0.09392">
        <ele>2413</ele>
        <time>2024-12-05T19:27:42.000Z</time>
      </trkpt>
      <trkpt lat="42.78696" lon="-0.09405">
        <ele>2408</ele>
        <time>2024-12-05T19:28:24.000Z</time>
      </trkpt>
      <trkpt lat="42.78701" lon="-0.09396">
        <ele>2408</ele>
        <time>2024-12-05T19:29:07.000Z</time>
      </trkpt>
      <trkpt lat="42.78709" lon="-0.09403">
        <ele>2403</ele>
        <time>2024-12-05T19:29:50.000Z</time>
      </trkpt>
      <trkpt lat="42.78716" lon="-0.09411">
        <ele>2398</ele>
        <time>2024-12-05T19:30:33.000Z</time>
      </trkpt>
      <trkpt lat="42.78718" lon="-0.09429">
        <ele>2395</ele>
        <time>2024-12-05T19:31:15.000Z</time>
      </trkpt>
      <trkpt lat="42.78746" lon="-0.0942">
        <ele>2386</ele>
        <time>2024-12-05T19:31:58.000Z</time>
      </trkpt>
      <trkpt lat="42.78754" lon="-0.09424">
        <ele>2383</ele>
        <time>2024-12-05T19:32:41.000Z</time>
      </trkpt>
      <trkpt lat="42.78763" lon="-0.09441">
        <ele>2380</ele>
        <time>2024-12-05T19:33:24.000Z</time>
      </trkpt>
      <trkpt lat="42.78786" lon="-0.09463">
        <ele>2376</ele>
        <time>2024-12-05T19:34:06.000Z</time>
      </trkpt>
      <trkpt lat="42.78784" lon="-0.09474">
        <ele>2377</ele>
        <time>2024-12-05T19:34:49.000Z</time>
      </trkpt>
      <trkpt lat="42.78789" lon="-0.09484">
        <ele>2376</ele>
        <time>2024-12-05T19:35:32.000Z</time>
      </trkpt>
      <trkpt lat="42.78801" lon="-0.0948">
        <ele>2376</ele>
        <time>2024-12-05T19:36:15.000Z</time>
      </trkpt>
      <trkpt lat="42.78806" lon="-0.09489">
        <ele>2376</ele>
        <time>2024-12-05T19:36:58.000Z</time>
      </trkpt>
      <trkpt lat="42.78814" lon="-0.09484">
        <ele>2376</ele>
        <time>2024-12-05T19:37:41.000Z</time>
      </trkpt>
      <trkpt lat="42.78823" lon="-0.09503">
        <ele>2377</ele>
        <time>2024-12-05T19:38:24.000Z</time>
      </trkpt>
      <trkpt lat="42.78832" lon="-0.09521">
        <ele>2376</ele>
        <time>2024-12-05T19:39:07.000Z</time>
      </trkpt>
      <trkpt lat="42.7884" lon="-0.09523">
        <ele>2376</ele>
        <time>2024-12-05T19:39:50.000Z</time>
      </trkpt>
      <trkpt lat="42.78849" lon="-0.09512">
        <ele>2376</ele>
        <time>2024-12-05T19:40:32.000Z</time>
      </trkpt>
      <trkpt lat="42.78853" lon="-0.09486">
        <ele>2372</ele>
        <time>2024-12-05T19:41:15.000Z</time>
      </trkpt>
      <trkpt lat="42.78872" lon="-0.09491">
        <ele>2369</ele>
        <time>2024-12-05T19:41:58.000Z</time>
      </trkpt>
      <trkpt lat="42.78892" lon="-0.09521">
        <ele>2367</ele>
        <time>2024-12-05T19:42:42.000Z</time>
      </trkpt>
      <trkpt lat="42.78909" lon="-0.09534">
        <ele>2364</ele>
        <time>2024-12-05T19:43:25.000Z</time>
      </trkpt>
      <trkpt lat="42.78926" lon="-0.09547">
        <ele>2358</ele>
        <time>2024-12-05T19:44:08.000Z</time>
      </trkpt>
      <trkpt lat="42.7893" lon="-0.09562">
        <ele>2357</ele>
        <time>2024-12-05T19:44:51.000Z</time>
      </trkpt>
      <trkpt lat="42.78936" lon="-0.09587">
        <ele>2360</ele>
        <time>2024-12-05T19:45:34.000Z</time>
      </trkpt>
      <trkpt lat="42.78941" lon="-0.09613">
        <ele>2360</ele>
        <time>2024-12-05T19:46:17.000Z</time>
      </trkpt>
      <trkpt lat="42.7895" lon="-0.09643">
        <ele>2355</ele>
        <time>2024-12-05T19:47:00.000Z</time>
      </trkpt>
      <trkpt lat="42.78958" lon="-0.09673">
        <ele>2350</ele>
        <time>2024-12-05T19:47:44.000Z</time>
      </trkpt>
      <trkpt lat="42.78971" lon="-0.09697">
        <ele>2344</ele>
        <time>2024-12-05T19:48:27.000Z</time>
      </trkpt>
      <trkpt lat="42.78984" lon="-0.0972">
        <ele>2334</ele>
        <time>2024-12-05T19:49:10.000Z</time>
      </trkpt>
      <trkpt lat="42.78997" lon="-0.09744">
        <ele>2329</ele>
        <time>2024-12-05T19:49:53.000Z</time>
      </trkpt>
      <trkpt lat="42.78977" lon="-0.09738">
        <ele>2324</ele>
        <time>2024-12-05T19:50:37.000Z</time>
      </trkpt>
      <trkpt lat="42.7896" lon="-0.09725">
        <ele>2321</ele>
        <time>2024-12-05T19:51:20.000Z</time>
      </trkpt>
      <trkpt lat="42.78972" lon="-0.09749">
        <ele>2317</ele>
        <time>2024-12-05T19:52:04.000Z</time>
      </trkpt>
      <trkpt lat="42.78984" lon="-0.09774">
        <ele>2313</ele>
        <time>2024-12-05T19:52:47.000Z</time>
      </trkpt>
      <trkpt lat="42.78969" lon="-0.09765">
        <ele>2309</ele>
        <time>2024-12-05T19:53:30.000Z</time>
      </trkpt>
      <trkpt lat="42.78952" lon="-0.09778">
        <ele>2301</ele>
        <time>2024-12-05T19:54:14.000Z</time>
      </trkpt>
      <trkpt lat="42.78957" lon="-0.09806">
        <ele>2299</ele>
        <time>2024-12-05T19:54:57.000Z</time>
      </trkpt>
      <trkpt lat="42.78962" lon="-0.09834">
        <ele>2297</ele>
        <time>2024-12-05T19:55:41.000Z</time>
      </trkpt>
      <trkpt lat="42.78967" lon="-0.09862">
        <ele>2294</ele>
        <time>2024-12-05T19:56:25.000Z</time>
      </trkpt>
      <trkpt lat="42.78985" lon="-0.09878">
        <ele>2295</ele>
        <time>2024-12-05T19:57:08.000Z</time>
      </trkpt>
      <trkpt lat="42.79002" lon="-0.09895">
        <ele>2293</ele>
        <time>2024-12-05T19:57:52.000Z</time>
      </trkpt>
      <trkpt lat="42.7902" lon="-0.09911">
        <ele>2289</ele>
        <time>2024-12-05T19:58:35.000Z</time>
      </trkpt>
      <trkpt lat="42.79046" lon="-0.0992">
        <ele>2283</ele>
        <time>2024-12-05T19:59:19.000Z</time>
      </trkpt>
      <trkpt lat="42.79053" lon="-0.09929">
        <ele>2282</ele>
        <time>2024-12-05T20:00:03.000Z</time>
      </trkpt>
      <trkpt lat="42.79057" lon="-0.09948">
        <ele>2279</ele>
        <time>2024-12-05T20:00:46.000Z</time>
      </trkpt>
      <trkpt lat="42.79055" lon="-0.09978">
        <ele>2276</ele>
        <time>2024-12-05T20:01:30.000Z</time>
      </trkpt>
      <trkpt lat="42.79057" lon="-0.09993">
        <ele>2273</ele>
        <time>2024-12-05T20:02:14.000Z</time>
      </trkpt>
      <trkpt lat="42.79063" lon="-0.09997">
        <ele>2272</ele>
        <time>2024-12-05T20:02:58.000Z</time>
      </trkpt>
      <trkpt lat="42.79087" lon="-0.09993">
        <ele>2269</ele>
        <time>2024-12-05T20:03:42.000Z</time>
      </trkpt>
      <trkpt lat="42.79098" lon="-0.09976">
        <ele>2267</ele>
        <time>2024-12-05T20:04:25.000Z</time>
      </trkpt>
      <trkpt lat="42.79102" lon="-0.09976">
        <ele>2264</ele>
        <time>2024-12-05T20:05:09.000Z</time>
      </trkpt>
      <trkpt lat="42.79113" lon="-0.0998">
        <ele>2261</ele>
        <time>2024-12-05T20:05:53.000Z</time>
      </trkpt>
      <trkpt lat="42.79126" lon="-0.09997">
        <ele>2262</ele>
        <time>2024-12-05T20:06:37.000Z</time>
      </trkpt>
      <trkpt lat="42.79138" lon="-0.10014">
        <ele>2261</ele>
        <time>2024-12-05T20:07:21.000Z</time>
      </trkpt>
      <trkpt lat="42.79138" lon="-0.10014">
        <ele>2261</ele>
        <time>2024-12-05T20:08:05.000Z</time>
      </trkpt>
      <trkpt lat="42.79156" lon="-0.10042">
        <ele>2259</ele>
        <time>2024-12-05T20:08:49.000Z</time>
      </trkpt>
      <trkpt lat="42.79174" lon="-0.1007">
        <ele>2257</ele>
        <time>2024-12-05T20:09:33.000Z</time>
      </trkpt>
      <trkpt lat="42.79192" lon="-0.10098">
        <ele>2255</ele>
        <time>2024-12-05T20:10:17.000Z</time>
      </trkpt>
      <trkpt lat="42.79202" lon="-0.10122">
        <ele>2250</ele>
        <time>2024-12-05T20:11:01.000Z</time>
      </trkpt>
      <trkpt lat="42.79211" lon="-0.10145">
        <ele>2244</ele>
        <time>2024-12-05T20:11:45.000Z</time>
      </trkpt>
      <trkpt lat="42.79215" lon="-0.10177">
        <ele>2240</ele>
        <time>2024-12-05T20:12:29.000Z</time>
      </trkpt>
      <trkpt lat="42.79218" lon="-0.1021">
        <ele>2237</ele>
        <time>2024-12-05T20:13:13.000Z</time>
      </trkpt>
      <trkpt lat="42.79222" lon="-0.10242">
        <ele>2236</ele>
        <time>2024-12-05T20:13:57.000Z</time>
      </trkpt>
      <trkpt lat="42.79222" lon="-0.10265">
        <ele>2234</ele>
        <time>2024-12-05T20:14:41.000Z</time>
      </trkpt>
      <trkpt lat="42.79222" lon="-0.10289">
        <ele>2233</ele>
        <time>2024-12-05T20:15:25.000Z</time>
      </trkpt>
      <trkpt lat="42.79226" lon="-0.10304">
        <ele>2233</ele>
        <time>2024-12-05T20:16:10.000Z</time>
      </trkpt>
      <trkpt lat="42.79213" lon="-0.10338">
        <ele>2231</ele>
        <time>2024-12-05T20:16:54.000Z</time>
      </trkpt>
      <trkpt lat="42.79213" lon="-0.1036">
        <ele>2229</ele>
        <time>2024-12-05T20:17:38.000Z</time>
      </trkpt>
      <trkpt lat="42.79198" lon="-0.10375">
        <ele>2226</ele>
        <time>2024-12-05T20:18:22.000Z</time>
      </trkpt>
      <trkpt lat="42.79196" lon="-0.10388">
        <ele>2225</ele>
        <time>2024-12-05T20:19:07.000Z</time>
      </trkpt>
      <trkpt lat="42.79189" lon="-0.10407">
        <ele>2224</ele>
        <time>2024-12-05T20:19:51.000Z</time>
      </trkpt>
      <trkpt lat="42.79181" lon="-0.10426">
        <ele>2224</ele>
        <time>2024-12-05T20:20:35.000Z</time>
      </trkpt>
      <trkpt lat="42.79179" lon="-0.10461">
        <ele>2226</ele>
        <time>2024-12-05T20:21:20.000Z</time>
      </trkpt>
      <trkpt lat="42.79186" lon="-0.10476">
        <ele>2224</ele>
        <time>2024-12-05T20:22:04.000Z</time>
      </trkpt>
      <trkpt lat="42.79205" lon="-0.10487">
        <ele>2221</ele>
        <time>2024-12-05T20:22:49.000Z</time>
      </trkpt>
      <trkpt lat="42.79224" lon="-0.10499">
        <ele>2216</ele>
        <time>2024-12-05T20:23:33.000Z</time>
      </trkpt>
      <trkpt lat="42.79237" lon="-0.1052">
        <ele>2219</ele>
        <time>2024-12-05T20:24:18.000Z</time>
      </trkpt>
      <trkpt lat="42.7925" lon="-0.1054">
        <ele>2220</ele>
        <time>2024-12-05T20:25:02.000Z</time>
      </trkpt>
      <trkpt lat="42.79269" lon="-0.10559">
        <ele>2217</ele>
        <time>2024-12-05T20:25:47.000Z</time>
      </trkpt>
      <trkpt lat="42.79277" lon="-0.10585">
        <ele>2217</ele>
        <time>2024-12-05T20:26:31.000Z</time>
      </trkpt>
      <trkpt lat="42.79284" lon="-0.10611">
        <ele>2219</ele>
        <time>2024-12-05T20:27:16.000Z</time>
      </trkpt>
      <trkpt lat="42.79297" lon="-0.10641">
        <ele>2214</ele>
        <time>2024-12-05T20:28:01.000Z</time>
      </trkpt>
      <trkpt lat="42.79306" lon="-0.10682">
        <ele>2215</ele>
        <time>2024-12-05T20:28:45.000Z</time>
      </trkpt>
      <trkpt lat="42.79316" lon="-0.10701">
        <ele>2208</ele>
        <time>2024-12-05T20:29:30.000Z</time>
      </trkpt>
      <trkpt lat="42.79316" lon="-0.10725">
        <ele>2210</ele>
        <time>2024-12-05T20:30:15.000Z</time>
      </trkpt>
      <trkpt lat="42.79316" lon="-0.10748">
        <ele>2211</ele>
        <time>2024-12-05T20:30:59.000Z</time>
      </trkpt>
      <trkpt lat="42.79322" lon="-0.10774">
        <ele>2211</ele>
        <time>2024-12-05T20:31:44.000Z</time>
      </trkpt>
      <trkpt lat="42.79327" lon="-0.108">
        <ele>2209</ele>
        <time>2024-12-05T20:32:29.000Z</time>
      </trkpt>
      <trkpt lat="42.79339" lon="-0.10818">
        <ele>2212</ele>
        <time>2024-12-05T20:33:14.000Z</time>
      </trkpt>
      <trkpt lat="42.79351" lon="-0.10836">
        <ele>2213</ele>
        <time>2024-12-05T20:33:59.000Z</time>
      </trkpt>
      <trkpt lat="42.79374" lon="-0.10854">
        <ele>2205</ele>
        <time>2024-12-05T20:34:43.000Z</time>
      </trkpt>
      <trkpt lat="42.79398" lon="-0.10873">
        <ele>2203</ele>
        <time>2024-12-05T20:35:28.000Z</time>
      </trkpt>
      <trkpt lat="42.79417" lon="-0.10905">
        <ele>2212</ele>
        <time>2024-12-05T20:36:13.000Z</time>
      </trkpt>
      <trkpt lat="42.79439" lon="-0.10922">
        <ele>2217</ele>
        <time>2024-12-05T20:36:58.000Z</time>
      </trkpt>
      <trkpt lat="42.79452" lon="-0.10924">
        <ele>2207</ele>
        <time>2024-12-05T20:37:43.000Z</time>
      </trkpt>
      <trkpt lat="42.79471" lon="-0.10941">
        <ele>2208</ele>
        <time>2024-12-05T20:38:28.000Z</time>
      </trkpt>
      <trkpt lat="42.79491" lon="-0.10974">
        <ele>2212</ele>
        <time>2024-12-05T20:39:13.000Z</time>
      </trkpt>
      <trkpt lat="42.79512" lon="-0.11006">
        <ele>2209</ele>
        <time>2024-12-05T20:39:59.000Z</time>
      </trkpt>
      <trkpt lat="42.79525" lon="-0.1104">
        <ele>2206</ele>
        <time>2024-12-05T20:40:44.000Z</time>
      </trkpt>
      <trkpt lat="42.79524" lon="-0.11066">
        <ele>2205</ele>
        <time>2024-12-05T20:41:29.000Z</time>
      </trkpt>
      <trkpt lat="42.79522" lon="-0.11092">
        <ele>2200</ele>
        <time>2024-12-05T20:42:14.000Z</time>
      </trkpt>
      <trkpt lat="42.79529" lon="-0.11126">
        <ele>2193</ele>
        <time>2024-12-05T20:42:59.000Z</time>
      </trkpt>
      <trkpt lat="42.79542" lon="-0.1114">
        <ele>2185</ele>
        <time>2024-12-05T20:43:45.000Z</time>
      </trkpt>
      <trkpt lat="42.79555" lon="-0.11154">
        <ele>2178</ele>
        <time>2024-12-05T20:44:30.000Z</time>
      </trkpt>
      <trkpt lat="42.79555" lon="-0.11162">
        <ele>2177</ele>
        <time>2024-12-05T20:45:15.000Z</time>
      </trkpt>
      <trkpt lat="42.7954" lon="-0.11195">
        <ele>2174</ele>
        <time>2024-12-05T20:46:01.000Z</time>
      </trkpt>
      <trkpt lat="42.7954" lon="-0.11195">
        <ele>2174</ele>
        <time>2024-12-05T20:46:46.000Z</time>
      </trkpt>
      <trkpt lat="42.79548" lon="-0.11197">
        <ele>2169</ele>
        <time>2024-12-05T20:47:31.000Z</time>
      </trkpt>
      <trkpt lat="42.79544" lon="-0.11205">
        <ele>2168</ele>
        <time>2024-12-05T20:48:17.000Z</time>
      </trkpt>
      <trkpt lat="42.79546" lon="-0.11214">
        <ele>2164</ele>
        <time>2024-12-05T20:49:02.000Z</time>
      </trkpt>
      <trkpt lat="42.79548" lon="-0.11227">
        <ele>2160</ele>
        <time>2024-12-05T20:49:47.000Z</time>
      </trkpt>
      <trkpt lat="42.79561" lon="-0.11222">
        <ele>2153</ele>
        <time>2024-12-05T20:50:33.000Z</time>
      </trkpt>
      <trkpt lat="42.79563" lon="-0.11229">
        <ele>2150</ele>
        <time>2024-12-05T20:51:18.000Z</time>
      </trkpt>
      <trkpt lat="42.79565" lon="-0.1124">
        <ele>2145</ele>
        <time>2024-12-05T20:52:04.000Z</time>
      </trkpt>
      <trkpt lat="42.79568" lon="-0.1124">
        <ele>2144</ele>
        <time>2024-12-05T20:52:49.000Z</time>
      </trkpt>
      <trkpt lat="42.7957" lon="-0.11244">
        <ele>2142</ele>
        <time>2024-12-05T20:53:34.000Z</time>
      </trkpt>
      <trkpt lat="42.79578" lon="-0.11235">
        <ele>2140</ele>
        <time>2024-12-05T20:54:20.000Z</time>
      </trkpt>
      <trkpt lat="42.79591" lon="-0.11235">
        <ele>2132</ele>
        <time>2024-12-05T20:55:05.000Z</time>
      </trkpt>
      <trkpt lat="42.79587" lon="-0.11242">
        <ele>2133</ele>
        <time>2024-12-05T20:55:51.000Z</time>
      </trkpt>
      <trkpt lat="42.79606" lon="-0.11237">
        <ele>2126</ele>
        <time>2024-12-05T20:56:36.000Z</time>
      </trkpt>
      <trkpt lat="42.79617" lon="-0.11235">
        <ele>2120</ele>
        <time>2024-12-05T20:57:22.000Z</time>
      </trkpt>
      <trkpt lat="42.79619" lon="-0.11237">
        <ele>2119</ele>
        <time>2024-12-05T20:58:07.000Z</time>
      </trkpt>
      <trkpt lat="42.79619" lon="-0.11242">
        <ele>2119</ele>
        <time>2024-12-05T20:58:53.000Z</time>
      </trkpt>
      <trkpt lat="42.79623" lon="-0.11257">
        <ele>2116</ele>
        <time>2024-12-05T20:59:38.000Z</time>
      </trkpt>
      <trkpt lat="42.79649" lon="-0.11244">
        <ele>2111</ele>
        <time>2024-12-05T21:00:24.000Z</time>
      </trkpt>
      <trkpt lat="42.79677" lon="-0.11235">
        <ele>2106</ele>
        <time>2024-12-05T21:01:10.000Z</time>
      </trkpt>
      <trkpt lat="42.79692" lon="-0.11222">
        <ele>2103</ele>
        <time>2024-12-05T21:01:55.000Z</time>
      </trkpt>
      <trkpt lat="42.79707" lon="-0.11198">
        <ele>2098</ele>
        <time>2024-12-05T21:02:41.000Z</time>
      </trkpt>
      <trkpt lat="42.79722" lon="-0.11174">
        <ele>2094</ele>
        <time>2024-12-05T21:03:26.000Z</time>
      </trkpt>
      <trkpt lat="42.79737" lon="-0.11149">
        <ele>2087</ele>
        <time>2024-12-05T21:04:12.000Z</time>
      </trkpt>
      <trkpt lat="42.79759" lon="-0.11125">
        <ele>2080</ele>
        <time>2024-12-05T21:04:58.000Z</time>
      </trkpt>
      <trkpt lat="42.7978" lon="-0.11101">
        <ele>2074</ele>
        <time>2024-12-05T21:05:44.000Z</time>
      </trkpt>
      <trkpt lat="42.79801" lon="-0.11077">
        <ele>2068</ele>
        <time>2024-12-05T21:06:30.000Z</time>
      </trkpt>
      <trkpt lat="42.79823" lon="-0.11053">
        <ele>2062</ele>
        <time>2024-12-05T21:07:15.000Z</time>
      </trkpt>
      <trkpt lat="42.79844" lon="-0.11029">
        <ele>2055</ele>
        <time>2024-12-05T21:08:01.000Z</time>
      </trkpt>
      <trkpt lat="42.79857" lon="-0.11006">
        <ele>2052</ele>
        <time>2024-12-05T21:08:47.000Z</time>
      </trkpt>
      <trkpt lat="42.7987" lon="-0.10982">
        <ele>2047</ele>
        <time>2024-12-05T21:09:33.000Z</time>
      </trkpt>
      <trkpt lat="42.79881" lon="-0.10943">
        <ele>2041</ele>
        <time>2024-12-05T21:10:19.000Z</time>
      </trkpt>
      <trkpt lat="42.79889" lon="-0.10937">
        <ele>2042</ele>
        <time>2024-12-05T21:11:05.000Z</time>
      </trkpt>
      <trkpt lat="42.79902" lon="-0.1092">
        <ele>2042</ele>
        <time>2024-12-05T21:11:51.000Z</time>
      </trkpt>
      <trkpt lat="42.79915" lon="-0.10903">
        <ele>2038</ele>
        <time>2024-12-05T21:12:37.000Z</time>
      </trkpt>
      <trkpt lat="42.79937" lon="-0.10892">
        <ele>2037</ele>
        <time>2024-12-05T21:13:23.000Z</time>
      </trkpt>
      <trkpt lat="42.79964" lon="-0.1089">
        <ele>2035</ele>
        <time>2024-12-05T21:14:10.000Z</time>
      </trkpt>
      <trkpt lat="42.79992" lon="-0.10888">
        <ele>2034</ele>
        <time>2024-12-05T21:14:56.000Z</time>
      </trkpt>
      <trkpt lat="42.8001" lon="-0.10876">
        <ele>2030</ele>
        <time>2024-12-05T21:15:42.000Z</time>
      </trkpt>
      <trkpt lat="42.80027" lon="-0.10864">
        <ele>2029</ele>
        <time>2024-12-05T21:16:28.000Z</time>
      </trkpt>
      <trkpt lat="42.80046" lon="-0.10845">
        <ele>2029</ele>
        <time>2024-12-05T21:17:14.000Z</time>
      </trkpt>
      <trkpt lat="42.80065" lon="-0.10825">
        <ele>2027</ele>
        <time>2024-12-05T21:18:01.000Z</time>
      </trkpt>
      <trkpt lat="42.80085" lon="-0.10802">
        <ele>2018</ele>
        <time>2024-12-05T21:18:47.000Z</time>
      </trkpt>
      <trkpt lat="42.80104" lon="-0.10778">
        <ele>2015</ele>
        <time>2024-12-05T21:19:33.000Z</time>
      </trkpt>
      <trkpt lat="42.80125" lon="-0.1077">
        <ele>2013</ele>
        <time>2024-12-05T21:20:20.000Z</time>
      </trkpt>
      <trkpt lat="42.80145" lon="-0.10761">
        <ele>2010</ele>
        <time>2024-12-05T21:21:06.000Z</time>
      </trkpt>
      <trkpt lat="42.80166" lon="-0.10752">
        <ele>2010</ele>
        <time>2024-12-05T21:21:53.000Z</time>
      </trkpt>
      <trkpt lat="42.80179" lon="-0.10737">
        <ele>2006</ele>
        <time>2024-12-05T21:22:39.000Z</time>
      </trkpt>
      <trkpt lat="42.80199" lon="-0.10724">
        <ele>2002</ele>
        <time>2024-12-05T21:23:26.000Z</time>
      </trkpt>
      <trkpt lat="42.8022" lon="-0.1071">
        <ele>2000</ele>
        <time>2024-12-05T21:24:12.000Z</time>
      </trkpt>
      <trkpt lat="42.8022" lon="-0.10707">
        <ele>1998</ele>
        <time>2024-12-05T21:24:59.000Z</time>
      </trkpt>
      <trkpt lat="42.80203" lon="-0.1071">
        <ele>1996</ele>
        <time>2024-12-05T21:25:45.000Z</time>
      </trkpt>
      <trkpt lat="42.80225" lon="-0.10692">
        <ele>1991</ele>
        <time>2024-12-05T21:26:32.000Z</time>
      </trkpt>
      <trkpt lat="42.80248" lon="-0.10675">
        <ele>1991</ele>
        <time>2024-12-05T21:27:18.000Z</time>
      </trkpt>
      <trkpt lat="42.8025" lon="-0.10662">
        <ele>1989</ele>
        <time>2024-12-05T21:28:05.000Z</time>
      </trkpt>
      <trkpt lat="42.80263" lon="-0.10645">
        <ele>1982</ele>
        <time>2024-12-05T21:28:52.000Z</time>
      </trkpt>
      <trkpt lat="42.80273" lon="-0.10643">
        <ele>1983</ele>
        <time>2024-12-05T21:29:38.000Z</time>
      </trkpt>
      <trkpt lat="42.80291" lon="-0.10626">
        <ele>1979</ele>
        <time>2024-12-05T21:30:25.000Z</time>
      </trkpt>
      <trkpt lat="42.80308" lon="-0.10609">
        <ele>1978</ele>
        <time>2024-12-05T21:31:12.000Z</time>
      </trkpt>
      <trkpt lat="42.80327" lon="-0.10597">
        <ele>1974</ele>
        <time>2024-12-05T21:31:59.000Z</time>
      </trkpt>
      <trkpt lat="42.80346" lon="-0.10585">
        <ele>1969</ele>
        <time>2024-12-05T21:32:45.000Z</time>
      </trkpt>
      <trkpt lat="42.80372" lon="-0.10574">
        <ele>1964</ele>
        <time>2024-12-05T21:33:32.000Z</time>
      </trkpt>
      <trkpt lat="42.80371" lon="-0.10552">
        <ele>1953</ele>
        <time>2024-12-05T21:34:19.000Z</time>
      </trkpt>
      <trkpt lat="42.8037" lon="-0.10529">
        <ele>1942</ele>
        <time>2024-12-05T21:35:06.000Z</time>
      </trkpt>
      <trkpt lat="42.80376" lon="-0.10525">
        <ele>1940</ele>
        <time>2024-12-05T21:35:53.000Z</time>
      </trkpt>
      <trkpt lat="42.80374" lon="-0.1051">
        <ele>1935</ele>
        <time>2024-12-05T21:36:40.000Z</time>
      </trkpt>
      <trkpt lat="42.80379" lon="-0.10504">
        <ele>1931</ele>
        <time>2024-12-05T21:37:26.000Z</time>
      </trkpt>
      <trkpt lat="42.80379" lon="-0.10493">
        <ele>1926</ele>
        <time>2024-12-05T21:38:13.000Z</time>
      </trkpt>
      <trkpt lat="42.80402" lon="-0.10491">
        <ele>1922</ele>
        <time>2024-12-05T21:39:00.000Z</time>
      </trkpt>
      <trkpt lat="42.80426" lon="-0.10489">
        <ele>1922</ele>
        <time>2024-12-05T21:39:47.000Z</time>
      </trkpt>
      <trkpt lat="42.80449" lon="-0.10486">
        <ele>1921</ele>
        <time>2024-12-05T21:40:34.000Z</time>
      </trkpt>
      <trkpt lat="42.80469" lon="-0.10478">
        <ele>1914</ele>
        <time>2024-12-05T21:41:21.000Z</time>
      </trkpt>
      <trkpt lat="42.80492" lon="-0.10463">
        <ele>1910</ele>
        <time>2024-12-05T21:42:08.000Z</time>
      </trkpt>
      <trkpt lat="42.80516" lon="-0.10448">
        <ele>1905</ele>
        <time>2024-12-05T21:42:55.000Z</time>
      </trkpt>
      <trkpt lat="42.8054" lon="-0.10433">
        <ele>1905</ele>
        <time>2024-12-05T21:43:43.000Z</time>
      </trkpt>
      <trkpt lat="42.80562" lon="-0.10424">
        <ele>1904</ele>
        <time>2024-12-05T21:44:30.000Z</time>
      </trkpt>
      <trkpt lat="42.80585" lon="-0.10416">
        <ele>1903</ele>
        <time>2024-12-05T21:45:17.000Z</time>
      </trkpt>
      <trkpt lat="42.8061" lon="-0.10392">
        <ele>1893</ele>
        <time>2024-12-05T21:46:04.000Z</time>
      </trkpt>
      <trkpt lat="42.8061" lon="-0.10392">
        <ele>1893</ele>
        <time>2024-12-05T21:46:51.000Z</time>
      </trkpt>
      <trkpt lat="42.80623" lon="-0.10368">
        <ele>1889</ele>
        <time>2024-12-05T21:47:39.000Z</time>
      </trkpt>
      <trkpt lat="42.80638" lon="-0.10347">
        <ele>1886</ele>
        <time>2024-12-05T21:48:26.000Z</time>
      </trkpt>
      <trkpt lat="42.80662" lon="-0.10324">
        <ele>1885</ele>
        <time>2024-12-05T21:49:13.000Z</time>
      </trkpt>
      <trkpt lat="42.80685" lon="-0.10301">
        <ele>1880</ele>
        <time>2024-12-05T21:50:01.000Z</time>
      </trkpt>
      <trkpt lat="42.80709" lon="-0.10278">
        <ele>1874</ele>
        <time>2024-12-05T21:50:48.000Z</time>
      </trkpt>
      <trkpt lat="42.80711" lon="-0.10268">
        <ele>1873</ele>
        <time>2024-12-05T21:51:36.000Z</time>
      </trkpt>
      <trkpt lat="42.80713" lon="-0.10244">
        <ele>1864</ele>
        <time>2024-12-05T21:52:23.000Z</time>
      </trkpt>
      <trkpt lat="42.80726" lon="-0.1022">
        <ele>1857</ele>
        <time>2024-12-05T21:53:10.000Z</time>
      </trkpt>
      <trkpt lat="42.8072" lon="-0.10214">
        <ele>1854</ele>
        <time>2024-12-05T21:53:58.000Z</time>
      </trkpt>
      <trkpt lat="42.80737" lon="-0.10201">
        <ele>1849</ele>
        <time>2024-12-05T21:54:45.000Z</time>
      </trkpt>
      <trkpt lat="42.80728" lon="-0.10195">
        <ele>1847</ele>
        <time>2024-12-05T21:55:33.000Z</time>
      </trkpt>
      <trkpt lat="42.80722" lon="-0.10182">
        <ele>1843</ele>
        <time>2024-12-05T21:56:21.000Z</time>
      </trkpt>
      <trkpt lat="42.80731" lon="-0.10177">
        <ele>1842</ele>
        <time>2024-12-05T21:57:08.000Z</time>
      </trkpt>
      <trkpt lat="42.8075" lon="-0.10152">
        <ele>1838</ele>
        <time>2024-12-05T21:57:56.000Z</time>
      </trkpt>
      <trkpt lat="42.80752" lon="-0.10135">
        <ele>1837</ele>
        <time>2024-12-05T21:58:43.000Z</time>
      </trkpt>
      <trkpt lat="42.80739" lon="-0.10113">
        <ele>1833</ele>
        <time>2024-12-05T21:59:31.000Z</time>
      </trkpt>
      <trkpt lat="42.80733" lon="-0.10115">
        <ele>1831</ele>
        <time>2024-12-05T22:00:19.000Z</time>
      </trkpt>
      <trkpt lat="42.80728" lon="-0.10111">
        <ele>1829</ele>
        <time>2024-12-05T22:01:06.000Z</time>
      </trkpt>
      <trkpt lat="42.80722" lon="-0.10111">
        <ele>1826</ele>
        <time>2024-12-05T22:01:54.000Z</time>
      </trkpt>
      <trkpt lat="42.80722" lon="-0.10104">
        <ele>1825</ele>
        <time>2024-12-05T22:02:41.000Z</time>
      </trkpt>
      <trkpt lat="42.80735" lon="-0.10078">
        <ele>1824</ele>
        <time>2024-12-05T22:03:29.000Z</time>
      </trkpt>
      <trkpt lat="42.80748" lon="-0.10051">
        <ele>1819</ele>
        <time>2024-12-05T22:04:17.000Z</time>
      </trkpt>
      <trkpt lat="42.8075" lon="-0.10032">
        <ele>1817</ele>
        <time>2024-12-05T22:05:05.000Z</time>
      </trkpt>
      <trkpt lat="42.80758" lon="-0.10012">
        <ele>1814</ele>
        <time>2024-12-05T22:05:52.000Z</time>
      </trkpt>
      <trkpt lat="42.80761" lon="-0.10008">
        <ele>1813</ele>
        <time>2024-12-05T22:06:40.000Z</time>
      </trkpt>
      <trkpt lat="42.80756" lon="-0.09999">
        <ele>1811</ele>
        <time>2024-12-05T22:07:28.000Z</time>
      </trkpt>
      <trkpt lat="42.80768" lon="-0.0998">
        <ele>1809</ele>
        <time>2024-12-05T22:08:16.000Z</time>
      </trkpt>
      <trkpt lat="42.8078" lon="-0.09961">
        <ele>1807</ele>
        <time>2024-12-05T22:09:04.000Z</time>
      </trkpt>
      <trkpt lat="42.80782" lon="-0.09941">
        <ele>1805</ele>
        <time>2024-12-05T22:09:51.000Z</time>
      </trkpt>
      <trkpt lat="42.80799" lon="-0.09944">
        <ele>1804</ele>
        <time>2024-12-05T22:10:39.000Z</time>
      </trkpt>
      <trkpt lat="42.80806" lon="-0.09944">
        <ele>1803</ele>
        <time>2024-12-05T22:11:27.000Z</time>
      </trkpt>
      <trkpt lat="42.80806" lon="-0.09952">
        <ele>1803</ele>
        <time>2024-12-05T22:12:15.000Z</time>
      </trkpt>
      <trkpt lat="42.80823" lon="-0.09963">
        <ele>1798</ele>
        <time>2024-12-05T22:13:03.000Z</time>
      </trkpt>
      <trkpt lat="42.80836" lon="-0.09961">
        <ele>1796</ele>
        <time>2024-12-05T22:13:51.000Z</time>
      </trkpt>
      <trkpt lat="42.80851" lon="-0.09961">
        <ele>1794</ele>
        <time>2024-12-05T22:14:39.000Z</time>
      </trkpt>
      <trkpt lat="42.80868" lon="-0.09969">
        <ele>1792</ele>
        <time>2024-12-05T22:15:27.000Z</time>
      </trkpt>
      <trkpt lat="42.80887" lon="-0.09982">
        <ele>1790</ele>
        <time>2024-12-05T22:16:15.000Z</time>
      </trkpt>
      <trkpt lat="42.80915" lon="-0.09997">
        <ele>1788</ele>
        <time>2024-12-05T22:17:03.000Z</time>
      </trkpt>
      <trkpt lat="42.80928" lon="-0.09995">
        <ele>1786</ele>
        <time>2024-12-05T22:17:51.000Z</time>
      </trkpt>
      <trkpt lat="42.80939" lon="-0.10012">
        <ele>1786</ele>
        <time>2024-12-05T22:18:39.000Z</time>
      </trkpt>
      <trkpt lat="42.80945" lon="-0.1001">
        <ele>1784</ele>
        <time>2024-12-05T22:19:27.000Z</time>
      </trkpt>
      <trkpt lat="42.80945" lon="-0.09995">
        <ele>1781</ele>
        <time>2024-12-05T22:20:15.000Z</time>
      </trkpt>
      <trkpt lat="42.80952" lon="-0.09997">
        <ele>1781</ele>
        <time>2024-12-05T22:21:03.000Z</time>
      </trkpt>
      <trkpt lat="42.80952" lon="-0.09984">
        <ele>1779</ele>
        <time>2024-12-05T22:21:52.000Z</time>
      </trkpt>
      <trkpt lat="42.80956" lon="-0.09978">
        <ele>1777</ele>
        <time>2024-12-05T22:22:40.000Z</time>
      </trkpt>
      <trkpt lat="42.80972" lon="-0.0997">
        <ele>1773</ele>
        <time>2024-12-05T22:23:28.000Z</time>
      </trkpt>
      <trkpt lat="42.80988" lon="-0.09963">
        <ele>1771</ele>
        <time>2024-12-05T22:24:16.000Z</time>
      </trkpt>
      <trkpt lat="42.8101" lon="-0.09958">
        <ele>1769</ele>
        <time>2024-12-05T22:25:04.000Z</time>
      </trkpt>
      <trkpt lat="42.81032" lon="-0.09953">
        <ele>1765</ele>
        <time>2024-12-05T22:25:52.000Z</time>
      </trkpt>
      <trkpt lat="42.81055" lon="-0.09948">
        <ele>1763</ele>
        <time>2024-12-05T22:26:41.000Z</time>
      </trkpt>
      <trkpt lat="42.81075" lon="-0.09947">
        <ele>1761</ele>
        <time>2024-12-05T22:27:29.000Z</time>
      </trkpt>
      <trkpt lat="42.81095" lon="-0.09946">
        <ele>1759</ele>
        <time>2024-12-05T22:28:17.000Z</time>
      </trkpt>
      <trkpt lat="42.81112" lon="-0.09952">
        <ele>1757</ele>
        <time>2024-12-05T22:29:06.000Z</time>
      </trkpt>
      <trkpt lat="42.81117" lon="-0.09961">
        <ele>1759</ele>
        <time>2024-12-05T22:29:54.000Z</time>
      </trkpt>
      <trkpt lat="42.81136" lon="-0.09963">
        <ele>1755</ele>
        <time>2024-12-05T22:30:42.000Z</time>
      </trkpt>
      <trkpt lat="42.81158" lon="-0.09953">
        <ele>1747</ele>
        <time>2024-12-05T22:31:31.000Z</time>
      </trkpt>
      <trkpt lat="42.81179" lon="-0.09943">
        <ele>1741</ele>
        <time>2024-12-05T22:32:19.000Z</time>
      </trkpt>
      <trkpt lat="42.812" lon="-0.09933">
        <ele>1737</ele>
        <time>2024-12-05T22:33:08.000Z</time>
      </trkpt>
      <trkpt lat="42.81209" lon="-0.0992">
        <ele>1732</ele>
        <time>2024-12-05T22:33:56.000Z</time>
      </trkpt>
      <trkpt lat="42.81215" lon="-0.09905">
        <ele>1726</ele>
        <time>2024-12-05T22:34:45.000Z</time>
      </trkpt>
      <trkpt lat="42.81237" lon="-0.099">
        <ele>1723</ele>
        <time>2024-12-05T22:35:33.000Z</time>
      </trkpt>
      <trkpt lat="42.81258" lon="-0.09894">
        <ele>1720</ele>
        <time>2024-12-05T22:36:22.000Z</time>
      </trkpt>
      <trkpt lat="42.81288" lon="-0.09903">
        <ele>1719</ele>
        <time>2024-12-05T22:37:11.000Z</time>
      </trkpt>
      <trkpt lat="42.81306" lon="-0.09894">
        <ele>1715</ele>
        <time>2024-12-05T22:37:59.000Z</time>
      </trkpt>
      <trkpt lat="42.8131" lon="-0.09898">
        <ele>1715</ele>
        <time>2024-12-05T22:38:48.000Z</time>
      </trkpt>
      <trkpt lat="42.81318" lon="-0.09892">
        <ele>1713</ele>
        <time>2024-12-05T22:39:36.000Z</time>
      </trkpt>
      <trkpt lat="42.81321" lon="-0.09875">
        <ele>1709</ele>
        <time>2024-12-05T22:40:25.000Z</time>
      </trkpt>
      <trkpt lat="42.81331" lon="-0.09875">
        <ele>1708</ele>
        <time>2024-12-05T22:41:14.000Z</time>
      </trkpt>
      <trkpt lat="42.81338" lon="-0.09879">
        <ele>1708</ele>
        <time>2024-12-05T22:42:03.000Z</time>
      </trkpt>
      <trkpt lat="42.81344" lon="-0.09866">
        <ele>1706</ele>
        <time>2024-12-05T22:42:51.000Z</time>
      </trkpt>
      <trkpt lat="42.81369" lon="-0.09878">
        <ele>1704</ele>
        <time>2024-12-05T22:43:40.000Z</time>
      </trkpt>
      <trkpt lat="42.81394" lon="-0.0989">
        <ele>1700</ele>
        <time>2024-12-05T22:44:29.000Z</time>
      </trkpt>
      <trkpt lat="42.81419" lon="-0.0989">
        <ele>1693</ele>
        <time>2024-12-05T22:45:18.000Z</time>
      </trkpt>
      <trkpt lat="42.8143" lon="-0.09886">
        <ele>1690</ele>
        <time>2024-12-05T22:46:06.000Z</time>
      </trkpt>
      <trkpt lat="42.8143" lon="-0.09877">
        <ele>1688</ele>
        <time>2024-12-05T22:46:55.000Z</time>
      </trkpt>
      <trkpt lat="42.81434" lon="-0.09877">
        <ele>1687</ele>
        <time>2024-12-05T22:47:44.000Z</time>
      </trkpt>
      <trkpt lat="42.81439" lon="-0.09864">
        <ele>1684</ele>
        <time>2024-12-05T22:48:33.000Z</time>
      </trkpt>
      <trkpt lat="42.81456" lon="-0.09858">
        <ele>1678</ele>
        <time>2024-12-05T22:49:22.000Z</time>
      </trkpt>
      <trkpt lat="42.81473" lon="-0.09856">
        <ele>1673</ele>
        <time>2024-12-05T22:50:11.000Z</time>
      </trkpt>
      <trkpt lat="42.81492" lon="-0.09864">
        <ele>1666</ele>
        <time>2024-12-05T22:51:00.000Z</time>
      </trkpt>
      <trkpt lat="42.81492" lon="-0.09838">
        <ele>1663</ele>
        <time>2024-12-05T22:51:49.000Z</time>
      </trkpt>
      <trkpt lat="42.81514" lon="-0.0986">
        <ele>1654</ele>
        <time>2024-12-05T22:52:38.000Z</time>
      </trkpt>
      <trkpt lat="42.8152" lon="-0.09849">
        <ele>1651</ele>
        <time>2024-12-05T22:53:27.000Z</time>
      </trkpt>
      <trkpt lat="42.81531" lon="-0.09851">
        <ele>1648</ele>
        <time>2024-12-05T22:54:16.000Z</time>
      </trkpt>
      <trkpt lat="42.81546" lon="-0.0986">
        <ele>1643</ele>
        <time>2024-12-05T22:55:05.000Z</time>
      </trkpt>
      <trkpt lat="42.81561" lon="-0.09868">
        <ele>1640</ele>
        <time>2024-12-05T22:55:54.000Z</time>
      </trkpt>
      <trkpt lat="42.81581" lon="-0.09875">
        <ele>1636</ele>
        <time>2024-12-05T22:56:43.000Z</time>
      </trkpt>
      <trkpt lat="42.81602" lon="-0.09881">
        <ele>1633</ele>
        <time>2024-12-05T22:57:32.000Z</time>
      </trkpt>
      <trkpt lat="42.8161" lon="-0.09866">
        <ele>1630</ele>
        <time>2024-12-05T22:58:21.000Z</time>
      </trkpt>
      <trkpt lat="42.81636" lon="-0.09868">
        <ele>1626</ele>
        <time>2024-12-05T22:59:10.000Z</time>
      </trkpt>
      <trkpt lat="42.81655" lon="-0.09864">
        <ele>1622</ele>
        <time>2024-12-05T22:59:59.000Z</time>
      </trkpt>
      <trkpt lat="42.81668" lon="-0.0985">
        <ele>1619</ele>
        <time>2024-12-05T23:00:49.000Z</time>
      </trkpt>
      <trkpt lat="42.81681" lon="-0.09836">
        <ele>1616</ele>
        <time>2024-12-05T23:01:38.000Z</time>
      </trkpt>
      <trkpt lat="42.81698" lon="-0.09836">
        <ele>1615</ele>
        <time>2024-12-05T23:02:27.000Z</time>
      </trkpt>
      <trkpt lat="42.81715" lon="-0.09836">
        <ele>1614</ele>
        <time>2024-12-05T23:03:17.000Z</time>
      </trkpt>
      <trkpt lat="42.81735" lon="-0.09843">
        <ele>1614</ele>
        <time>2024-12-05T23:04:06.000Z</time>
      </trkpt>
      <trkpt lat="42.81743" lon="-0.09836">
        <ele>1613</ele>
        <time>2024-12-05T23:04:55.000Z</time>
      </trkpt>
      <trkpt lat="42.8176" lon="-0.09834">
        <ele>1612</ele>
        <time>2024-12-05T23:05:45.000Z</time>
      </trkpt>
      <trkpt lat="42.81778" lon="-0.09832">
        <ele>1611</ele>
        <time>2024-12-05T23:06:34.000Z</time>
      </trkpt>
      <trkpt lat="42.81796" lon="-0.09818">
        <ele>1609</ele>
        <time>2024-12-05T23:07:23.000Z</time>
      </trkpt>
      <trkpt lat="42.81814" lon="-0.09804">
        <ele>1607</ele>
        <time>2024-12-05T23:08:13.000Z</time>
      </trkpt>
      <trkpt lat="42.81825" lon="-0.09802">
        <ele>1607</ele>
        <time>2024-12-05T23:09:02.000Z</time>
      </trkpt>
      <trkpt lat="42.81838" lon="-0.09793">
        <ele>1605</ele>
        <time>2024-12-05T23:09:52.000Z</time>
      </trkpt>
      <trkpt lat="42.81848" lon="-0.0978">
        <ele>1602</ele>
        <time>2024-12-05T23:10:41.000Z</time>
      </trkpt>
      <trkpt lat="42.81853" lon="-0.09789">
        <ele>1602</ele>
        <time>2024-12-05T23:11:31.000Z</time>
      </trkpt>
      <trkpt lat="42.81864" lon="-0.09789">
        <ele>1601</ele>
        <time>2024-12-05T23:12:20.000Z</time>
      </trkpt>
      <trkpt lat="42.81874" lon="-0.09805">
        <ele>1601</ele>
        <time>2024-12-05T23:13:10.000Z</time>
      </trkpt>
      <trkpt lat="42.81885" lon="-0.09821">
        <ele>1601</ele>
        <time>2024-12-05T23:13:59.000Z</time>
      </trkpt>
      <trkpt lat="42.81887" lon="-0.09823">
        <ele>1601</ele>
        <time>2024-12-05T23:14:49.000Z</time>
      </trkpt>
      <trkpt lat="42.81907" lon="-0.09826">
        <ele>1599</ele>
        <time>2024-12-05T23:15:38.000Z</time>
      </trkpt>
      <trkpt lat="42.81928" lon="-0.09828">
        <ele>1599</ele>
        <time>2024-12-05T23:16:28.000Z</time>
      </trkpt>
      <trkpt lat="42.81928" lon="-0.09828">
        <ele>1599</ele>
        <time>2024-12-05T23:17:18.000Z</time>
      </trkpt>
      <trkpt lat="42.81951" lon="-0.09826">
        <ele>1599</ele>
        <time>2024-12-05T23:18:07.000Z</time>
      </trkpt>
      <trkpt lat="42.81975" lon="-0.09823">
        <ele>1598</ele>
        <time>2024-12-05T23:18:57.000Z</time>
      </trkpt>
      <trkpt lat="42.8199" lon="-0.09817">
        <ele>1595</ele>
        <time>2024-12-05T23:19:47.000Z</time>
      </trkpt>
      <trkpt lat="42.82016" lon="-0.09795">
        <ele>1587</ele>
        <time>2024-12-05T23:20:36.000Z</time>
      </trkpt>
      <trkpt lat="42.82024" lon="-0.09798">
        <ele>1586</ele>
        <time>2024-12-05T23:21:26.000Z</time>
      </trkpt>
      <trkpt lat="42.82033" lon="-0.09791">
        <ele>1584</ele>
        <time>2024-12-05T23:22:16.000Z</time>
      </trkpt>
      <trkpt lat="42.8205" lon="-0.09792">
        <ele>1583</ele>
        <time>2024-12-05T23:23:06.000Z</time>
      </trkpt>
      <trkpt lat="42.82067" lon="-0.09793">
        <ele>1582</ele>
        <time>2024-12-05T23:23:55.000Z</time>
      </trkpt>
      <trkpt lat="42.82089" lon="-0.09802">
        <ele>1582</ele>
        <time>2024-12-05T23:24:45.000Z</time>
      </trkpt>
      <trkpt lat="42.82089" lon="-0.09802">
        <ele>1582</ele>
        <time>2024-12-05T23:25:35.000Z</time>
      </trkpt>
      <trkpt lat="42.821" lon="-0.09798">
        <ele>1578</ele>
        <time>2024-12-05T23:26:25.000Z</time>
      </trkpt>
      <trkpt lat="42.82115" lon="-0.09804">
        <ele>1580</ele>
        <time>2024-12-05T23:27:15.000Z</time>
      </trkpt>
      <trkpt lat="42.82142" lon="-0.09787">
        <ele>1574</ele>
        <time>2024-12-05T23:28:05.000Z</time>
      </trkpt>
      <trkpt lat="42.82153" lon="-0.09789">
        <ele>1574</ele>
        <time>2024-12-05T23:28:55.000Z</time>
      </trkpt>
      <trkpt lat="42.82177" lon="-0.09778">
        <ele>1570</ele>
        <time>2024-12-05T23:29:45.000Z</time>
      </trkpt>
      <trkpt lat="42.82194" lon="-0.09765">
        <ele>1569</ele>
        <time>2024-12-05T23:30:35.000Z</time>
      </trkpt>
      <trkpt lat="42.822" lon="-0.09755">
        <ele>1567</ele>
        <time>2024-12-05T23:31:25.000Z</time>
      </trkpt>
      <trkpt lat="42.82225" lon="-0.0974">
        <ele>1564</ele>
        <time>2024-12-05T23:32:15.000Z</time>
      </trkpt>
      <trkpt lat="42.8225" lon="-0.09725">
        <ele>1561</ele>
        <time>2024-12-05T23:33:05.000Z</time>
      </trkpt>
      <trkpt lat="42.82273" lon="-0.09718">
        <ele>1559</ele>
        <time>2024-12-05T23:33:55.000Z</time>
      </trkpt>
      <trkpt lat="42.82295" lon="-0.09718">
        <ele>1558</ele>
        <time>2024-12-05T23:34:45.000Z</time>
      </trkpt>
      <trkpt lat="42.82308" lon="-0.09714">
        <ele>1557</ele>
        <time>2024-12-05T23:35:35.000Z</time>
      </trkpt>
      <trkpt lat="42.82318" lon="-0.09716">
        <ele>1557</ele>
        <time>2024-12-05T23:36:25.000Z</time>
      </trkpt>
      <trkpt lat="42.8234" lon="-0.09708">
        <ele>1556</ele>
        <time>2024-12-05T23:37:15.000Z</time>
      </trkpt>
      <trkpt lat="42.82363" lon="-0.09688">
        <ele>1555</ele>
        <time>2024-12-05T23:38:06.000Z</time>
      </trkpt>
      <trkpt lat="42.82376" lon="-0.09674">
        <ele>1553</ele>
        <time>2024-12-05T23:38:56.000Z</time>
      </trkpt>
      <trkpt lat="42.82389" lon="-0.0966">
        <ele>1552</ele>
        <time>2024-12-05T23:39:46.000Z</time>
      </trkpt>
      <trkpt lat="42.82387" lon="-0.09647">
        <ele>1551</ele>
        <time>2024-12-05T23:40:36.000Z</time>
      </trkpt>
      <trkpt lat="42.82389" lon="-0.09639">
        <ele>1551</ele>
        <time>2024-12-05T23:41:27.000Z</time>
      </trkpt>
      <trkpt lat="42.82404" lon="-0.09639">
        <ele>1551</ele>
        <time>2024-12-05T23:42:17.000Z</time>
      </trkpt>
      <trkpt lat="42.82426" lon="-0.09628">
        <ele>1551</ele>
        <time>2024-12-05T23:43:07.000Z</time>
      </trkpt>
      <trkpt lat="42.82441" lon="-0.09632">
        <ele>1549</ele>
        <time>2024-12-05T23:43:58.000Z</time>
      </trkpt>
      <trkpt lat="42.82462" lon="-0.0962">
        <ele>1549</ele>
        <time>2024-12-05T23:44:48.000Z</time>
      </trkpt>
      <trkpt lat="42.82473" lon="-0.09622">
        <ele>1548</ele>
        <time>2024-12-05T23:45:39.000Z</time>
      </trkpt>
      <trkpt lat="42.82475" lon="-0.09626">
        <ele>1548</ele>
        <time>2024-12-05T23:46:29.000Z</time>
      </trkpt>
      <trkpt lat="42.82486" lon="-0.09622">
        <ele>1548</ele>
        <time>2024-12-05T23:47:19.000Z</time>
      </trkpt>
      <trkpt lat="42.82494" lon="-0.09626">
        <ele>1547</ele>
        <time>2024-12-05T23:48:10.000Z</time>
      </trkpt>
      <trkpt lat="42.82507" lon="-0.09628">
        <ele>1546</ele>
        <time>2024-12-05T23:49:00.000Z</time>
      </trkpt>
      <trkpt lat="42.82529" lon="-0.09617">
        <ele>1547</ele>
        <time>2024-12-05T23:49:51.000Z</time>
      </trkpt>
      <trkpt lat="42.82559" lon="-0.09615">
        <ele>1549</ele>
        <time>2024-12-05T23:50:41.000Z</time>
      </trkpt>
      <trkpt lat="42.82569" lon="-0.09622">
        <ele>1548</ele>
        <time>2024-12-05T23:51:32.000Z</time>
      </trkpt>
      <trkpt lat="42.82576" lon="-0.0963">
        <ele>1546</ele>
        <time>2024-12-05T23:52:22.000Z</time>
      </trkpt>
      <trkpt lat="42.82591" lon="-0.0963">
        <ele>1546</ele>
        <time>2024-12-05T23:53:13.000Z</time>
      </trkpt>
      <trkpt lat="42.8261" lon="-0.0962">
        <ele>1547</ele>
        <time>2024-12-05T23:54:04.000Z</time>
      </trkpt>
      <trkpt lat="42.82626" lon="-0.09621">
        <ele>1545</ele>
        <time>2024-12-05T23:54:54.000Z</time>
      </trkpt>
      <trkpt lat="42.82642" lon="-0.09622">
        <ele>1543</ele>
        <time>2024-12-05T23:55:45.000Z</time>
      </trkpt>
      <trkpt lat="42.82658" lon="-0.0961">
        <ele>1541</ele>
        <time>2024-12-05T23:56:36.000Z</time>
      </trkpt>
      <trkpt lat="42.82675" lon="-0.09598">
        <ele>1542</ele>
        <time>2024-12-05T23:57:26.000Z</time>
      </trkpt>
      <trkpt lat="42.82698" lon="-0.09572">
        <ele>1542</ele>
        <time>2024-12-05T23:58:17.000Z</time>
      </trkpt>
      <trkpt lat="42.82698" lon="-0.0957">
        <ele>1543</ele>
        <time>2024-12-05T23:59:08.000Z</time>
      </trkpt>
      <trkpt lat="42.82707" lon="-0.09568">
        <ele>1543</ele>
        <time>2024-12-05T23:59:59.000Z</time>
      </trkpt>
      <trkpt lat="42.82724" lon="-0.09566">
        <ele>1542</ele>
        <time>2024-12-06T00:00:49.000Z</time>
      </trkpt>
      <trkpt lat="42.82752" lon="-0.09582">
        <ele>1539</ele>
        <time>2024-12-06T00:01:40.000Z</time>
      </trkpt>
      <trkpt lat="42.8278" lon="-0.09598">
        <ele>1536</ele>
        <time>2024-12-06T00:02:31.000Z</time>
      </trkpt>
      <trkpt lat="42.82788" lon="-0.09609">
        <ele>1534</ele>
        <time>2024-12-06T00:03:22.000Z</time>
      </trkpt>
      <trkpt lat="42.82816" lon="-0.09613">
        <ele>1534</ele>
        <time>2024-12-06T00:04:13.000Z</time>
      </trkpt>
      <trkpt lat="42.82836" lon="-0.09628">
        <ele>1530</ele>
        <time>2024-12-06T00:05:04.000Z</time>
      </trkpt>
      <trkpt lat="42.82859" lon="-0.09635">
        <ele>1528</ele>
        <time>2024-12-06T00:05:55.000Z</time>
      </trkpt>
      <trkpt lat="42.8287" lon="-0.09645">
        <ele>1525</ele>
        <time>2024-12-06T00:06:46.000Z</time>
      </trkpt>
      <trkpt lat="42.82891" lon="-0.0965">
        <ele>1524</ele>
        <time>2024-12-06T00:07:37.000Z</time>
      </trkpt>
      <trkpt lat="42.82913" lon="-0.09647">
        <ele>1524</ele>
        <time>2024-12-06T00:08:28.000Z</time>
      </trkpt>
      <trkpt lat="42.82926" lon="-0.09654">
        <ele>1523</ele>
        <time>2024-12-06T00:09:19.000Z</time>
      </trkpt>
      <trkpt lat="42.8295" lon="-0.0965">
        <ele>1521</ele>
        <time>2024-12-06T00:10:10.000Z</time>
      </trkpt>
      <trkpt lat="42.82975" lon="-0.09645">
        <ele>1521</ele>
        <time>2024-12-06T00:11:01.000Z</time>
      </trkpt>
      <trkpt lat="42.82988" lon="-0.09654">
        <ele>1519</ele>
        <time>2024-12-06T00:11:52.000Z</time>
      </trkpt>
      <trkpt lat="42.83009" lon="-0.09658">
        <ele>1519</ele>
        <time>2024-12-06T00:12:43.000Z</time>
      </trkpt>
      <trkpt lat="42.83018" lon="-0.09641">
        <ele>1519</ele>
        <time>2024-12-06T00:13:35.000Z</time>
      </trkpt>
      <trkpt lat="42.83035" lon="-0.09626">
        <ele>1519</ele>
        <time>2024-12-06T00:14:26.000Z</time>
      </trkpt>
      <trkpt lat="42.8305" lon="-0.0962">
        <ele>1519</ele>
        <time>2024-12-06T00:15:17.000Z</time>
      </trkpt>
      <trkpt lat="42.83074" lon="-0.09615">
        <ele>1518</ele>
        <time>2024-12-06T00:16:08.000Z</time>
      </trkpt>
      <trkpt lat="42.83097" lon="-0.09605">
        <ele>1517</ele>
        <time>2024-12-06T00:17:00.000Z</time>
      </trkpt>
      <trkpt lat="42.8312" lon="-0.09595">
        <ele>1515</ele>
        <time>2024-12-06T00:17:51.000Z</time>
      </trkpt>
      <trkpt lat="42.83143" lon="-0.09585">
        <ele>1511</ele>
        <time>2024-12-06T00:18:42.000Z</time>
      </trkpt>
      <trkpt lat="42.83166" lon="-0.09574">
        <ele>1510</ele>
        <time>2024-12-06T00:19:34.000Z</time>
      </trkpt>
      <trkpt lat="42.83175" lon="-0.09581">
        <ele>1507</ele>
        <time>2024-12-06T00:20:25.000Z</time>
      </trkpt>
      <trkpt lat="42.83197" lon="-0.09578">
        <ele>1504</ele>
        <time>2024-12-06T00:21:17.000Z</time>
      </trkpt>
      <trkpt lat="42.8322" lon="-0.09574">
        <ele>1501</ele>
        <time>2024-12-06T00:22:08.000Z</time>
      </trkpt>
      <trkpt lat="42.83245" lon="-0.09589">
        <ele>1497</ele>
        <time>2024-12-06T00:23:00.000Z</time>
      </trkpt>
      <trkpt lat="42.83256" lon="-0.096">
        <ele>1494</ele>
        <time>2024-12-06T00:23:51.000Z</time>
      </trkpt>
      <trkpt lat="42.83273" lon="-0.09602">
        <ele>1493</ele>
        <time>2024-12-06T00:24:43.000Z</time>
      </trkpt>
      <trkpt lat="42.8329" lon="-0.09605">
        <ele>1490</ele>
        <time>2024-12-06T00:25:34.000Z</time>
      </trkpt>
      <trkpt lat="42.8332" lon="-0.09601">
        <ele>1489</ele>
        <time>2024-12-06T00:26:26.000Z</time>
      </trkpt>
      <trkpt lat="42.83349" lon="-0.09597">
        <ele>1489</ele>
        <time>2024-12-06T00:27:18.000Z</time>
      </trkpt>
      <trkpt lat="42.83378" lon="-0.09594">
        <ele>1488</ele>
        <time>2024-12-06T00:28:09.000Z</time>
      </trkpt>
      <trkpt lat="42.83389" lon="-0.09596">
        <ele>1488</ele>
        <time>2024-12-06T00:29:01.000Z</time>
      </trkpt>
      <trkpt lat="42.83408" lon="-0.09609">
        <ele>1486</ele>
        <time>2024-12-06T00:29:53.000Z</time>
      </trkpt>
      <trkpt lat="42.83425" lon="-0.09609">
        <ele>1486</ele>
        <time>2024-12-06T00:30:45.000Z</time>
      </trkpt>
      <trkpt lat="42.83441" lon="-0.09609">
        <ele>1486</ele>
        <time>2024-12-06T00:31:36.000Z</time>
      </trkpt>
      <trkpt lat="42.83464" lon="-0.09617">
        <ele>1484</ele>
        <time>2024-12-06T00:32:28.000Z</time>
      </trkpt>
      <trkpt lat="42.83486" lon="-0.09631">
        <ele>1480</ele>
        <time>2024-12-06T00:33:20.000Z</time>
      </trkpt>
      <trkpt lat="42.83507" lon="-0.09645">
        <ele>1479</ele>
        <time>2024-12-06T00:34:12.000Z</time>
      </trkpt>
      <trkpt lat="42.83524" lon="-0.0965">
        <ele>1478</ele>
        <time>2024-12-06T00:35:04.000Z</time>
      </trkpt>
      <trkpt lat="42.8355" lon="-0.09661">
        <ele>1478</ele>
        <time>2024-12-06T00:35:56.000Z</time>
      </trkpt>
      <trkpt lat="42.83576" lon="-0.09673">
        <ele>1475</ele>
        <time>2024-12-06T00:36:48.000Z</time>
      </trkpt>
      <trkpt lat="42.83603" lon="-0.09669">
        <ele>1475</ele>
        <time>2024-12-06T00:37:40.000Z</time>
      </trkpt>
      <trkpt lat="42.83629" lon="-0.09665">
        <ele>1474</ele>
        <time>2024-12-06T00:38:32.000Z</time>
      </trkpt>
      <trkpt lat="42.83646" lon="-0.0967">
        <ele>1473</ele>
        <time>2024-12-06T00:39:24.000Z</time>
      </trkpt>
      <trkpt lat="42.83662" lon="-0.09675">
        <ele>1472</ele>
        <time>2024-12-06T00:40:16.000Z</time>
      </trkpt>
      <trkpt lat="42.83675" lon="-0.09673">
        <ele>1472</ele>
        <time>2024-12-06T00:41:08.000Z</time>
      </trkpt>
      <trkpt lat="42.83695" lon="-0.09661">
        <ele>1471</ele>
        <time>2024-12-06T00:42:00.000Z</time>
      </trkpt>
      <trkpt lat="42.83715" lon="-0.09649">
        <ele>1470</ele>
        <time>2024-12-06T00:42:52.000Z</time>
      </trkpt>
      <trkpt lat="42.83735" lon="-0.09637">
        <ele>1469</ele>
        <time>2024-12-06T00:43:45.000Z</time>
      </trkpt>
      <trkpt lat="42.83762" lon="-0.09627">
        <ele>1468</ele>
        <time>2024-12-06T00:44:37.000Z</time>
      </trkpt>
      <trkpt lat="42.8379" lon="-0.09617">
        <ele>1467</ele>
        <time>2024-12-06T00:45:29.000Z</time>
      </trkpt>
      <trkpt lat="42.83818" lon="-0.09605">
        <ele>1466</ele>
        <time>2024-12-06T00:46:21.000Z</time>
      </trkpt>
      <trkpt lat="42.83835" lon="-0.096">
        <ele>1466</ele>
        <time>2024-12-06T00:47:14.000Z</time>
      </trkpt>
      <trkpt lat="42.83853" lon="-0.09602">
        <ele>1466</ele>
        <time>2024-12-06T00:48:06.000Z</time>
      </trkpt>
      <trkpt lat="42.83876" lon="-0.09613">
        <ele>1464</ele>
        <time>2024-12-06T00:48:58.000Z</time>
      </trkpt>
      <trkpt lat="42.83894" lon="-0.09615">
        <ele>1464</ele>
        <time>2024-12-06T00:49:51.000Z</time>
      </trkpt>
      <trkpt lat="42.83913" lon="-0.09617">
        <ele>1463</ele>
        <time>2024-12-06T00:50:43.000Z</time>
      </trkpt>
      <trkpt lat="42.83936" lon="-0.09628">
        <ele>1463</ele>
        <time>2024-12-06T00:51:36.000Z</time>
      </trkpt>
      <trkpt lat="42.83953" lon="-0.09626">
        <ele>1463</ele>
        <time>2024-12-06T00:52:28.000Z</time>
      </trkpt>
      <trkpt lat="42.83973" lon="-0.09632">
        <ele>1462</ele>
        <time>2024-12-06T00:53:21.000Z</time>
      </trkpt>
      <trkpt lat="42.83995" lon="-0.09647">
        <ele>1460</ele>
        <time>2024-12-06T00:54:13.000Z</time>
      </trkpt>
      <trkpt lat="42.84018" lon="-0.09662">
        <ele>1460</ele>
        <time>2024-12-06T00:55:06.000Z</time>
      </trkpt>
      <trkpt lat="42.84037" lon="-0.09658">
        <ele>1459</ele>
        <time>2024-12-06T00:55:59.000Z</time>
      </trkpt>
      <trkpt lat="42.8405" lon="-0.09662">
        <ele>1458</ele>
        <time>2024-12-06T00:56:51.000Z</time>
      </trkpt>
      <trkpt lat="42.8405" lon="-0.09662">
        <ele>1458</ele>
        <time>2024-12-06T00:57:44.000Z</time>
      </trkpt>
      <trkpt lat="42.84076" lon="-0.09667">
        <ele>1456</ele>
        <time>2024-12-06T00:58:37.000Z</time>
      </trkpt>
      <trkpt lat="42.84091" lon="-0.09684">
        <ele>1454</ele>
        <time>2024-12-06T00:59:29.000Z</time>
      </trkpt>
      <trkpt lat="42.84106" lon="-0.09701">
        <ele>1452</ele>
        <time>2024-12-06T01:00:22.000Z</time>
      </trkpt>
      <trkpt lat="42.84121" lon="-0.0972">
        <ele>1450</ele>
        <time>2024-12-06T01:01:15.000Z</time>
      </trkpt>
      <trkpt lat="42.84144" lon="-0.09738">
        <ele>1446</ele>
        <time>2024-12-06T01:02:08.000Z</time>
      </trkpt>
      <trkpt lat="42.8417" lon="-0.09731">
        <ele>1443</ele>
        <time>2024-12-06T01:03:00.000Z</time>
      </trkpt>
      <trkpt lat="42.84183" lon="-0.0972">
        <ele>1442</ele>
        <time>2024-12-06T01:03:53.000Z</time>
      </trkpt>
      <trkpt lat="42.84194" lon="-0.09699">
        <ele>1441</ele>
        <time>2024-12-06T01:04:46.000Z</time>
      </trkpt>
      <trkpt lat="42.842" lon="-0.09673">
        <ele>1442</ele>
        <time>2024-12-06T01:05:39.000Z</time>
      </trkpt>
      <trkpt lat="42.84209" lon="-0.0966">
        <ele>1442</ele>
        <time>2024-12-06T01:06:32.000Z</time>
      </trkpt>
      <trkpt lat="42.84215" lon="-0.09654">
        <ele>1443</ele>
        <time>2024-12-06T01:07:25.000Z</time>
      </trkpt>
      <trkpt lat="42.84242" lon="-0.09657">
        <ele>1440</ele>
        <time>2024-12-06T01:08:18.000Z</time>
      </trkpt>
      <trkpt lat="42.84268" lon="-0.0966">
        <ele>1440</ele>
        <time>2024-12-06T01:09:11.000Z</time>
      </trkpt>
      <trkpt lat="42.84295" lon="-0.09662">
        <ele>1438</ele>
        <time>2024-12-06T01:10:04.000Z</time>
      </trkpt>
      <trkpt lat="42.84295" lon="-0.09662">
        <ele>1438</ele>
        <time>2024-12-06T01:10:57.000Z</time>
      </trkpt>
      <trkpt lat="42.84318" lon="-0.09665">
        <ele>1436</ele>
        <time>2024-12-06T01:11:50.000Z</time>
      </trkpt>
      <trkpt lat="42.84331" lon="-0.0966">
        <ele>1437</ele>
        <time>2024-12-06T01:12:43.000Z</time>
      </trkpt>
      <trkpt lat="42.84353" lon="-0.09665">
        <ele>1436</ele>
        <time>2024-12-06T01:13:36.000Z</time>
      </trkpt>
      <trkpt lat="42.84382" lon="-0.09665">
        <ele>1434</ele>
        <time>2024-12-06T01:14:29.000Z</time>
      </trkpt>
      <trkpt lat="42.84411" lon="-0.09665">
        <ele>1428</ele>
        <time>2024-12-06T01:15:22.000Z</time>
      </trkpt>
      <trkpt lat="42.84435" lon="-0.09655">
        <ele>1426</ele>
        <time>2024-12-06T01:16:16.000Z</time>
      </trkpt>
      <trkpt lat="42.8446" lon="-0.09646">
        <ele>1420</ele>
        <time>2024-12-06T01:17:09.000Z</time>
      </trkpt>
      <trkpt lat="42.84485" lon="-0.09636">
        <ele>1414</ele>
        <time>2024-12-06T01:18:02.000Z</time>
      </trkpt>
      <trkpt lat="42.8451" lon="-0.09627">
        <ele>1410</ele>
        <time>2024-12-06T01:18:55.000Z</time>
      </trkpt>
      <trkpt lat="42.84535" lon="-0.09617">
        <ele>1410</ele>
        <time>2024-12-06T01:19:49.000Z</time>
      </trkpt>
      <trkpt lat="42.84551" lon="-0.09618">
        <ele>1407</ele>
        <time>2024-12-06T01:20:42.000Z</time>
      </trkpt>
      <trkpt lat="42.84567" lon="-0.0962">
        <ele>1405</ele>
        <time>2024-12-06T01:21:36.000Z</time>
      </trkpt>
      <trkpt lat="42.84586" lon="-0.0963">
        <ele>1402</ele>
        <time>2024-12-06T01:22:29.000Z</time>
      </trkpt>
      <trkpt lat="42.84617" lon="-0.0962">
        <ele>1402</ele>
        <time>2024-12-06T01:23:22.000Z</time>
      </trkpt>
      <trkpt lat="42.84634" lon="-0.09618">
        <ele>1400</ele>
        <time>2024-12-06T01:24:16.000Z</time>
      </trkpt>
      <trkpt lat="42.84651" lon="-0.09617">
        <ele>1400</ele>
        <time>2024-12-06T01:25:10.000Z</time>
      </trkpt>
      <trkpt lat="42.8467" lon="-0.09622">
        <ele>1399</ele>
        <time>2024-12-06T01:26:03.000Z</time>
      </trkpt>
      <trkpt lat="42.8467" lon="-0.09622">
        <ele>1399</ele>
        <time>2024-12-06T01:26:57.000Z</time>
      </trkpt>
      <trkpt lat="42.84686" lon="-0.09622">
        <ele>1399</ele>
        <time>2024-12-06T01:27:50.000Z</time>
      </trkpt>
      <trkpt lat="42.84702" lon="-0.09622">
        <ele>1398</ele>
        <time>2024-12-06T01:28:44.000Z</time>
      </trkpt>
      <trkpt lat="42.84724" lon="-0.09628">
        <ele>1396</ele>
        <time>2024-12-06T01:29:37.000Z</time>
      </trkpt>
      <trkpt lat="42.84745" lon="-0.09635">
        <ele>1394</ele>
        <time>2024-12-06T01:30:31.000Z</time>
      </trkpt>
      <trkpt lat="42.84766" lon="-0.09646">
        <ele>1393</ele>
        <time>2024-12-06T01:31:25.000Z</time>
      </trkpt>
      <trkpt lat="42.84786" lon="-0.09658">
        <ele>1391</ele>
        <time>2024-12-06T01:32:18.000Z</time>
      </trkpt>
      <trkpt lat="42.84813" lon="-0.09667">
        <ele>1390</ele>
        <time>2024-12-06T01:33:12.000Z</time>
      </trkpt>
      <trkpt lat="42.8484" lon="-0.09675">
        <ele>1387</ele>
        <time>2024-12-06T01:34:06.000Z</time>
      </trkpt>
      <trkpt lat="42.8486" lon="-0.09687">
        <ele>1387</ele>
        <time>2024-12-06T01:35:00.000Z</time>
      </trkpt>
      <trkpt lat="42.84881" lon="-0.09698">
        <ele>1385</ele>
        <time>2024-12-06T01:35:54.000Z</time>
      </trkpt>
      <trkpt lat="42.84902" lon="-0.0971">
        <ele>1384</ele>
        <time>2024-12-06T01:36:47.000Z</time>
      </trkpt>
      <trkpt lat="42.84919" lon="-0.09725">
        <ele>1384</ele>
        <time>2024-12-06T01:37:41.000Z</time>
      </trkpt>
      <trkpt lat="42.84936" lon="-0.0974">
        <ele>1384</ele>
        <time>2024-12-06T01:38:35.000Z</time>
      </trkpt>
      <trkpt lat="42.84962" lon="-0.09755">
        <ele>1382</ele>
        <time>2024-12-06T01:39:29.000Z</time>
      </trkpt>
      <trkpt lat="42.84988" lon="-0.0976">
        <ele>1381</ele>
        <time>2024-12-06T01:40:23.000Z</time>
      </trkpt>
      <trkpt lat="42.85013" lon="-0.09765">
        <ele>1379</ele>
        <time>2024-12-06T01:41:17.000Z</time>
      </trkpt>
      <trkpt lat="42.85041" lon="-0.09775">
        <ele>1378</ele>
        <time>2024-12-06T01:42:11.000Z</time>
      </trkpt>
      <trkpt lat="42.85069" lon="-0.09785">
        <ele>1376</ele>
        <time>2024-12-06T01:43:05.000Z</time>
      </trkpt>
      <trkpt lat="42.85099" lon="-0.09784">
        <ele>1373</ele>
        <time>2024-12-06T01:43:59.000Z</time>
      </trkpt>
      <trkpt lat="42.85129" lon="-0.09783">
        <ele>1372</ele>
        <time>2024-12-06T01:44:54.000Z</time>
      </trkpt>
      <trkpt lat="42.85159" lon="-0.09782">
        <ele>1372</ele>
        <time>2024-12-06T01:45:48.000Z</time>
      </trkpt>
      <trkpt lat="42.85189" lon="-0.0978">
        <ele>1370</ele>
        <time>2024-12-06T01:46:42.000Z</time>
      </trkpt>
      <trkpt lat="42.85194" lon="-0.09774">
        <ele>1371</ele>
        <time>2024-12-06T01:47:36.000Z</time>
      </trkpt>
      <trkpt lat="42.85219" lon="-0.09775">
        <ele>1370</ele>
        <time>2024-12-06T01:48:31.000Z</time>
      </trkpt>
      <trkpt lat="42.85245" lon="-0.09776">
        <ele>1368</ele>
        <time>2024-12-06T01:49:25.000Z</time>
      </trkpt>
      <trkpt lat="42.85272" lon="-0.09768">
        <ele>1367</ele>
        <time>2024-12-06T01:50:19.000Z</time>
      </trkpt>
      <trkpt lat="42.85299" lon="-0.09759">
        <ele>1367</ele>
        <time>2024-12-06T01:51:14.000Z</time>
      </trkpt>
      <trkpt lat="42.85323" lon="-0.09755">
        <ele>1366</ele>
        <time>2024-12-06T01:52:08.000Z</time>
      </trkpt>
      <trkpt lat="42.85347" lon="-0.09752">
        <ele>1364</ele>
        <time>2024-12-06T01:53:03.000Z</time>
      </trkpt>
      <trkpt lat="42.85372" lon="-0.09748">
        <ele>1363</ele>
        <time>2024-12-06T01:53:57.000Z</time>
      </trkpt>
      <trkpt lat="42.854" lon="-0.09749">
        <ele>1362</ele>
        <time>2024-12-06T01:54:52.000Z</time>
      </trkpt>
      <trkpt lat="42.85428" lon="-0.0975">
        <ele>1362</ele>
        <time>2024-12-06T01:55:46.000Z</time>
      </trkpt>
      <trkpt lat="42.85456" lon="-0.09764">
        <ele>1362</ele>
        <time>2024-12-06T01:56:41.000Z</time>
      </trkpt>
      <trkpt lat="42.85484" lon="-0.09777">
        <ele>1361</ele>
        <time>2024-12-06T01:57:36.000Z</time>
      </trkpt>
      <trkpt lat="42.85512" lon="-0.0979">
        <ele>1361</ele>
        <time>2024-12-06T01:58:30.000Z</time>
      </trkpt>
      <trkpt lat="42.8554" lon="-0.09803">
        <ele>1361</ele>
        <time>2024-12-06T01:59:25.000Z</time>
      </trkpt>
      <trkpt lat="42.85569" lon="-0.09816">
        <ele>1361</ele>
        <time>2024-12-06T02:00:20.000Z</time>
      </trkpt>
      <trkpt lat="42.85597" lon="-0.09829">
        <ele>1360</ele>
        <time>2024-12-06T02:01:15.000Z</time>
      </trkpt>
      <trkpt lat="42.85625" lon="-0.09843">
        <ele>1358</ele>
        <time>2024-12-06T02:02:10.000Z</time>
      </trkpt>
      <trkpt lat="42.85641" lon="-0.09861">
        <ele>1355</ele>
        <time>2024-12-06T02:03:05.000Z</time>
      </trkpt>
      <trkpt lat="42.85657" lon="-0.09879">
        <ele>1354</ele>
        <time>2024-12-06T02:03:59.000Z</time>
      </trkpt>
      <trkpt lat="42.85677" lon="-0.0989">
        <ele>1352</ele>
        <time>2024-12-06T02:04:54.000Z</time>
      </trkpt>
      <trkpt lat="42.857" lon="-0.09898">
        <ele>1351</ele>
        <time>2024-12-06T02:05:49.000Z</time>
      </trkpt>
      <trkpt lat="42.85724" lon="-0.09907">
        <ele>1348</ele>
        <time>2024-12-06T02:06:44.000Z</time>
      </trkpt>
      <trkpt lat="42.85752" lon="-0.09913">
        <ele>1348</ele>
        <time>2024-12-06T02:07:39.000Z</time>
      </trkpt>
      <trkpt lat="42.85771" lon="-0.09937">
        <ele>1347</ele>
        <time>2024-12-06T02:08:35.000Z</time>
      </trkpt>
      <trkpt lat="42.85801" lon="-0.09944">
        <ele>1347</ele>
        <time>2024-12-06T02:09:30.000Z</time>
      </trkpt>
      <trkpt lat="42.85822" lon="-0.09965">
        <ele>1345</ele>
        <time>2024-12-06T02:10:25.000Z</time>
      </trkpt>
      <trkpt lat="42.85848" lon="-0.0998">
        <ele>1343</ele>
        <time>2024-12-06T02:11:20.000Z</time>
      </trkpt>
      <trkpt lat="42.85874" lon="-0.09989">
        <ele>1342</ele>
        <time>2024-12-06T02:12:15.000Z</time>
      </trkpt>
      <trkpt lat="42.859" lon="-0.09999">
        <ele>1341</ele>
        <time>2024-12-06T02:13:11.000Z</time>
      </trkpt>
      <trkpt lat="42.85925" lon="-0.10008">
        <ele>1340</ele>
        <time>2024-12-06T02:14:06.000Z</time>
      </trkpt>
      <trkpt lat="42.85951" lon="-0.10022">
        <ele>1338</ele>
        <time>2024-12-06T02:15:01.000Z</time>
      </trkpt>
      <trkpt lat="42.85977" lon="-0.10036">
        <ele>1336</ele>
        <time>2024-12-06T02:15:57.000Z</time>
      </trkpt>
      <trkpt lat="42.86001" lon="-0.1004">
        <ele>1334</ele>
        <time>2024-12-06T02:16:52.000Z</time>
      </trkpt>
      <trkpt lat="42.86022" lon="-0.10039">
        <ele>1334</ele>
        <time>2024-12-06T02:17:47.000Z</time>
      </trkpt>
      <trkpt lat="42.86043" lon="-0.10038">
        <ele>1335</ele>
        <time>2024-12-06T02:18:43.000Z</time>
      </trkpt>
      <trkpt lat="42.8606" lon="-0.10048">
        <ele>1334</ele>
        <time>2024-12-06T02:19:38.000Z</time>
      </trkpt>
      <trkpt lat="42.86076" lon="-0.10057">
        <ele>1332</ele>
        <time>2024-12-06T02:20:34.000Z</time>
      </trkpt>
      <trkpt lat="42.86084" lon="-0.10057">
        <ele>1331</ele>
        <time>2024-12-06T02:21:29.000Z</time>
      </trkpt>
      <trkpt lat="42.86091" lon="-0.10051">
        <ele>1331</ele>
        <time>2024-12-06T02:22:25.000Z</time>
      </trkpt>
      <trkpt lat="42.86112" lon="-0.10049">
        <ele>1329</ele>
        <time>2024-12-06T02:23:20.000Z</time>
      </trkpt>
      <trkpt lat="42.86138" lon="-0.10039">
        <ele>1328</ele>
        <time>2024-12-06T02:24:16.000Z</time>
      </trkpt>
      <trkpt lat="42.86164" lon="-0.10029">
        <ele>1325</ele>
        <time>2024-12-06T02:25:12.000Z</time>
      </trkpt>
      <trkpt lat="42.86183" lon="-0.10027">
        <ele>1323</ele>
        <time>2024-12-06T02:26:07.000Z</time>
      </trkpt>
      <trkpt lat="42.86204" lon="-0.1003">
        <ele>1321</ele>
        <time>2024-12-06T02:27:03.000Z</time>
      </trkpt>
      <trkpt lat="42.86226" lon="-0.10034">
        <ele>1321</ele>
        <time>2024-12-06T02:27:59.000Z</time>
      </trkpt>
      <trkpt lat="42.86249" lon="-0.10057">
        <ele>1318</ele>
        <time>2024-12-06T02:28:55.000Z</time>
      </trkpt>
      <trkpt lat="42.86262" lon="-0.10066">
        <ele>1319</ele>
        <time>2024-12-06T02:29:50.000Z</time>
      </trkpt>
      <trkpt lat="42.86272" lon="-0.10084">
        <ele>1318</ele>
        <time>2024-12-06T02:30:46.000Z</time>
      </trkpt>
      <trkpt lat="42.86282" lon="-0.10102">
        <ele>1316</ele>
        <time>2024-12-06T02:31:42.000Z</time>
      </trkpt>
      <trkpt lat="42.86295" lon="-0.10115">
        <ele>1315</ele>
        <time>2024-12-06T02:32:38.000Z</time>
      </trkpt>
      <trkpt lat="42.86318" lon="-0.10128">
        <ele>1313</ele>
        <time>2024-12-06T02:33:34.000Z</time>
      </trkpt>
      <trkpt lat="42.86346" lon="-0.10139">
        <ele>1310</ele>
        <time>2024-12-06T02:34:30.000Z</time>
      </trkpt>
      <trkpt lat="42.86372" lon="-0.10136">
        <ele>1310</ele>
        <time>2024-12-06T02:35:26.000Z</time>
      </trkpt>
      <trkpt lat="42.86398" lon="-0.10132">
        <ele>1311</ele>
        <time>2024-12-06T02:36:22.000Z</time>
      </trkpt>
      <trkpt lat="42.86419" lon="-0.10137">
        <ele>1311</ele>
        <time>2024-12-06T02:37:18.000Z</time>
      </trkpt>
      <trkpt lat="42.86443" lon="-0.10147">
        <ele>1307</ele>
        <time>2024-12-06T02:38:14.000Z</time>
      </trkpt>
      <trkpt lat="42.86453" lon="-0.1016">
        <ele>1305</ele>
        <time>2024-12-06T02:39:10.000Z</time>
      </trkpt>
      <trkpt lat="42.86466" lon="-0.10167">
        <ele>1303</ele>
        <time>2024-12-06T02:40:06.000Z</time>
      </trkpt>
      <trkpt lat="42.86492" lon="-0.10175">
        <ele>1300</ele>
        <time>2024-12-06T02:41:02.000Z</time>
      </trkpt>
      <trkpt lat="42.86518" lon="-0.10183">
        <ele>1299</ele>
        <time>2024-12-06T02:41:58.000Z</time>
      </trkpt>
      <trkpt lat="42.86543" lon="-0.10191">
        <ele>1297</ele>
        <time>2024-12-06T02:42:54.000Z</time>
      </trkpt>
      <trkpt lat="42.86569" lon="-0.10199">
        <ele>1297</ele>
        <time>2024-12-06T02:43:50.000Z</time>
      </trkpt>
      <trkpt lat="42.8658" lon="-0.1021">
        <ele>1293</ele>
        <time>2024-12-06T02:44:47.000Z</time>
      </trkpt>
      <trkpt lat="42.86584" lon="-0.1022">
        <ele>1289</ele>
        <time>2024-12-06T02:45:43.000Z</time>
      </trkpt>
      <trkpt lat="42.86591" lon="-0.10227">
        <ele>1287</ele>
        <time>2024-12-06T02:46:39.000Z</time>
      </trkpt>
      <trkpt lat="42.8662" lon="-0.10242">
        <ele>1282</ele>
        <time>2024-12-06T02:47:36.000Z</time>
      </trkpt>
      <trkpt lat="42.86649" lon="-0.10257">
        <ele>1279</ele>
        <time>2024-12-06T02:48:32.000Z</time>
      </trkpt>
      <trkpt lat="42.86679" lon="-0.10264">
        <ele>1275</ele>
        <time>2024-12-06T02:49:28.000Z</time>
      </trkpt>
      <trkpt lat="42.8671" lon="-0.10271">
        <ele>1271</ele>
        <time>2024-12-06T02:50:25.000Z</time>
      </trkpt>
      <trkpt lat="42.86741" lon="-0.10278">
        <ele>1266</ele>
        <time>2024-12-06T02:51:21.000Z</time>
      </trkpt>
      <trkpt lat="42.86763" lon="-0.10278">
        <ele>1265</ele>
        <time>2024-12-06T02:52:18.000Z</time>
      </trkpt>
      <trkpt lat="42.86785" lon="-0.10277">
        <ele>1265</ele>
        <time>2024-12-06T02:53:14.000Z</time>
      </trkpt>
      <trkpt lat="42.86807" lon="-0.10276">
        <ele>1263</ele>
        <time>2024-12-06T02:54:11.000Z</time>
      </trkpt>
      <trkpt lat="42.86835" lon="-0.10292">
        <ele>1260</ele>
        <time>2024-12-06T02:55:07.000Z</time>
      </trkpt>
      <trkpt lat="42.86862" lon="-0.10309">
        <ele>1256</ele>
        <time>2024-12-06T02:56:04.000Z</time>
      </trkpt>
      <trkpt lat="42.8689" lon="-0.10325">
        <ele>1255</ele>
        <time>2024-12-06T02:57:01.000Z</time>
      </trkpt>
      <trkpt lat="42.86917" lon="-0.10341">
        <ele>1255</ele>
        <time>2024-12-06T02:57:57.000Z</time>
      </trkpt>
      <trkpt lat="42.86945" lon="-0.10358">
        <ele>1254</ele>
        <time>2024-12-06T02:58:54.000Z</time>
      </trkpt>
      <trkpt lat="42.8697" lon="-0.10365">
        <ele>1256</ele>
        <time>2024-12-06T02:59:51.000Z</time>
      </trkpt>
      <trkpt lat="42.86996" lon="-0.10372">
        <ele>1255</ele>
        <time>2024-12-06T03:00:48.000Z</time>
      </trkpt>
      <trkpt lat="42.87022" lon="-0.10379">
        <ele>1255</ele>
        <time>2024-12-06T03:01:45.000Z</time>
      </trkpt>
      <trkpt lat="42.87043" lon="-0.10395">
        <ele>1246</ele>
        <time>2024-12-06T03:02:42.000Z</time>
      </trkpt>
      <trkpt lat="42.87065" lon="-0.10411">
        <ele>1236</ele>
        <time>2024-12-06T03:03:39.000Z</time>
      </trkpt>
      <trkpt lat="42.87078" lon="-0.10433">
        <ele>1228</ele>
        <time>2024-12-06T03:04:35.000Z</time>
      </trkpt>
      <trkpt lat="42.87101" lon="-0.10448">
        <ele>1221</ele>
        <time>2024-12-06T03:05:32.000Z</time>
      </trkpt>
      <trkpt lat="42.87124" lon="-0.10459">
        <ele>1219</ele>
        <time>2024-12-06T03:06:29.000Z</time>
      </trkpt>
      <trkpt lat="42.87147" lon="-0.10471">
        <ele>1211</ele>
        <time>2024-12-06T03:07:27.000Z</time>
      </trkpt>
      <trkpt lat="42.8717" lon="-0.10482">
        <ele>1204</ele>
        <time>2024-12-06T03:08:24.000Z</time>
      </trkpt>
      <trkpt lat="42.87183" lon="-0.10482">
        <ele>1204</ele>
        <time>2024-12-06T03:09:21.000Z</time>
      </trkpt>
      <trkpt lat="42.87194" lon="-0.10491">
        <ele>1201</ele>
        <time>2024-12-06T03:10:18.000Z</time>
      </trkpt>
      <trkpt lat="42.87183" lon="-0.10508">
        <ele>1193</ele>
        <time>2024-12-06T03:11:15.000Z</time>
      </trkpt>
      <trkpt lat="42.87206" lon="-0.10529">
        <ele>1181</ele>
        <time>2024-12-06T03:12:12.000Z</time>
      </trkpt>
      <trkpt lat="42.87183" lon="-0.10546">
        <ele>1175</ele>
        <time>2024-12-06T03:13:09.000Z</time>
      </trkpt>
      <trkpt lat="42.87197" lon="-0.10557">
        <ele>1168</ele>
        <time>2024-12-06T03:14:07.000Z</time>
      </trkpt>
      <trkpt lat="42.87211" lon="-0.10568">
        <ele>1161</ele>
        <time>2024-12-06T03:15:04.000Z</time>
      </trkpt>
      <trkpt lat="42.87215" lon="-0.10574">
        <ele>1157</ele>
        <time>2024-12-06T03:16:01.000Z</time>
      </trkpt>
      <trkpt lat="42.87213" lon="-0.10581">
        <ele>1154</ele>
        <time>2024-12-06T03:16:58.000Z</time>
      </trkpt>
      <trkpt lat="42.87196" lon="-0.10593">
        <ele>1148</ele>
        <time>2024-12-06T03:17:56.000Z</time>
      </trkpt>
      <trkpt lat="42.87179" lon="-0.10604">
        <ele>1141</ele>
        <time>2024-12-06T03:18:53.000Z</time>
      </trkpt>
      <trkpt lat="42.87176" lon="-0.10611">
        <ele>1138</ele>
        <time>2024-12-06T03:19:50.000Z</time>
      </trkpt>
      <trkpt lat="42.87179" lon="-0.10615">
        <ele>1137</ele>
        <time>2024-12-06T03:20:48.000Z</time>
      </trkpt>
      <trkpt lat="42.87202" lon="-0.10621">
        <ele>1132</ele>
        <time>2024-12-06T03:21:45.000Z</time>
      </trkpt>
      <trkpt lat="42.87226" lon="-0.10626">
        <ele>1126</ele>
        <time>2024-12-06T03:22:43.000Z</time>
      </trkpt>
      <trkpt lat="42.87228" lon="-0.1063">
        <ele>1122</ele>
        <time>2024-12-06T03:23:40.000Z</time>
      </trkpt>
      <trkpt lat="42.87224" lon="-0.10639">
        <ele>1121</ele>
        <time>2024-12-06T03:24:37.000Z</time>
      </trkpt>
      <trkpt lat="42.87211" lon="-0.10654">
        <ele>1113</ele>
        <time>2024-12-06T03:25:35.000Z</time>
      </trkpt>
      <trkpt lat="42.87198" lon="-0.1068">
        <ele>1103</ele>
        <time>2024-12-06T03:26:32.000Z</time>
      </trkpt>
      <trkpt lat="42.87179" lon="-0.10684">
        <ele>1100</ele>
        <time>2024-12-06T03:27:30.000Z</time>
      </trkpt>
      <trkpt lat="42.87149" lon="-0.10684">
        <ele>1100</ele>
        <time>2024-12-06T03:28:27.000Z</time>
      </trkpt>
      <trkpt lat="42.87118" lon="-0.10684">
        <ele>1103</ele>
        <time>2024-12-06T03:29:25.000Z</time>
      </trkpt>
      <trkpt lat="42.87101" lon="-0.10699">
        <ele>1103</ele>
        <time>2024-12-06T03:30:23.000Z</time>
      </trkpt>
      <trkpt lat="42.87107" lon="-0.10726">
        <ele>1096</ele>
        <time>2024-12-06T03:31:20.000Z</time>
      </trkpt>
      <trkpt lat="42.87112" lon="-0.10752">
        <ele>1087</ele>
        <time>2024-12-06T03:32:18.000Z</time>
      </trkpt>
      <trkpt lat="42.87118" lon="-0.10761">
        <ele>1083</ele>
        <time>2024-12-06T03:33:16.000Z</time>
      </trkpt>
      <trkpt lat="42.87131" lon="-0.10759">
        <ele>1078</ele>
        <time>2024-12-06T03:34:13.000Z</time>
      </trkpt>
      <trkpt lat="42.87151" lon="-0.10772">
        <ele>1070</ele>
        <time>2024-12-06T03:35:11.000Z</time>
      </trkpt>
      <trkpt lat="42.8716" lon="-0.10798">
        <ele>1066</ele>
        <time>2024-12-06T03:36:09.000Z</time>
      </trkpt>
      <trkpt lat="42.8717" lon="-0.10823">
        <ele>1061</ele>
        <time>2024-12-06T03:37:06.000Z</time>
      </trkpt>
      <trkpt lat="42.87181" lon="-0.10843">
        <ele>1057</ele>
        <time>2024-12-06T03:38:04.000Z</time>
      </trkpt>
      <trkpt lat="42.87191" lon="-0.10847">
        <ele>1052</ele>
        <time>2024-12-06T03:39:02.000Z</time>
      </trkpt>
      <trkpt lat="42.87198" lon="-0.10858">
        <ele>1049</ele>
        <time>2024-12-06T03:40:00.000Z</time>
      </trkpt>
      <trkpt lat="42.87204" lon="-0.10881">
        <ele>1045</ele>
        <time>2024-12-06T03:40:58.000Z</time>
      </trkpt>
      <trkpt lat="42.87211" lon="-0.1089">
        <ele>1042</ele>
        <time>2024-12-06T03:41:56.000Z</time>
      </trkpt>
      <trkpt lat="42.87212" lon="-0.10916">
        <ele>1041</ele>
        <time>2024-12-06T03:42:54.000Z</time>
      </trkpt>
      <trkpt lat="42.87213" lon="-0.10941">
        <ele>1042</ele>
        <time>2024-12-06T03:43:51.000Z</time>
      </trkpt>
      <trkpt lat="42.87215" lon="-0.1095">
        <ele>1043</ele>
        <time>2024-12-06T03:44:49.000Z</time>
      </trkpt>
      <trkpt lat="42.87239" lon="-0.10958">
        <ele>1041</ele>
        <time>2024-12-06T03:45:47.000Z</time>
      </trkpt>
      <trkpt lat="42.87241" lon="-0.10961">
        <ele>1041</ele>
        <time>2024-12-06T03:46:45.000Z</time>
      </trkpt>
      <trkpt lat="42.87256" lon="-0.10958">
        <ele>1041</ele>
        <time>2024-12-06T03:47:43.000Z</time>
      </trkpt>
      <trkpt lat="42.87273" lon="-0.10951">
        <ele>1040</ele>
        <time>2024-12-06T03:48:41.000Z</time>
      </trkpt>
      <trkpt lat="42.87291" lon="-0.10943">
        <ele>1040</ele>
        <time>2024-12-06T03:49:39.000Z</time>
      </trkpt>
    </trkseg>
  </trk>
</gpx>